GFSGL_sfc_rhum_000.txt.gz
RH
87 86 81 79 79 81 82 83 83 82 84 84 84 82 83 83 84 87 88 86 88 90 89 91 90 91 90 88 88 89 94 96 93 74 76 74 81 81 78 77 73 76 70
82 83 78 72 77 74 84 83 85 84 85 84 84 85 85 85 86 86 85 83 86 88 88 89 87 80 91 90 89 94 95 94 96 95 81 77 83 83 84 85 76 64 68
80 84 79 77 81 87 86 86 86 84 84 82 84 86 85 83 82 83 86 86 87 87 87 88 87 86 89 88 93 95 96 93 97 96 86 77 78 75 80 81 82 77 68
76 82 83 83 79 86 88 87 85 84 83 84 84 82 81 79 78 80 83 86 87 83 86 88 86 87 89 91 93 95 95 97 97 97 87 82 80 79 78 79 74 66 68
80 80 79 81 80 89 92 92 90 85 82 83 83 82 81 76 66 82 84 86 86 85 88 86 85 86 87 92 95 94 95 97 97 93 86 83 81 79 81 73 76 71 71
84 81 82 88 94 95 98 97 89 85 86 84 83 82 82 71 79 84 84 82 86 87 84 84 83 79 83 86 88 91 94 95 96 92 83 88 88 84 78 78 75 77 80
90 87 90 93 94 95 98 96 93 88 84 82 84 83 83 83 86 86 86 89 85 82 87 89 84 85 87 83 85 88 90 93 95 96 96 93 92 85 85 87 86 86 83
94 92 93 92 91 95 95 94 93 91 88 86 86 86 84 82 85 89 89 90 90 84 86 86 90 88 82 86 86 87 83 83 83 75 86 85 86 87 89 87 92 94 88
95 95 94 90 90 92 92 92 85 89 90 91 90 89 90 90 93 93 93 94 90 90 86 84 84 89 89 92 85 87 86 82 81 88 89 90 90 92 91 94 96 97 97
95 93 92 92 90 90 91 91 89 93 93 95 94 93 97 95 95 100 98 96 90 84 88 90 88 86 94 92 85 89 92 83 82 82 79 82 82 82 90 92 96 99 98
93 93 93 94 94 94 96 96 97 98 98 97 95 93 94 96 96 99 96 93 82 86 86 79 87 91 93 92 97 91 91 91 88 88 83 75 78 81 80 84 92 98 98
94 95 95 95 94 95 95 98 97 97 95 94 92 93 95 94 100 98 97 94 91 87 82 78 90 90 93 93 92 92 93 89 91 90 83 84 93 88 85 91 92 95 96
95 95 95 95 95 95 96 96 97 95 94 95 95 97 97 99 97 96 97 98 91 76 75 81 86 90 93 89 90 87 87 90 91 87 84 87 88 89 92 93 91 93 94
96 96 96 96 97 96 98 97 96 96 97 98 98 98 96 97 94 83 78 78 85 76 74 74 87 86 88 81 84 83 86 86 84 88 85 88 88 88 91 94 98 98 98
95 96 97 97 98 98 99 99 99 99 99 98 98 91 93 94 85 87 87 78 76 80 79 85 90 78 79 72 70 76 77 72 76 79 84 84 88 84 88 92 97 98 99
94 96 97 98 96 97 99 100 99 99 99 100 100 93 82 90 89 88 88 89 99 98 80 79 78 76 71 67 65 61 59 61 61 65 65 76 71 82 87 90 96 98 99
93 93 84 83 94 99 98 99 98 95 99 97 94 88 83 84 87 91 92 93 92 88 73 73 71 65 62 60 55 54 54 58 68 58 71 60 58 72 82 87 93 96 98
89 92 94 96 97 99 99 98 96 96 91 81 93 84 90 90 89 89 86 81 66 68 66 65 59 52 53 54 54 50 52 56 56 57 57 58 58 62 67 76 86 92 97
92 90 89 93 99 99 98 97 95 92 85 84 86 94 97 96 96 89 89 69 67 62 57 52 52 54 57 60 54 49 53 57 59 56 56 57 57 59 62 67 80 83 90
94 93 93 92 98 98 98 95 94 95 92 84 80 81 85 85 74 72 72 69 65 59 58 60 62 64 66 56 46 48 54 56 56 54 56 56 57 56 53 57 62 81 85
81 86 92 90 93 93 90 92 94 94 90 82 78 82 92 74 73 71 68 69 66 65 68 66 67 62 49 47 53 56 53 52 54 55 55 55 57 53 53 51 50 51 55
80 85 89 90 93 95 93 93 94 94 94 83 78 78 93 67 70 72 69 68 67 69 60 56 48 40 39 44 55 51 50 51 54 55 55 52 52 50 49 45 46 48 50
88 84 88 92 92 94 88 87 88 84 83 80 74 69 74 70 68 70 71 67 68 69 58 51 47 42 42 48 50 48 45 48 53 56 56 53 49 49 49 47 46 47 50
81 81 82 84 85 83 84 82 81 86 77 80 82 78 74 72 74 73 72 71 72 65 53 49 45 40 43 42 43 40 42 45 55 55 58 51 48 52 47 46 45 48 47
72 76 78 81 80 78 78 72 72 74 75 79 76 72 68 66 66 67 70 69 69 62 56 50 44 41 37 36 34 34 51 75 69 77 51 48 48 52 47 43 46 42 45
67 70 71 74 75 75 73 70 69 67 68 76 76 76 73 70 67 66 67 65 60 57 54 49 45 40 36 34 36 51 77 82 68 90 50 43 42 42 42 44 43 39 42

GFSGL_sfc_rhum_003.txt.gz
RH
67 72 73 74 75 79 83 78 83 76 70 68 68 64 62 63 65 70 70 62 64 65 68 71 71 76 62 56 61 67 60 62 65 49 44 56 71 69 63 60 57 58 48
64 72 73 74 85 82 81 82 77 80 70 67 66 66 65 62 63 68 65 55 63 64 63 68 66 57 74 71 60 72 65 66 66 73 62 54 64 66 68 71 61 49 50
59 63 69 73 74 76 81 72 80 83 82 65 68 71 67 64 66 68 67 62 64 65 64 65 64 67 72 58 66 61 56 75 65 72 61 50 52 54 60 64 64 62 52
51 59 70 72 71 82 84 93 85 87 82 84 78 76 68 65 63 60 60 66 66 62 65 64 65 69 69 69 65 71 69 66 66 65 61 53 50 56 56 58 53 45 47
60 61 68 70 71 81 93 95 92 94 95 82 80 78 71 63 50 63 64 66 68 65 63 68 65 70 77 75 58 66 72 64 54 54 57 50 49 48 55 49 54 51 53
66 66 68 74 83 85 88 91 90 92 90 84 79 79 80 64 72 79 73 63 66 70 69 64 68 79 78 85 86 88 83 75 77 65 54 61 71 61 54 59 56 56 55
72 70 74 80 84 88 85 88 92 94 94 84 80 79 79 78 83 86 87 63 65 69 81 75 66 51 73 63 71 81 84 89 91 84 82 78 76 69 77 74 71 71 69
77 76 79 81 83 86 86 89 91 91 85 81 79 79 77 70 89 91 94 76 89 82 73 73 71 69 67 70 65 64 63 64 68 58 66 69 69 68 72 73 82 90 75
78 80 83 81 83 85 84 87 87 85 81 85 76 80 79 80 94 94 92 88 86 89 80 74 75 72 84 90 72 70 68 65 71 85 85 88 90 91 86 76 81 70 72
76 80 82 82 83 82 80 85 83 80 89 76 79 81 85 84 99 98 96 99 97 96 80 81 86 79 91 92 73 70 72 66 66 64 61 65 72 68 82 74 75 95 85
78 82 85 84 82 79 82 82 82 85 82 87 89 86 85 86 88 93 100 93 95 78 63 60 64 88 91 92 96 72 75 74 69 62 56 52 54 56 53 56 65 65 84
85 91 92 85 77 75 85 84 83 84 88 90 84 76 76 72 98 98 100 99 95 73 65 57 65 86 88 92 84 91 91 81 54 54 52 51 52 51 51 55 66 68 67
93 96 94 89 88 84 82 83 75 81 81 77 64 66 69 86 83 99 100 99 96 70 57 70 81 87 90 88 81 85 82 55 53 53 51 49 48 48 61 55 56 68 72
93 92 90 88 86 81 70 69 66 65 90 95 91 66 76 71 70 65 64 65 80 64 69 57 74 82 87 71 66 62 54 51 51 50 48 46 44 43 42 41 48 58 85
85 84 84 76 78 76 76 71 66 83 88 75 65 55 60 65 66 74 70 57 54 69 64 54 57 55 56 58 56 54 51 48 48 45 44 42 41 39 37 38 48 58 87
82 79 76 72 70 65 76 83 98 98 100 100 100 80 68 87 90 88 85 85 99 94 57 52 54 55 56 53 52 48 45 46 44 44 42 40 40 39 38 39 48 58 85
77 79 70 77 68 70 73 69 67 75 94 94 95 89 83 82 89 91 90 90 92 87 50 51 52 54 51 48 42 40 40 39 52 39 41 40 39 39 40 40 49 57 70
73 87 62 56 60 72 80 67 62 63 62 59 87 72 90 90 90 89 88 81 55 60 49 50 50 47 43 42 41 38 37 34 33 38 38 37 37 39 39 41 47 61 82
58 55 56 56 58 64 74 74 66 68 57 55 59 74 84 98 91 89 87 52 49 47 44 44 41 39 42 44 44 40 39 30 39 40 36 36 36 36 38 38 42 72 75
72 91 75 68 87 86 82 70 68 66 62 55 54 52 57 66 56 56 54 52 47 42 42 42 44 45 47 47 38 35 32 36 38 35 36 36 36 35 34 35 37 46 55
65 62 77 61 62 66 64 61 60 58 54 52 50 56 76 56 53 52 48 49 46 44 48 47 47 45 41 38 36 35 34 35 36 37 36 34 36 35 33 31 30 36 43
54 62 57 55 60 65 63 64 63 59 54 54 54 72 94 57 50 49 49 48 46 48 44 45 36 31 28 29 34 34 34 35 36 36 36 33 32 31 31 29 28 30 36
54 52 57 59 60 76 66 61 64 64 58 59 56 54 58 53 50 50 51 47 49 48 46 39 35 29 27 27 31 34 32 34 36 37 36 34 30 31 31 29 28 31 32
51 49 52 55 58 54 55 59 62 72 54 54 55 54 54 62 60 59 54 48 50 49 45 38 33 27 29 24 28 29 31 34 38 36 41 34 31 35 30 28 27 31 29
48 50 52 54 55 54 55 50 51 48 49 51 51 55 58 56 53 48 46 48 50 50 46 38 33 31 28 28 23 26 44 69 59 74 36 34 35 39 32 26 30 27 31
41 44 44 45 45 44 44 44 44 43 41 41 42 46 51 54 52 48 46 46 46 45 43 37 34 32 28 27 30 46 72 76 60 90 43 30 30 28 28 29 31 25 28

GFSGL_sfc_rhum_006.txt.gz
RH
54 59 60 58 59 64 63 70 68 67 63 60 61 56 53 54 56 61 59 50 51 54 51 55 59 61 45 37 35 36 38 39 45 39 35 40 52 54 51 50 48 49 43
50 59 58 58 58 61 72 73 81 73 66 66 65 63 66 52 55 59 57 47 50 52 52 57 56 45 58 60 44 56 48 50 46 67 54 44 54 51 52 58 49 39 41
45 48 54 56 59 62 70 72 74 70 78 73 72 76 70 71 56 58 59 57 53 51 52 55 55 54 60 49 53 46 40 42 45 44 48 42 41 40 48 63 54 52 40
35 43 54 56 57 63 67 80 78 71 75 86 81 83 66 62 63 60 55 57 54 50 54 56 57 56 58 59 54 59 57 53 52 46 48 41 57 53 52 53 42 33 33
40 41 49 57 60 66 73 76 75 72 72 75 76 69 68 65 60 61 56 52 56 56 55 54 55 60 68 67 47 56 62 52 46 48 43 40 47 55 63 40 41 38 44
48 48 51 62 67 71 80 80 73 76 73 77 73 66 66 58 62 74 62 53 56 59 60 60 66 75 80 86 87 86 78 68 66 50 48 49 64 64 47 44 47 47 51
56 55 59 66 72 76 77 78 76 78 77 66 65 66 68 67 77 78 80 51 53 57 65 70 70 69 78 58 78 88 87 87 86 71 73 66 77 66 64 80 66 59 54
62 62 64 69 73 76 80 78 76 67 70 70 69 70 66 59 85 90 86 63 64 63 66 69 73 84 83 65 64 57 58 58 59 56 65 61 61 63 67 64 68 69 65
62 64 66 68 72 76 79 79 74 70 66 65 66 68 70 67 92 90 90 57 59 68 84 78 82 87 89 82 65 63 62 58 65 80 83 82 83 85 80 60 55 61 62
61 64 67 70 71 76 78 78 80 73 67 57 64 67 69 74 94 90 86 50 73 63 91 90 91 84 86 88 68 62 62 57 54 56 54 62 73 58 86 72 68 86 80
57 62 69 71 74 78 80 83 81 77 77 73 71 66 73 84 74 96 95 72 50 66 59 80 68 84 87 91 92 60 66 70 61 55 44 37 36 40 36 55 61 52 48
64 69 79 78 73 68 86 88 88 86 82 77 88 84 73 66 96 98 99 94 84 59 76 45 71 84 81 90 82 86 86 79 45 42 40 34 36 37 36 40 56 56 47
78 82 84 81 78 80 88 88 80 79 65 75 89 67 89 60 82 99 100 100 98 67 47 74 82 84 87 82 87 80 85 48 44 42 37 37 38 37 48 49 48 57 60
82 84 86 88 84 80 76 78 74 66 67 82 77 87 88 85 64 62 87 76 85 62 75 53 68 79 91 80 67 66 48 45 44 43 41 40 38 36 35 32 30 29 39
84 81 78 75 82 80 78 73 57 72 65 52 59 72 72 83 60 70 62 45 44 61 60 46 46 44 43 45 46 46 45 42 42 39 40 39 36 33 31 28 28 32 48
72 68 61 58 62 66 65 63 96 90 100 100 100 85 77 88 91 87 87 89 83 81 50 41 40 40 42 41 43 41 39 44 39 39 38 35 34 32 31 29 28 38 57
62 64 52 56 47 51 53 50 51 72 93 92 91 91 88 89 86 86 88 91 95 85 40 37 40 41 41 41 38 35 35 35 50 38 36 34 31 30 32 30 31 38 47
60 80 49 47 45 45 48 50 45 48 48 53 83 70 90 90 90 90 89 87 49 55 36 38 39 40 40 39 37 36 35 34 31 31 31 29 29 29 29 30 31 39 45
49 45 44 41 40 45 44 43 42 43 42 46 54 65 80 90 89 87 84 43 38 34 33 34 34 33 35 38 39 40 40 32 28 32 29 28 27 26 28 28 28 50 56
47 78 58 39 46 45 46 45 44 44 42 46 44 41 47 58 48 47 45 43 38 33 33 34 34 36 39 42 39 35 31 27 29 27 27 28 27 26 25 25 24 27 38
37 48 64 44 43 42 40 39 37 38 39 37 36 42 63 44 38 40 40 42 38 35 39 38 38 38 40 38 34 29 24 25 26 27 27 26 27 25 25 24 21 21 23
40 42 39 37 37 41 39 39 39 38 36 36 37 58 82 48 41 42 42 40 37 39 35 41 35 30 26 27 28 24 24 25 27 27 27 25 24 23 23 22 20 20 21
38 41 40 39 38 60 45 39 38 38 36 40 40 44 53 50 41 42 44 41 39 38 38 36 34 28 26 23 20 22 22 25 26 28 29 27 24 24 24 22 21 21 22
37 36 36 36 39 36 34 37 38 57 45 48 53 49 47 42 41 46 48 41 40 39 39 36 32 27 27 22 19 20 23 25 29 27 33 28 26 30 25 23 21 23 22
33 35 37 38 38 37 37 37 38 39 44 38 38 42 40 42 45 48 46 42 40 40 39 34 31 30 28 25 17 20 59 64 46 73 31 30 29 34 25 21 24 20 24
29 31 31 32 33 34 34 33 33 33 32 32 32 34 34 36 39 50 46 40 38 37 37 34 31 30 27 23 24 52 68 68 49 88 41 28 25 24 24 24 25 20 22

GFSGL_sfc_rhum_009.txt.gz
RH
56 58 61 61 61 66 64 63 64 60 63 58 66 62 59 61 63 67 63 55 57 63 62 57 59 62 46 38 35 37 36 39 43 42 38 44 62 59 52 56 47 53 44
50 59 61 61 61 61 67 64 67 68 64 64 65 68 60 64 72 65 62 55 54 56 56 63 58 45 70 70 46 66 56 56 49 69 56 44 58 58 60 62 49 37 41
45 48 55 58 60 62 67 64 70 70 70 62 66 71 65 63 62 64 64 73 56 54 55 59 58 62 70 54 62 56 49 53 50 42 45 53 53 60 54 58 73 66 55
33 37 52 58 59 58 64 69 67 73 73 69 67 70 68 65 64 61 61 62 63 59 58 58 58 62 69 72 68 77 65 59 54 48 44 47 49 54 50 44 54 61 54
37 38 47 58 59 61 64 69 71 73 73 71 69 69 70 54 48 66 57 57 68 63 56 55 58 61 69 71 61 73 78 59 46 45 47 45 43 43 57 49 56 50 58
44 42 50 61 65 66 69 73 78 77 74 72 70 72 64 47 61 75 63 53 60 64 61 62 64 70 67 82 83 87 88 83 80 59 54 56 71 64 53 57 64 53 52
48 49 53 63 68 71 72 78 82 82 75 73 70 63 63 62 90 82 79 51 54 59 70 67 59 47 65 56 81 93 93 90 86 75 78 75 80 74 73 76 73 64 59
57 56 58 63 68 72 78 81 84 80 77 73 72 66 68 65 87 84 83 57 60 63 61 66 71 67 64 80 75 82 80 69 73 63 79 75 69 64 69 68 74 75 60
56 60 60 60 66 68 75 78 78 81 79 71 69 74 76 70 87 88 82 63 67 69 63 64 62 76 80 91 79 83 80 73 61 76 77 76 76 77 73 54 53 47 47
56 57 61 64 67 67 72 83 82 80 76 61 64 77 78 72 91 91 85 74 71 68 82 80 94 80 96 90 76 73 68 63 55 52 56 65 76 70 83 73 55 56 51
50 54 61 64 69 70 75 81 81 82 82 83 79 77 71 73 76 96 94 79 51 48 65 63 64 90 88 90 89 66 67 71 64 54 47 43 43 42 31 44 72 53 52
59 60 66 69 63 73 85 79 82 87 83 80 83 76 61 78 91 94 95 96 88 62 68 64 92 92 88 89 81 78 80 78 47 43 41 40 37 31 32 40 62 59 50
66 70 73 80 77 79 83 85 83 84 82 73 70 72 78 91 91 99 100 99 99 77 86 95 90 89 82 78 84 82 86 51 46 45 43 36 32 34 53 53 56 62 61
77 85 85 83 81 80 74 75 79 75 68 65 69 80 78 75 72 65 84 75 96 83 83 64 64 70 84 77 67 70 55 50 47 45 41 38 35 35 34 32 31 29 29
75 79 82 74 78 82 77 74 70 73 68 56 61 66 58 59 83 80 80 73 54 63 59 47 50 47 44 52 59 66 64 46 43 40 38 37 34 33 33 30 29 30 31
71 65 65 65 71 76 71 69 97 92 99 99 93 76 63 87 91 87 85 83 78 77 50 43 38 36 36 37 44 46 42 44 39 39 39 36 35 34 32 30 28 30 35
59 57 48 54 48 56 51 52 58 74 90 90 92 92 88 86 86 83 83 82 80 80 42 34 35 37 37 38 37 36 35 35 52 38 35 34 32 30 31 29 29 30 36
56 81 46 38 37 40 42 42 39 48 50 54 85 76 89 86 85 84 85 85 48 57 38 34 35 36 37 37 36 34 34 34 32 31 30 29 29 29 29 29 28 32 33
51 42 40 37 35 40 37 37 36 36 38 48 54 64 77 91 90 88 91 49 35 33 31 33 33 33 33 34 36 38 41 36 31 30 32 28 27 27 28 26 26 42 43
43 68 49 35 37 36 36 34 33 34 34 64 46 44 49 58 51 51 50 43 38 33 31 34 33 35 37 40 40 38 35 29 28 27 26 27 27 26 24 24 23 24 26
33 37 58 34 35 33 34 33 31 31 30 35 44 50 60 46 39 47 40 40 39 35 36 36 36 38 39 41 39 33 27 23 24 25 25 26 27 25 25 23 21 19 20
32 35 34 32 33 35 33 31 30 29 29 36 56 52 75 39 35 36 38 54 38 38 34 40 38 33 30 29 31 27 22 22 24 26 26 25 24 23 23 22 20 20 20
35 31 31 31 36 55 38 32 34 45 38 48 59 53 47 40 37 40 60 56 52 40 36 36 36 31 27 27 23 20 19 21 24 25 28 27 24 24 26 24 22 21 22
44 35 47 44 49 36 32 46 51 51 38 38 40 45 49 43 56 57 58 52 41 44 39 37 34 29 28 28 19 17 19 23 27 25 33 29 27 29 28 25 22 23 21
36 38 44 46 35 34 32 30 36 37 35 38 47 48 47 56 57 46 40 44 52 46 48 37 33 31 32 30 22 24 54 59 36 70 28 31 30 33 25 22 24 22 22
32 31 30 30 31 31 31 30 29 33 40 42 36 44 43 41 42 42 44 51 52 50 40 34 33 33 30 25 25 54 68 52 44 80 40 28 28 26 26 24 25 21 22

GFSGL_sfc_rhum_012.txt.gz
RH
71 72 73 72 74 73 73 72 74 70 72 74 75 74 74 73 76 81 80 74 78 78 76 77 74 75 75 73 75 74 72 70 76 72 71 68 69 72 68 70 71 76 72
67 71 72 74 74 74 74 74 73 76 74 73 75 76 74 71 76 77 74 65 76 77 77 79 75 62 84 81 81 80 78 78 77 82 78 75 79 76 77 78 69 49 66
62 63 68 69 73 74 76 72 75 74 74 68 74 77 75 70 75 75 75 75 74 74 75 77 76 78 83 82 85 83 80 77 82 83 76 74 74 73 75 77 76 76 68
53 57 65 68 69 69 73 77 73 75 76 75 74 76 75 70 72 71 74 76 77 73 75 75 76 77 81 82 80 87 85 91 88 93 86 74 78 75 80 79 78 78 80
52 54 62 67 69 71 73 76 76 76 77 76 78 76 76 69 60 73 73 75 79 76 78 74 73 74 75 81 89 87 90 90 84 77 64 62 65 73 81 75 78 79 72
49 52 58 67 72 73 75 76 79 78 81 80 81 76 79 71 68 77 74 72 77 78 79 77 74 76 75 84 96 88 83 89 86 80 73 69 80 84 84 80 82 77 76
53 54 58 66 72 74 74 77 78 83 82 86 83 78 82 78 87 85 81 70 74 72 79 80 73 58 81 77 91 87 90 90 82 77 78 78 84 87 90 86 86 87 81
60 58 60 67 72 74 76 77 80 83 85 86 85 87 82 73 84 90 88 77 74 79 78 81 84 81 80 78 82 84 87 84 91 91 87 80 87 86 86 84 84 84 78
54 64 61 69 73 76 79 82 83 86 87 88 88 84 88 84 97 91 88 75 71 77 78 79 84 83 86 95 87 86 86 82 76 84 86 87 79 76 76 80 74 74 70
58 61 68 71 76 78 81 87 88 86 88 82 84 82 84 83 93 92 87 68 71 76 89 87 91 82 98 98 88 91 89 84 82 78 78 80 83 77 80 79 70 76 72
60 64 70 73 78 79 84 87 87 88 86 87 85 80 81 86 87 92 91 84 86 94 92 93 87 99 98 95 95 88 88 84 78 77 73 64 61 60 61 66 82 82 80
69 70 76 79 68 74 86 89 88 91 90 90 88 90 94 89 98 95 94 94 96 86 90 94 93 96 97 93 89 81 83 82 72 69 65 60 57 63 65 71 75 77 71
73 78 80 80 84 86 88 91 90 88 84 87 85 88 95 93 90 99 99 96 99 96 79 98 98 96 91 91 89 79 82 74 70 67 65 68 67 67 71 70 74 79 81
82 86 85 86 88 86 90 82 80 80 79 76 86 93 94 94 84 83 83 90 98 82 87 88 80 78 74 71 77 78 72 71 71 74 72 69 70 66 65 67 66 63 57
84 84 86 84 85 86 86 83 78 83 83 84 86 79 71 75 75 80 80 78 79 86 81 72 71 70 68 70 70 72 73 76 77 72 71 71 66 65 66 65 65 57 57
81 84 83 82 86 75 77 76 96 94 94 94 92 76 72 92 94 88 89 86 81 73 72 82 72 62 62 63 72 74 80 75 72 70 70 68 66 66 64 62 62 65 65
78 79 70 73 70 75 73 72 72 81 90 92 94 88 81 87 87 84 83 83 77 72 70 66 58 64 62 64 62 61 60 65 71 66 67 65 61 60 60 61 60 62 63
70 76 63 60 60 65 64 64 62 68 65 68 90 81 91 89 87 85 82 75 60 68 60 55 60 61 62 61 61 59 61 64 62 62 57 54 53 60 58 58 57 58 57
66 59 63 56 50 58 54 50 50 58 58 64 70 75 84 90 89 86 90 64 56 50 52 56 53 53 57 59 62 65 65 61 59 58 57 56 56 51 54 51 48 54 54
64 71 60 48 51 47 45 43 42 48 61 60 60 59 59 62 60 62 64 63 57 48 51 53 53 59 62 63 66 67 60 57 55 56 56 55 56 53 44 43 42 41 49
41 48 67 45 46 40 40 40 37 37 46 52 54 55 68 57 54 55 54 57 52 51 58 55 60 60 62 64 62 56 49 44 46 48 47 50 54 47 51 46 36 34 35
41 44 38 37 45 50 42 43 39 36 44 52 46 56 76 52 45 52 62 63 58 59 54 64 53 53 49 50 55 48 43 39 43 46 48 44 45 42 45 38 37 36 36
40 38 39 54 57 56 53 36 52 48 64 44 43 49 52 50 50 55 57 53 60 62 60 54 51 48 46 47 42 39 34 37 44 45 47 48 42 43 43 42 37 38 35
39 48 48 53 65 52 53 74 73 53 51 44 50 49 51 52 50 64 60 64 60 63 58 55 53 41 47 43 41 34 37 43 42 42 48 44 42 45 43 42 36 37 34
43 48 79 59 48 56 42 41 52 36 38 39 48 52 47 52 48 51 64 61 59 59 56 58 54 45 43 42 39 36 60 64 52 60 41 46 45 51 44 34 38 34 37
37 42 49 45 44 39 41 37 41 53 50 44 45 45 51 52 46 48 51 51 50 50 50 52 53 44 40 37 39 53 70 65 54 66 48 42 40 42 42 40 39 33 36

GFSGL_sfc_rhum_015.txt.gz
RH
77 74 80 81 80 74 84 83 81 79 84 78 78 80 78 80 84 91 86 83 90 84 84 83 87 82 81 78 85 78 76 77 80 72 73 72 76 69 65 72 73 73 72
74 76 77 80 80 80 74 82 89 73 84 77 76 80 78 75 78 84 82 75 84 90 84 84 79 70 84 82 84 87 89 88 80 81 85 76 74 75 80 82 72 59 72
73 76 77 77 80 80 77 77 83 79 78 78 79 77 79 79 79 82 80 83 89 83 87 83 83 75 87 88 85 83 88 82 91 91 88 82 77 79 75 79 83 79 74
72 75 77 76 76 76 77 75 78 81 86 75 76 77 76 80 74 80 83 86 89 86 85 84 77 75 82 89 84 87 86 94 94 95 95 95 85 72 82 86 77 83 81
68 73 73 73 73 76 77 80 77 79 82 87 84 84 85 82 73 89 82 85 91 90 86 81 73 76 80 86 91 88 94 94 97 97 95 86 74 82 79 83 88 85 82
64 68 68 71 74 77 80 82 85 82 89 86 91 88 89 79 82 85 80 84 92 91 82 80 79 80 80 85 85 85 84 92 96 98 92 88 78 91 94 95 96 95 92
57 65 66 68 76 77 80 82 90 87 86 93 87 90 90 88 93 90 88 87 82 82 81 80 79 66 84 83 87 86 93 91 86 90 91 85 92 93 93 93 95 96 98
56 63 64 70 72 77 78 84 79 86 83 95 96 96 92 95 89 94 89 88 90 87 85 89 92 87 88 86 92 94 95 95 96 98 95 82 94 91 95 92 93 94 95
56 59 62 66 72 76 81 79 80 92 95 98 98 96 95 96 94 96 88 82 79 77 87 89 93 92 90 97 92 95 93 93 86 94 94 92 92 90 93 94 90 96 96
47 57 59 62 70 79 78 82 97 96 98 98 97 94 94 92 93 89 89 75 79 92 92 92 93 90 100 100 96 98 96 91 92 91 90 88 87 81 83 86 65 92 96
46 82 68 71 79 79 94 97 97 97 95 97 94 88 80 87 96 91 92 78 83 96 97 96 96 100 99 100 100 97 94 90 83 82 81 82 80 78 80 68 80 95 98
78 84 90 88 87 95 97 96 96 95 95 93 87 89 96 96 98 97 94 92 98 95 94 97 97 100 100 100 99 94 86 78 81 89 91 86 82 74 63 70 80 94 94
86 91 88 89 92 96 97 98 99 98 95 94 88 95 98 98 98 99 98 96 100 97 97 99 100 100 99 98 95 90 83 83 87 90 88 87 72 62 72 67 64 64 64
91 95 93 94 95 95 97 95 94 95 91 90 96 99 98 98 99 100 100 99 99 96 96 99 95 91 92 86 87 91 88 86 88 91 90 82 82 67 66 74 71 66 63
92 96 96 95 95 98 98 99 91 94 90 97 97 96 98 100 99 99 99 99 99 92 94 94 96 95 94 92 94 88 78 79 92 89 90 81 69 69 72 68 67 62 66
95 93 92 90 88 87 86 86 93 95 93 95 97 91 92 100 99 95 99 98 100 95 96 96 94 94 94 95 93 91 93 87 86 79 76 74 72 76 68 67 69 70 75
90 94 91 84 84 83 83 85 91 90 93 96 94 90 90 97 94 94 91 85 82 86 93 89 83 82 82 87 95 93 87 88 80 79 73 61 60 59 65 67 63 68 67
86 94 86 84 85 87 84 83 82 83 89 92 90 91 92 89 88 86 84 77 72 72 84 80 79 75 74 72 70 73 76 72 70 60 55 56 58 67 64 62 62 68 61
79 78 77 79 83 83 79 77 75 76 81 90 91 88 90 89 88 85 85 84 80 77 73 73 65 72 74 78 80 80 71 66 57 55 54 64 70 64 60 57 63 66 66
84 78 76 72 93 90 84 75 77 74 80 82 87 93 85 82 80 80 78 80 79 80 78 71 71 73 73 76 78 72 68 66 64 67 74 68 64 60 54 58 60 56 57
88 86 78 80 88 78 64 63 70 69 73 73 74 78 80 72 76 79 81 84 81 78 73 73 75 73 74 75 76 67 61 59 57 63 58 57 58 58 61 59 53 54 58
67 64 65 62 72 80 70 61 69 66 69 72 68 80 83 81 77 76 81 82 81 75 67 74 75 71 71 73 68 57 50 49 61 62 59 56 57 59 61 55 58 59 54
63 59 74 70 62 66 77 74 71 67 73 76 78 70 74 70 80 79 82 68 70 68 69 70 64 57 67 62 54 45 40 56 67 67 64 59 58 61 64 60 60 58 52
76 73 78 73 87 88 85 88 89 82 79 71 73 65 63 72 78 70 69 69 71 67 66 70 60 52 54 53 55 58 62 61 62 51 49 52 58 62 66 66 54 52 49
74 80 89 85 78 79 78 78 82 75 71 70 70 70 66 74 72 76 83 82 79 72 67 65 65 54 51 42 39 38 62 62 43 55 58 54 52 54 58 57 48 55 50
61 64 67 72 64 66 64 67 58 71 82 75 69 67 74 77 77 78 80 78 77 76 74 74 67 58 54 47 39 51 71 71 53 60 48 51 54 59 66 50 47 54 51

GFSGL_sfc_rhum_018.txt.gz
RH
75 73 73 74 72 80 85 86 83 81 77 81 81 78 76 79 80 92 92 92 88 90 92 90 88 87 85 84 89 86 83 80 79 75 80 73 81 78 70 75 78 76 76
72 74 76 78 78 76 74 86 85 80 80 78 80 79 78 77 80 80 89 80 90 90 88 91 86 77 92 82 87 88 84 89 78 79 85 83 80 75 74 80 76 68 78
70 74 79 81 83 82 76 72 87 80 84 80 80 81 79 80 83 81 84 85 83 90 88 87 86 85 76 81 87 93 93 85 93 92 87 93 88 84 81 81 82 84 75
70 74 78 81 82 81 80 78 77 81 83 85 81 81 81 78 79 80 84 82 82 83 86 86 84 81 75 76 82 93 92 93 95 95 93 96 94 87 88 89 85 89 85
71 75 77 78 79 81 83 82 78 81 82 87 86 84 82 83 80 83 83 81 85 85 91 90 87 78 78 77 86 90 94 93 95 97 98 95 85 86 84 87 94 94 94
73 75 77 79 80 82 85 87 85 84 95 94 88 86 89 80 84 87 81 89 86 88 89 94 88 83 82 86 86 85 84 91 96 99 98 91 86 87 94 95 97 97 97
71 75 78 81 83 84 84 87 92 87 87 96 92 91 92 88 91 90 90 95 94 90 90 91 87 78 89 87 90 90 97 97 93 94 96 96 92 89 94 94 97 97 97
71 74 78 80 83 83 86 89 90 91 87 96 96 94 92 94 94 92 91 93 94 89 89 93 92 91 94 95 94 95 94 95 94 98 97 92 92 90 95 93 94 95 96
67 72 76 77 80 84 86 89 86 89 93 95 95 97 96 97 96 95 96 96 94 90 90 92 95 95 96 97 96 95 94 95 98 97 96 94 94 95 96 98 99 98 97
58 65 70 74 76 81 83 85 83 92 95 97 99 98 96 97 94 95 96 83 87 86 92 92 94 94 97 100 96 97 94 82 93 92 90 86 89 89 88 94 92 96 96
53 56 68 69 74 75 82 88 95 96 98 99 99 98 96 96 97 98 94 78 82 95 96 96 96 99 100 100 98 97 96 96 93 83 82 83 84 81 80 84 95 94 97
53 59 68 69 70 81 93 97 97 98 99 99 99 99 98 98 99 96 91 90 94 89 96 98 96 100 100 100 100 100 100 90 84 79 88 90 90 86 69 75 74 89 97
57 68 70 70 77 95 97 99 99 98 99 99 98 99 99 98 98 99 97 96 100 98 97 98 100 100 100 100 100 100 91 87 90 92 92 94 92 76 77 68 70 70 70
72 92 95 94 98 96 98 98 98 99 97 98 99 99 99 100 99 99 98 99 100 97 99 99 97 97 96 94 95 95 96 92 89 90 95 95 91 72 69 76 69 67 66
95 96 97 98 98 100 100 99 99 99 94 96 98 97 98 100 99 100 99 99 99 100 99 98 97 93 92 95 95 95 95 92 93 96 95 95 75 72 73 72 74 70 69
98 99 99 99 99 99 99 100 95 98 99 100 100 98 100 100 100 100 100 100 100 98 97 97 97 96 95 95 96 96 97 91 96 96 93 83 76 77 69 68 75 74 72
98 98 99 99 99 99 98 95 92 94 95 100 100 97 99 100 100 100 100 100 100 97 97 98 96 97 96 96 98 97 95 96 92 82 71 60 60 60 65 70 67 70 66
97 100 97 97 95 89 88 89 85 85 90 95 89 96 99 99 98 96 88 84 96 91 95 95 88 91 89 85 85 84 82 73 65 59 57 58 62 69 70 63 63 69 69
96 96 92 89 88 87 87 88 88 88 84 89 91 88 89 92 90 89 88 84 84 86 83 80 86 82 82 81 83 81 77 72 65 62 59 60 68 70 65 61 64 72 72
96 95 91 92 97 96 88 84 86 86 87 87 88 90 85 82 86 84 84 88 88 84 85 84 80 80 80 81 78 74 71 66 64 65 69 74 68 67 60 64 65 62 64
97 94 93 97 96 96 96 93 86 84 82 81 79 82 86 82 85 84 84 85 81 81 82 74 76 76 81 82 80 74 65 62 60 66 69 62 62 57 67 66 62 65 67
91 89 92 92 98 97 96 96 97 89 73 74 85 90 90 88 88 83 83 81 82 84 79 76 76 76 80 80 81 71 62 54 63 69 64 63 64 64 69 68 65 65 60
81 80 90 90 91 90 90 90 88 84 88 92 94 90 84 85 88 87 85 83 84 86 82 75 68 71 77 78 67 56 48 60 65 67 66 60 59 62 69 69 70 61 58
85 83 85 90 92 91 89 93 94 87 88 90 83 89 80 72 73 76 83 81 80 83 82 72 66 57 63 56 49 49 59 69 68 61 55 52 52 63 61 65 65 54 60
84 79 89 91 90 92 91 90 84 80 81 79 77 76 71 72 78 81 87 86 78 81 79 76 60 55 52 47 43 51 70 71 47 56 55 54 50 53 59 70 61 58 56
83 86 88 87 90 86 86 86 81 79 83 79 78 80 75 72 76 82 86 85 83 82 79 75 65 54 44 42 44 57 71 68 58 64 49 48 48 58 64 71 61 54 52

GFSGL_sfc_rhum_021.txt.gz
RH
70 71 72 75 76 78 78 82 87 89 90 87 88 85 85 83 85 89 95 94 92 94 94 93 88 90 91 91 92 92 89 83 76 78 86 78 75 80 75 75 75 82 83
64 68 71 72 75 80 77 78 84 85 87 84 86 86 84 81 80 85 91 86 88 92 92 94 92 85 93 93 89 89 76 88 83 78 84 85 82 79 78 85 78 72 79
64 68 70 72 76 79 79 75 89 83 85 84 84 85 85 83 84 80 84 87 86 86 87 90 93 91 91 91 91 90 89 92 96 92 87 95 91 90 84 83 81 84 76
64 69 73 74 75 74 74 76 79 87 89 85 84 84 82 81 81 83 82 88 88 85 90 88 88 88 88 74 80 84 91 94 96 96 96 96 94 89 89 91 84 90 85
65 70 72 74 74 77 79 77 76 85 83 86 86 86 85 82 79 83 89 91 91 90 88 95 93 89 83 78 84 91 93 97 98 98 98 96 93 94 93 92 90 90 94
67 71 71 76 77 81 84 85 83 85 86 90 90 87 90 83 85 87 82 92 92 94 96 93 93 93 89 88 84 83 89 92 96 98 98 95 86 94 93 96 98 97 97
70 70 73 76 81 84 85 88 90 87 90 96 91 90 93 89 90 90 88 93 96 96 91 93 90 84 92 90 91 91 93 91 94 95 91 94 95 94 95 95 97 97 98
71 73 75 78 80 83 87 90 91 88 95 97 96 94 91 91 94 93 91 92 96 94 92 93 90 89 95 94 93 94 97 98 98 98 94 93 95 94 96 95 95 96 97
72 73 75 79 81 83 89 90 90 89 90 97 96 96 95 96 98 96 96 94 97 96 96 92 95 95 95 96 95 96 95 96 99 95 95 96 99 98 98 99 99 100 99
70 71 72 77 81 85 85 87 85 90 94 96 97 96 98 97 100 98 96 98 99 97 98 96 96 96 98 98 96 97 96 95 96 94 93 92 89 85 89 97 97 98 97
63 66 70 76 80 81 83 89 94 96 96 96 96 98 98 98 100 99 99 98 98 99 98 98 97 96 99 100 99 97 96 96 95 94 89 86 87 87 86 91 96 97 97
56 64 72 74 78 80 91 94 96 96 96 99 99 100 100 99 99 99 98 99 95 93 97 97 96 98 100 100 100 100 100 96 97 90 90 89 90 89 74 81 76 88 97
58 61 68 74 77 86 95 96 98 97 98 99 99 99 99 100 99 100 99 94 98 96 94 99 100 100 100 100 100 100 99 98 92 89 88 92 94 92 87 70 70 69 67
60 61 66 76 79 88 94 95 94 98 99 99 99 99 99 100 100 99 99 99 100 100 100 99 98 99 100 99 99 99 98 96 91 92 94 94 95 83 72 78 72 70 69
59 73 74 81 89 97 99 99 98 98 99 99 99 98 98 98 98 99 99 98 98 100 100 99 99 98 98 98 97 97 97 96 95 96 96 96 95 78 74 78 75 76 71
88 93 94 97 99 99 99 100 100 100 100 100 100 100 100 99 100 100 100 100 100 100 99 98 98 98 97 97 96 95 96 92 96 96 96 96 83 78 76 68 78 77 72
95 99 99 99 99 99 99 98 99 100 100 100 100 100 100 100 100 100 100 100 100 97 98 98 97 97 96 96 97 97 96 97 95 97 92 82 71 64 65 71 70 70 65
99 100 99 99 99 98 96 95 96 97 98 100 98 100 100 100 100 100 100 100 99 96 98 98 97 97 97 96 98 97 96 94 84 70 62 61 64 66 73 66 65 68 72
97 98 97 97 99 99 97 96 92 95 97 93 95 97 97 99 100 100 98 93 97 98 97 96 94 94 93 92 89 85 77 72 69 65 63 61 69 76 69 64 67 74 74
96 100 99 97 98 98 91 84 90 92 91 90 91 98 92 88 91 87 92 96 96 94 89 83 90 88 84 84 84 81 78 72 68 69 70 74 74 71 60 65 67 65 68
97 98 96 95 96 96 94 85 81 85 89 86 85 89 89 81 81 80 89 94 90 87 87 90 87 84 85 85 82 81 74 71 66 63 72 77 69 62 70 70 67 69 71
98 98 97 97 98 97 96 96 95 88 82 82 97 94 94 96 92 89 92 91 86 84 84 79 75 72 76 76 80 77 70 67 64 67 71 66 66 68 72 70 68 68 64
89 93 99 99 98 100 98 97 96 88 93 96 95 90 87 94 89 89 88 88 87 84 89 83 82 80 79 75 77 72 64 60 61 71 70 69 66 65 69 68 69 62 60
86 85 92 98 98 98 98 99 99 99 97 95 94 94 89 88 89 87 88 87 87 87 90 83 79 66 70 72 74 63 55 60 69 68 65 64 59 67 66 66 69 58 61
90 89 94 95 94 96 97 97 97 93 93 90 87 88 94 79 86 90 89 89 89 90 89 88 79 61 65 58 53 47 63 80 68 69 58 52 49 52 60 72 67 60 59
87 89 90 89 90 90 93 90 91 90 91 86 81 85 84 85 85 86 90 90 93 92 88 84 74 64 57 52 49 60 82 75 59 68 54 54 51 54 68 72 70 60 53

GFSGL_sfc_rhum_024.txt.gz
RH
76 77 76 76 77 77 80 81 83 83 88 90 91 92 91 89 88 87 88 88 88 90 88 88 88 88 78 78 79 78 74 70 68 68 72 72 72 71 68 69 65 70 67
73 78 78 78 79 78 81 80 84 86 88 87 90 91 90 88 87 87 86 83 86 88 87 91 86 77 88 87 81 86 79 81 73 81 75 72 76 74 74 76 68 59 64
65 73 76 76 79 81 82 79 86 87 89 86 88 90 90 88 88 86 85 85 85 84 84 87 87 88 89 84 84 82 81 79 90 77 74 77 76 74 75 77 76 75 64
58 68 75 75 76 77 80 80 84 86 88 88 88 89 88 87 85 84 84 87 86 84 87 86 86 86 87 88 85 87 85 91 90 96 86 86 77 83 78 80 76 73 70
64 65 72 75 75 78 82 83 82 88 86 85 87 87 87 84 78 86 86 87 89 88 89 89 87 87 89 85 78 86 92 88 95 96 95 88 82 88 92 90 85 85 83
68 68 71 76 78 80 83 85 86 89 88 89 88 87 88 79 85 89 84 89 89 91 93 92 90 91 92 90 85 84 86 88 94 97 98 96 85 89 86 95 94 91 83
70 71 75 78 82 82 83 85 86 88 90 93 89 88 90 88 91 91 89 90 93 93 93 93 93 86 90 88 92 88 90 88 90 92 94 96 91 91 95 94 96 91 84
72 74 77 80 82 83 86 88 87 84 88 92 93 92 90 89 94 92 91 89 93 93 92 92 92 90 92 92 92 91 91 91 94 95 93 89 90 92 93 91 88 90 87
73 75 77 79 82 83 88 89 87 87 88 93 93 94 94 93 96 96 94 92 95 94 93 93 93 92 95 94 92 93 92 96 98 97 96 94 96 98 96 93 95 95 86
74 73 75 79 82 84 85 87 86 87 91 92 95 94 92 92 99 97 95 95 97 97 97 95 96 93 97 97 93 94 96 95 96 98 93 92 88 85 97 88 77 73 78
66 72 77 79 82 80 84 84 90 93 93 95 94 95 94 94 97 99 97 95 96 98 98 98 98 99 100 100 100 97 96 95 95 88 80 72 68 68 66 73 82 72 77
74 76 80 81 78 78 86 91 94 93 95 97 97 96 97 97 100 100 100 100 99 94 97 97 97 99 100 100 100 100 98 93 86 78 73 65 64 66 62 66 75 77 76
78 84 82 81 82 82 91 95 95 95 94 96 98 97 97 100 99 100 100 100 100 95 91 98 100 100 100 100 100 100 100 82 78 74 69 66 68 68 73 68 68 70 69
81 85 85 84 85 84 87 87 87 94 97 98 98 98 99 99 99 99 98 99 99 97 99 98 99 99 100 98 98 98 90 82 76 72 68 68 73 70 63 60 58 55 52
83 84 85 82 88 94 98 98 94 93 94 95 96 99 99 99 99 100 100 99 97 98 98 96 93 92 94 96 96 94 86 80 75 74 74 74 73 69 64 62 59 57 53
96 92 92 94 95 99 99 99 100 100 100 100 100 98 98 100 99 100 100 100 100 100 93 94 93 89 89 86 87 89 86 81 75 75 75 74 73 69 61 56 58 57 53
99 95 97 99 99 98 99 98 99 100 100 100 100 100 100 100 100 100 100 100 100 99 95 94 92 87 84 84 83 80 77 79 83 74 74 74 68 59 53 52 56 53 50
98 100 99 99 98 99 98 98 98 98 99 99 100 100 100 100 100 100 100 100 97 93 92 91 88 82 78 77 80 77 77 79 77 76 73 62 53 50 54 54 51 51 51
99 99 99 99 99 98 97 97 98 99 99 99 100 100 99 100 100 100 100 93 92 89 87 83 80 76 77 77 78 77 74 72 68 62 54 51 52 53 53 50 46 65 62
99 99 100 99 99 97 97 98 99 99 99 99 99 99 97 96 97 97 91 91 85 80 81 79 80 78 76 76 74 71 65 60 58 54 53 51 52 52 45 44 45 44 49
97 98 100 100 99 99 97 96 98 98 98 98 98 99 100 86 90 87 84 85 81 79 80 76 76 71 73 72 67 63 57 54 55 54 51 53 56 51 49 48 44 44 45
97 98 98 98 98 97 97 96 96 97 97 97 98 97 100 77 78 79 81 81 79 76 70 74 68 63 62 62 65 57 54 54 55 52 51 51 52 47 48 46 45 44 41
97 97 96 97 98 98 96 95 96 96 97 97 96 94 90 88 78 76 76 75 74 73 70 68 66 61 60 61 58 56 51 52 51 49 51 52 47 46 47 45 44 42 38
89 95 98 99 99 98 96 97 97 99 95 95 95 94 85 80 80 80 76 77 74 68 68 66 62 56 64 60 63 61 52 50 49 49 51 48 46 52 44 45 43 44 38
85 84 94 97 97 99 99 99 99 98 96 95 93 93 92 88 83 77 75 76 73 68 68 65 60 59 60 65 64 54 63 75 55 62 50 49 47 50 39 37 44 42 41
84 85 86 83 90 93 98 98 98 99 98 96 92 89 87 88 89 92 80 74 70 66 66 68 66 60 59 59 58 65 80 82 65 72 47 43 40 38 37 43 51 43 40

GFSGL_sfc_rhum_027.txt.gz
RH
68 70 71 70 70 72 70 72 73 71 73 72 74 72 73 75 77 80 76 71 75 73 70 72 74 71 54 52 53 51 51 50 46 43 46 53 63 58 50 52 49 52 45
64 70 71 71 71 70 72 71 73 75 72 74 74 74 73 73 76 79 76 69 74 73 70 73 71 60 74 70 57 68 58 59 49 67 54 52 63 62 61 64 52 40 46
60 62 67 69 71 73 73 71 74 75 75 69 73 76 74 73 76 78 76 75 73 71 69 71 69 70 74 60 64 58 53 60 62 53 51 52 52 53 59 64 64 59 52
51 57 67 70 69 69 72 74 72 75 76 75 75 75 73 71 73 72 74 75 74 70 70 69 68 70 72 81 71 73 65 60 64 60 54 52 55 59 58 55 52 54 54
58 57 65 70 70 72 75 75 74 75 75 75 76 75 74 68 61 74 74 74 76 74 73 73 70 71 78 79 60 71 73 68 58 59 59 59 56 66 78 60 53 56 61
62 62 65 72 75 76 78 78 79 77 78 77 76 76 76 62 76 87 77 72 75 78 77 76 73 83 84 88 86 82 75 75 74 58 56 61 72 86 75 56 53 56 54
64 64 67 73 77 78 76 79 80 80 79 80 78 76 78 76 86 90 89 67 73 75 77 75 72 64 84 73 91 87 86 86 79 74 74 72 80 85 73 79 72 66 66
66 66 69 75 76 77 78 80 81 77 80 79 79 79 78 74 90 91 89 74 75 75 75 76 77 75 79 81 73 78 74 77 75 62 71 71 81 70 72 72 79 76 67
65 69 70 72 74 76 79 80 78 77 78 78 76 81 82 78 94 93 90 74 73 78 76 76 77 80 90 93 80 80 81 78 87 91 91 91 90 92 77 62 68 67 55
62 66 69 71 74 76 78 80 78 76 75 67 75 78 83 79 98 95 89 61 72 69 79 82 94 85 97 96 79 78 79 72 76 78 84 92 91 85 98 79 54 51 44
54 58 67 72 76 76 82 80 79 79 76 79 78 79 82 83 82 98 97 72 62 71 76 82 72 97 99 98 92 76 75 71 84 74 74 70 66 64 54 59 59 48 43
60 66 73 76 68 66 82 83 82 85 87 85 85 84 78 80 96 99 98 89 89 77 86 76 79 100 100 99 92 94 99 88 63 62 61 62 58 46 44 51 61 56 47
68 74 75 76 75 75 81 83 86 91 89 88 93 90 91 94 92 100 100 100 100 87 84 96 100 100 100 100 100 100 98 63 60 59 59 57 48 41 54 61 61 64 65
70 74 75 77 78 77 69 71 73 85 87 89 95 96 94 97 99 99 99 99 100 100 100 100 100 100 92 84 95 93 66 62 61 58 57 51 48 52 49 45 44 44 41
69 66 70 65 75 75 73 70 75 77 74 79 74 89 97 100 99 100 100 99 99 100 99 99 99 94 90 87 78 80 69 68 64 60 55 52 49 49 49 48 47 45 41
68 62 58 54 56 64 89 98 100 97 100 100 100 92 98 99 100 100 100 100 100 100 99 99 97 84 79 76 79 76 67 72 63 59 52 49 50 51 50 50 44 41 40
78 76 64 73 55 82 98 97 100 100 100 100 100 100 100 100 100 100 100 100 100 100 99 99 96 81 75 71 68 65 62 62 70 56 52 53 52 52 54 45 41 39 36
83 100 93 88 78 98 98 98 98 99 99 99 100 100 100 100 100 100 100 100 100 99 93 95 88 81 77 73 64 58 58 60 56 54 56 53 52 48 43 40 38 36 34
80 82 91 92 98 100 99 99 97 96 97 98 99 100 99 100 100 100 100 95 97 95 82 82 78 74 71 64 58 57 58 55 54 54 52 49 44 40 40 36 32 52 49
79 97 92 78 91 96 98 98 98 99 98 98 98 98 98 98 98 98 97 98 98 96 94 80 71 65 60 57 58 59 57 57 56 51 44 41 40 37 32 32 29 30 33
68 72 94 82 83 93 96 98 98 99 100 99 98 98 100 90 95 94 97 97 95 88 77 66 64 60 66 60 57 54 47 42 43 40 39 39 38 33 34 30 27 27 26
73 74 80 79 77 90 94 97 98 98 95 96 98 98 100 87 91 87 80 69 68 69 62 64 56 54 52 53 55 44 41 39 40 39 38 34 35 33 31 29 28 28 27
87 85 83 84 79 91 89 92 93 94 95 96 96 96 93 91 82 76 62 55 58 61 60 54 53 49 46 48 44 39 35 36 37 37 37 36 33 32 31 30 29 28 25
70 80 86 89 91 90 90 93 92 96 95 97 96 91 79 70 65 71 58 54 55 55 54 52 45 41 47 43 40 35 34 34 35 36 36 34 33 38 30 30 26 24 24
58 77 84 78 80 86 87 94 95 96 96 96 97 96 95 87 64 57 53 53 53 54 54 48 44 44 47 46 41 40 56 73 44 48 38 36 34 38 30 25 24 24 26
54 64 72 74 84 84 86 86 90 99 98 96 97 97 96 91 83 77 63 56 53 52 48 43 43 45 47 45 46 63 82 80 55 66 34 32 32 30 26 28 27 24 27

GFSGL_sfc_rhum_030.txt.gz
RH
57 61 62 60 60 65 63 65 66 61 62 62 63 61 59 62 66 71 68 60 70 68 61 57 64 60 37 35 37 36 37 37 38 32 34 43 56 54 43 43 41 42 38
53 62 63 63 63 59 67 64 67 69 63 66 64 65 62 59 64 69 69 58 66 68 66 66 62 50 65 56 39 59 47 46 38 57 45 41 59 57 54 58 43 32 34
49 51 55 58 60 63 66 66 68 69 68 58 63 68 66 62 64 65 67 66 63 65 64 66 64 59 64 48 54 44 43 47 48 41 40 40 40 44 54 58 55 54 39
37 43 54 59 60 60 65 68 65 69 70 68 66 67 65 62 60 60 62 65 64 62 64 63 62 62 64 66 56 62 53 45 51 45 40 38 43 48 46 42 47 48 42
42 42 51 60 62 63 67 69 68 68 68 68 68 66 66 57 49 64 63 63 66 65 64 64 63 65 72 68 53 63 67 58 39 42 44 40 42 42 53 43 48 56 45
47 47 53 62 67 68 70 72 73 71 71 71 69 68 67 50 63 76 68 60 66 69 68 66 65 79 78 82 80 80 68 68 68 41 41 46 62 52 49 49 48 44 44
52 54 58 64 69 71 69 73 75 75 72 75 71 69 70 68 74 80 83 56 63 66 69 67 62 53 75 66 86 87 85 89 80 67 67 60 60 70 73 68 66 58 55
57 58 61 65 68 71 73 74 76 72 74 73 73 73 71 66 83 84 83 66 63 64 66 68 70 66 67 70 68 73 66 63 67 54 63 61 70 63 70 66 71 70 61
56 61 62 62 65 67 74 76 73 72 72 70 68 73 75 72 89 89 86 65 62 68 65 65 67 70 80 89 72 75 76 68 78 84 89 88 85 86 74 52 58 74 65
52 56 59 62 66 68 72 76 72 70 68 58 64 68 75 73 94 92 84 53 62 54 69 74 86 73 91 93 78 75 82 74 78 81 79 82 88 79 93 69 51 51 43
46 47 56 62 68 69 74 73 74 72 67 73 72 70 73 74 75 95 94 66 47 52 46 56 56 92 98 97 92 91 88 76 84 72 67 60 62 63 58 60 59 42 36
50 52 60 65 56 53 75 75 75 74 79 77 80 70 60 70 89 98 96 90 73 51 54 45 60 99 100 100 96 98 100 97 88 61 60 60 58 53 49 48 54 48 39
56 60 61 64 63 65 73 76 66 74 61 68 58 59 53 58 66 94 98 96 90 72 44 65 91 100 100 100 99 100 100 70 60 57 59 59 50 45 49 54 58 62 61
61 62 61 63 65 64 53 58 57 54 60 55 54 54 52 59 62 66 78 82 94 89 100 98 100 99 100 98 100 100 90 60 59 56 56 57 47 42 45 42 42 42 39
59 58 60 54 63 61 62 51 52 56 51 56 54 51 54 62 66 86 98 98 98 99 99 99 99 99 99 99 98 96 87 65 64 61 59 53 46 46 42 40 40 39 42
57 48 43 40 42 50 50 58 98 94 100 100 99 75 43 75 100 100 100 100 100 100 99 99 99 99 98 98 97 96 78 75 61 57 53 49 46 44 43 43 42 42 39
63 64 45 54 40 39 42 47 49 85 100 100 100 100 100 100 100 100 100 100 100 99 96 97 97 98 98 98 98 95 76 65 70 54 52 48 43 42 46 44 44 40 36
69 98 53 54 51 51 59 62 63 87 87 85 100 100 100 100 100 100 100 100 99 98 92 93 92 93 90 94 94 84 67 58 59 55 50 44 43 45 46 43 38 37 34
50 52 52 53 65 86 94 97 98 98 98 99 99 100 100 100 100 100 100 83 94 94 94 91 85 86 86 74 67 60 59 58 56 50 46 45 44 41 40 35 33 49 43
59 90 75 52 50 55 63 85 96 96 97 97 98 99 98 97 98 98 96 93 94 94 93 80 80 82 69 62 58 55 56 53 52 48 44 42 39 35 32 32 28 26 30
46 50 86 48 51 55 55 56 58 58 66 90 98 100 100 99 100 100 99 96 92 83 83 72 75 76 69 58 54 52 47 46 45 42 39 38 36 32 31 27 24 23 22
55 54 47 46 49 58 57 57 54 53 62 79 89 93 100 98 99 99 97 92 82 77 69 72 70 63 57 51 52 47 44 40 40 36 35 32 32 31 27 24 23 22 21
51 59 66 61 58 71 57 59 69 71 74 83 88 89 98 97 95 94 95 93 90 91 88 78 63 52 48 46 44 38 34 33 33 33 34 33 30 29 27 26 23 22 22
48 51 55 62 65 65 74 88 88 95 90 92 94 94 95 95 97 98 97 94 88 71 60 52 48 42 48 44 37 30 28 29 30 31 32 31 30 35 28 26 22 23 21
43 51 62 65 65 67 72 76 69 76 94 96 96 95 68 55 59 53 49 48 50 53 46 42 40 40 42 40 34 30 55 63 39 44 33 33 35 35 29 24 23 21 21
39 45 49 53 60 70 64 82 93 96 95 91 94 97 92 80 64 57 54 48 46 40 39 35 34 37 39 34 34 64 78 74 47 58 34 32 31 28 27 26 25 21 21

GFSGL_sfc_rhum_033.txt.gz
RH
59 62 64 63 64 68 63 63 65 62 61 62 63 62 63 64 66 72 70 62 70 71 63 62 68 68 36 32 34 34 34 36 38 32 31 48 54 53 48 48 44 48 42
54 61 62 62 63 62 67 63 65 67 64 65 64 66 64 63 65 70 69 56 65 69 67 67 62 50 70 65 38 61 47 49 39 66 50 44 60 64 63 65 47 32 36
48 50 56 59 60 62 65 66 66 68 68 59 65 68 68 64 66 68 70 68 63 64 67 70 67 66 70 52 56 45 41 47 47 46 43 39 41 48 58 64 65 60 43
35 41 52 58 58 58 62 67 65 68 70 68 65 67 67 65 63 63 66 69 68 62 66 67 67 67 70 72 63 68 59 48 52 45 42 38 39 50 47 48 50 51 49
38 39 48 57 59 61 64 66 68 68 68 68 69 66 67 62 52 65 64 66 70 68 65 66 65 68 74 71 57 66 70 57 40 40 45 44 40 44 60 50 54 44 51
42 42 49 57 64 66 68 69 71 70 71 71 70 68 67 54 64 75 68 62 68 71 70 68 66 79 78 80 78 81 70 73 71 48 45 50 69 55 48 46 48 49 56
46 47 50 58 64 69 68 71 73 75 72 75 71 69 70 68 75 77 80 58 64 67 71 69 63 49 76 66 83 80 84 83 78 74 75 67 71 65 68 73 74 70 60
49 51 53 57 61 67 71 72 74 72 74 73 72 73 72 66 82 82 80 63 64 66 67 70 71 65 69 70 70 71 70 69 75 59 70 67 67 65 67 72 76 76 72
50 54 54 56 61 66 71 74 72 72 72 72 70 74 76 72 87 87 84 62 62 68 65 66 68 70 76 85 74 77 78 74 75 86 88 83 81 83 71 59 58 74 73
49 52 56 58 63 66 70 75 73 71 70 60 67 70 76 74 89 90 84 54 62 58 68 70 84 71 88 88 77 79 83 78 71 81 87 88 88 85 86 73 54 60 63
42 47 57 60 66 67 71 73 74 73 68 74 70 70 72 74 74 95 91 66 53 54 53 56 56 86 93 93 86 78 80 75 83 77 92 91 82 74 60 63 68 56 54
45 52 58 64 55 52 73 74 75 76 78 77 78 69 59 70 87 94 94 85 73 56 54 48 54 88 93 96 92 90 98 95 78 94 96 82 69 62 60 58 69 65 55
55 61 61 64 64 64 72 76 67 75 62 67 58 62 59 52 62 94 98 95 88 70 50 56 68 92 96 96 93 100 100 95 83 91 81 71 61 55 64 70 68 71 69
62 65 63 64 67 65 52 55 56 52 56 58 51 54 50 53 49 51 68 79 94 82 88 77 89 82 87 86 97 99 97 97 83 85 92 86 69 58 63 54 51 62 54
56 55 57 50 60 62 62 46 48 55 48 46 49 46 46 46 44 59 60 59 67 74 79 91 96 98 99 99 99 99 99 98 97 97 98 97 86 63 54 51 52 55 50
56 50 44 41 43 50 48 57 93 92 96 100 100 89 59 87 97 99 100 100 100 100 97 98 99 98 98 98 98 98 98 98 96 95 98 98 89 65 52 56 54 49 46
57 60 39 44 33 34 40 43 43 67 100 100 100 100 100 99 100 100 100 100 100 100 91 98 98 98 98 98 97 98 98 97 95 95 95 91 76 53 54 52 51 48 45
62 90 43 42 40 42 44 47 47 49 50 59 95 94 99 100 100 100 100 100 100 100 91 96 97 98 98 97 97 97 93 92 89 95 92 82 59 51 54 50 48 47 43
46 44 43 47 54 60 58 62 64 74 84 86 83 91 93 100 100 100 100 96 98 98 97 98 97 97 98 96 95 95 92 87 71 78 70 63 52 48 51 47 42 56 48
56 80 69 44 43 45 46 50 53 58 61 63 64 65 69 80 78 84 98 98 97 98 97 96 97 95 94 93 81 85 76 77 71 67 56 52 50 47 44 42 36 34 35
40 44 75 43 46 48 47 47 47 48 58 54 58 73 100 70 63 68 81 96 99 99 98 98 96 95 93 84 79 71 61 58 57 53 48 50 50 42 42 34 30 28 27
40 39 38 39 40 46 45 46 47 52 61 62 52 70 100 78 75 86 88 97 94 99 99 99 99 96 90 73 70 65 58 53 50 49 48 44 44 40 33 30 27 26 23
41 46 50 53 51 59 50 53 64 70 66 74 72 68 86 72 74 79 88 90 94 95 96 95 93 91 85 68 60 56 47 46 49 45 43 41 35 33 32 29 26 24 22
58 60 52 48 50 49 49 55 71 92 84 87 81 86 87 91 95 97 98 99 98 93 91 90 89 86 72 74 56 45 45 44 43 39 38 35 32 38 30 28 24 24 22
40 44 57 62 58 71 71 69 71 79 91 94 93 95 77 71 64 83 67 87 98 98 98 95 86 63 58 56 47 39 51 69 41 44 33 37 34 39 31 27 26 23 23
36 41 44 47 50 56 70 78 85 93 94 94 96 97 92 88 79 59 46 42 46 50 48 43 44 48 48 43 42 65 76 71 52 60 35 32 33 32 30 31 28 23 23

GFSGL_sfc_rhum_036.txt.gz
RH
70 73 72 72 72 73 71 72 73 69 75 70 76 75 75 75 76 81 80 77 81 82 77 81 82 81 76 69 66 68 71 70 72 69 69 77 74 71 68 68 75 77 78
67 72 72 72 72 73 73 70 73 76 70 74 73 74 75 74 75 78 79 69 77 81 78 78 80 68 84 83 79 75 71 72 74 78 73 80 79 78 78 80 65 45 66
61 64 67 68 70 72 74 72 71 74 74 68 72 76 74 73 76 76 77 78 72 78 78 80 78 79 83 73 79 75 72 73 75 75 78 76 80 80 81 80 81 79 63
50 57 65 67 67 68 71 74 71 72 75 72 72 74 73 72 73 73 74 78 78 72 77 78 78 77 79 82 76 80 77 77 77 78 78 75 77 80 75 77 85 81 78
47 54 60 65 66 68 72 72 74 74 71 74 74 72 73 70 63 73 73 76 79 77 73 76 76 77 79 77 72 81 79 78 77 68 71 76 76 77 75 79 79 72 82
49 49 58 65 68 71 72 74 74 76 75 75 76 75 73 62 73 79 74 71 77 79 79 75 75 82 83 82 81 78 78 78 75 63 67 71 78 74 82 79 79 81 79
50 53 57 64 68 71 71 73 76 77 76 79 77 76 76 73 80 81 82 66 72 75 78 77 72 62 82 78 83 81 84 81 74 73 76 78 84 81 81 85 83 85 84
58 56 59 63 66 70 73 75 76 74 77 78 78 78 78 73 83 84 82 69 70 72 74 76 77 75 76 77 78 77 74 77 81 71 75 75 84 82 81 86 86 86 86
54 60 59 61 66 68 74 76 75 76 76 77 75 79 80 78 88 88 86 69 68 73 72 74 75 77 79 88 80 82 79 77 80 84 81 84 82 85 84 82 87 86 89
53 54 60 61 65 67 71 77 76 75 76 70 74 75 80 78 89 92 88 66 69 65 72 75 84 75 85 91 80 82 86 80 78 76 80 89 92 91 90 85 78 83 86
50 53 60 64 66 68 73 76 77 78 76 79 77 76 78 78 78 96 94 74 67 64 63 65 66 87 90 94 88 77 81 80 84 78 81 88 94 96 97 96 80 77 75
56 58 64 69 60 55 76 77 78 80 83 82 83 78 71 76 93 95 97 95 80 71 67 60 64 87 94 96 94 83 93 91 80 81 91 96 97 97 97 97 94 82 78
66 70 69 70 70 70 77 79 75 82 77 80 76 74 73 68 70 96 99 97 96 87 68 71 90 91 95 96 94 90 98 86 85 90 93 96 95 96 95 94 90 89 85
70 74 74 74 75 73 63 68 68 69 74 76 73 74 67 67 68 66 78 90 96 91 85 79 75 92 88 91 89 93 88 90 90 92 96 96 97 97 96 94 95 94 92
69 70 73 65 76 73 72 62 68 69 66 66 68 66 64 65 68 93 84 71 78 85 83 79 78 79 87 91 92 89 90 94 96 96 98 98 98 97 98 97 96 96 88
69 62 58 56 58 64 67 70 95 88 97 100 100 93 79 96 100 100 100 100 100 100 87 82 88 91 93 93 96 96 97 96 97 98 99 99 99 99 99 98 96 81 75
73 73 55 59 51 62 63 63 68 93 100 100 100 100 100 99 100 100 100 100 100 100 82 84 91 95 95 94 96 96 98 98 96 98 98 98 98 98 97 89 72 69 70
70 84 55 59 57 62 68 70 65 72 73 76 95 94 99 100 100 100 100 100 98 99 81 82 90 94 97 97 98 97 98 99 99 98 97 97 98 94 90 85 75 71 65
60 52 56 60 63 64 64 63 60 66 69 69 69 78 85 93 99 100 100 98 98 97 98 97 97 97 97 97 97 97 97 98 98 98 98 98 96 94 87 76 68 69 68
63 75 64 54 55 54 54 55 59 63 63 66 65 69 68 76 68 72 83 94 97 98 98 97 95 94 98 98 97 98 98 99 98 98 95 94 94 89 77 64 57 63 63
47 50 64 51 52 52 53 54 54 56 59 63 60 82 100 82 71 82 79 82 96 97 96 98 97 97 99 99 98 98 97 98 97 96 87 83 84 69 58 57 55 53 49
44 44 45 44 48 54 54 56 59 59 61 64 58 79 100 77 68 78 82 82 85 91 95 97 98 99 98 98 98 99 98 98 93 83 74 65 61 57 55 56 52 48 46
47 47 51 54 56 65 60 66 69 72 75 72 71 71 72 71 73 73 78 80 83 86 93 97 93 92 94 97 97 95 93 90 89 86 75 59 57 55 54 54 50 48 45
59 59 62 69 75 75 77 78 85 95 91 87 86 85 77 79 78 80 86 89 88 89 88 98 96 93 95 96 96 94 91 84 77 66 58 55 55 61 54 52 47 44 42
50 53 66 67 69 72 78 82 88 89 94 95 94 94 83 80 77 73 78 81 89 89 94 92 96 91 91 89 89 78 84 80 60 66 55 56 54 58 50 46 46 43 43
40 46 49 57 62 66 72 80 85 89 91 91 94 94 88 87 87 89 86 87 80 79 80 86 71 75 70 70 67 75 87 85 65 70 56 56 55 52 49 48 48 42 42

GFSGL_sfc_rhum_042.txt.gz
RH
68 72 71 69 68 85 79 73 74 84 75 78 79 82 83 83 84 94 95 96 93 95 96 96 93 92 88 83 85 84 78 75 66 63 80 72 81 81 78 80 70 66 69
69 72 76 76 74 72 86 79 74 74 81 72 87 82 84 84 84 86 89 86 95 96 96 96 90 83 95 92 87 85 80 80 69 66 73 91 78 84 79 82 69 60 67
70 72 76 79 80 78 73 83 76 73 75 86 91 88 86 83 84 84 82 86 92 91 94 93 88 90 88 88 94 86 93 77 85 74 69 89 87 89 87 85 83 80 74
72 76 77 79 81 81 75 72 83 79 72 89 91 87 85 83 80 80 83 87 86 88 90 90 87 88 84 85 86 87 89 91 92 93 86 89 90 92 88 76 88 93 76
74 76 79 75 76 80 84 77 74 78 84 72 83 85 84 82 79 81 78 80 85 85 87 90 88 84 83 78 73 75 86 82 93 93 93 89 86 96 88 88 70 66 82
70 75 73 78 78 79 82 85 80 78 75 83 80 84 86 77 83 88 80 78 80 82 84 84 84 89 89 88 85 78 75 75 70 71 68 68 66 73 95 76 73 96 85
66 68 74 75 81 81 80 81 86 83 79 75 77 79 77 82 89 89 89 74 78 79 79 79 82 77 90 87 92 87 84 82 70 58 60 56 59 57 67 91 87 90 70
59 68 70 76 78 80 80 81 80 80 84 83 77 76 80 74 90 91 90 79 74 75 78 77 78 78 78 87 87 91 85 77 75 67 57 55 53 52 58 56 68 77 92
54 57 68 70 77 78 81 79 77 77 77 80 80 81 77 76 92 93 93 82 79 77 75 77 78 79 84 91 87 91 92 87 82 83 80 74 72 76 71 85 95 94 96
51 54 58 67 70 77 76 76 74 73 76 74 76 78 84 80 92 95 94 78 80 78 76 74 87 81 93 95 86 83 88 85 85 81 81 83 86 74 88 66 78 90 90
51 51 59 59 66 66 72 71 72 74 73 75 77 75 78 84 83 98 98 82 79 79 77 74 71 90 96 99 96 81 79 74 79 82 80 78 77 87 89 85 85 68 82
69 76 67 66 62 65 69 72 72 72 78 79 78 79 78 78 98 100 99 98 88 82 79 74 72 90 95 97 98 94 96 95 80 81 84 82 85 82 89 88 89 92 81
81 81 84 87 83 81 78 76 77 76 76 81 81 83 82 86 91 100 100 99 98 96 80 81 90 97 96 95 96 95 99 92 92 94 88 86 81 88 89 94 95 94 95
79 88 90 92 92 88 81 81 79 83 84 82 88 88 87 95 96 96 99 98 100 100 99 95 95 98 100 97 95 93 90 87 90 91 88 80 89 96 98 96 98 99 99
95 93 94 96 97 95 97 98 88 86 84 88 94 94 97 97 96 100 99 99 99 100 99 98 99 98 97 96 95 94 92 96 98 97 97 97 96 98 99 97 98 98 99
93 96 98 98 98 98 99 100 100 99 99 100 100 100 94 100 100 100 100 100 100 100 100 100 99 99 99 98 96 95 95 97 97 97 97 97 97 97 99 99 99 98 98
93 88 95 99 98 98 97 98 98 94 100 99 96 96 90 96 99 100 100 100 100 100 97 98 99 99 99 98 98 98 97 96 96 98 97 97 96 96 100 99 98 98 99
89 92 97 97 96 98 99 98 95 88 92 94 98 98 100 100 100 100 100 99 97 99 100 99 98 99 99 99 98 98 97 96 95 94 95 95 95 95 94 98 98 97 97
89 87 87 96 97 99 99 98 96 90 91 87 96 99 100 100 100 100 100 98 100 99 100 98 98 99 98 97 97 98 96 97 98 97 97 95 94 93 94 94 97 100 99
76 90 85 87 93 89 93 95 94 92 95 95 94 96 96 98 96 97 97 96 97 98 98 99 99 99 99 99 98 98 99 98 98 98 98 98 98 98 98 98 98 99 99
81 83 87 82 85 86 88 94 97 95 96 98 99 100 100 97 98 98 98 98 98 98 98 99 99 100 99 99 100 98 99 99 99 98 99 99 98 98 96 95 98 98 99
78 83 85 88 90 92 97 96 97 98 99 99 99 99 100 98 99 99 99 99 99 99 99 99 99 100 99 99 99 99 99 99 99 99 99 98 98 99 98 98 98 98 96
79 83 89 92 92 95 96 97 98 97 98 98 98 92 92 91 91 92 92 95 97 95 97 98 98 99 98 98 99 99 99 99 99 98 98 98 98 98 97 96 92 93 86
84 83 86 91 92 93 94 94 94 98 95 94 93 92 92 89 89 90 92 94 94 96 94 96 95 90 89 91 94 94 98 97 97 97 96 97 96 91 86 83 77 76 74
89 91 88 92 88 90 89 90 92 93 95 95 95 93 89 88 88 87 90 91 94 96 96 96 95 89 82 79 80 77 85 99 94 99 91 86 82 80 79 76 72 69 66
86 83 84 87 83 82 85 88 90 90 92 92 94 95 93 91 90 90 88 87 88 90 90 91 88 91 88 84 89 94 92 90 84 94 79 76 73 64 59 60 59 56 58

GFSGL_sfc_rhum_045.txt.gz
RH
68 68 70 73 73 71 78 83 84 82 84 90 90 88 91 92 93 94 95 96 96 96 96 96 94 94 97 94 91 92 85 78 73 67 81 80 82 83 78 80 74 72 66
66 68 70 73 77 79 79 80 80 87 86 81 92 89 88 88 89 89 89 87 96 96 95 97 95 91 95 95 92 88 88 86 76 73 72 81 82 86 83 87 79 64 63
62 68 70 71 74 79 85 85 79 77 87 85 88 88 87 86 88 89 86 87 94 93 94 95 92 96 96 97 97 94 92 85 88 80 75 81 89 93 91 91 88 82 73
62 66 73 75 77 73 73 79 83 82 81 86 82 82 83 87 87 86 86 87 88 90 94 95 92 95 90 91 95 94 92 92 95 95 92 83 86 90 93 88 91 94 74
66 70 73 78 78 79 78 76 78 83 80 77 83 84 86 83 82 86 87 87 87 89 92 91 91 89 90 86 84 87 92 88 88 84 84 95 89 95 96 89 68 59 80
68 72 72 76 81 83 84 84 80 82 86 82 77 80 86 82 87 90 84 84 86 87 89 92 89 91 92 92 91 85 78 80 80 78 72 69 66 70 83 63 71 92 79
72 73 75 78 82 84 85 89 87 83 81 86 86 79 82 81 89 92 92 77 80 82 82 80 83 82 90 88 94 91 90 87 78 71 76 70 66 60 64 87 67 66 61
74 76 77 81 83 82 85 89 91 85 85 83 82 85 83 80 92 93 92 85 79 79 80 79 79 77 79 87 89 91 94 87 83 78 71 68 66 60 59 56 59 66 72
71 74 76 78 82 85 86 85 85 89 88 85 82 81 80 82 93 95 95 86 84 82 78 80 80 79 84 92 88 90 90 88 91 90 86 81 81 80 65 70 83 88 88
64 68 71 75 79 82 85 84 81 82 82 84 85 85 84 78 92 94 96 83 86 84 82 79 89 84 92 95 90 87 91 86 81 86 90 90 88 80 85 63 64 81 70
54 59 68 71 74 77 80 81 81 81 81 82 82 81 83 87 82 96 96 81 79 80 80 79 77 94 97 99 98 81 82 77 82 82 77 80 81 79 80 81 68 88 94
66 62 66 67 70 71 79 80 81 83 85 85 86 85 81 81 98 100 98 97 86 81 83 79 79 94 98 98 98 95 97 98 85 87 89 82 84 85 89 93 92 90 92
82 74 71 72 67 66 75 78 82 81 81 86 85 85 84 88 87 100 100 98 98 94 79 84 96 100 100 99 98 96 99 96 98 98 97 92 84 77 85 92 93 91 90
94 90 92 94 86 68 68 72 75 80 81 79 85 88 89 95 97 96 99 99 100 100 98 98 100 100 100 100 100 99 95 93 94 96 96 88 86 95 96 96 98 98 99
94 95 94 97 98 98 99 98 85 79 79 80 80 87 97 98 97 99 99 99 99 100 100 99 99 99 99 99 99 99 99 99 99 98 99 98 97 97 97 97 99 98 99
94 95 96 98 99 99 98 98 98 99 100 100 100 100 99 100 100 100 100 100 100 100 100 99 99 99 99 99 99 99 99 99 97 97 98 98 98 97 97 96 95 99 99
91 94 92 98 99 100 99 98 98 98 100 100 100 100 100 100 100 100 100 100 100 100 96 98 99 99 99 98 99 99 99 99 98 99 99 98 96 95 96 95 98 98 96
92 99 96 97 98 100 99 99 95 92 94 95 99 99 100 100 100 100 100 96 94 98 96 98 98 98 99 97 98 99 98 98 95 96 97 96 95 96 98 97 96 96 95
90 96 97 98 99 100 99 98 96 89 88 89 96 99 100 100 100 100 100 95 98 98 100 98 98 99 96 96 96 96 97 99 98 98 97 97 97 99 98 98 98 100 99
93 96 97 98 98 98 97 98 95 93 96 97 97 98 98 95 95 98 98 97 98 98 98 99 99 99 99 100 99 99 97 98 98 99 99 99 99 99 99 98 97 97 97
96 96 94 94 96 95 95 94 95 97 98 99 99 100 100 98 100 100 100 100 100 99 99 99 99 100 99 99 100 99 99 98 99 99 99 99 99 98 99 99 99 99 98
93 96 95 97 98 98 97 92 95 97 97 98 98 99 100 97 96 97 97 98 98 98 98 99 99 99 99 99 99 99 99 99 98 99 99 99 99 98 98 99 99 98 97
91 92 95 98 97 98 95 93 94 95 96 95 92 90 90 90 91 92 93 93 95 93 96 96 95 94 93 93 94 95 97 98 99 99 99 99 99 98 98 98 96 97 95
94 93 95 97 97 96 95 96 96 98 93 92 90 90 90 89 89 91 90 92 93 94 96 97 96 92 89 88 89 87 89 87 93 99 96 98 98 98 92 95 95 93 90
95 95 93 94 92 92 92 92 94 93 95 93 92 90 89 88 88 87 86 86 90 93 93 92 92 91 95 95 92 90 95 94 86 93 98 96 95 93 92 90 87 84 82
92 90 92 94 94 90 90 91 92 92 92 91 93 93 90 90 89 88 87 86 86 87 89 89 86 86 87 87 91 98 99 98 88 96 82 89 86 86 83 74 71 70 70

GFSGL_sfc_rhum_048.txt.gz
RH
71 73 73 74 76 77 82 83 84 84 86 87 88 87 87 89 91 92 92 90 91 92 91 92 91 90 84 82 80 79 77 72 72 69 68 71 76 78 73 75 74 75 70
70 74 73 75 77 77 82 84 84 85 85 86 88 88 87 87 89 91 90 87 90 90 88 92 91 85 92 91 84 88 83 83 75 83 76 69 80 78 78 81 73 63 67
69 70 71 73 77 79 80 83 84 86 85 82 85 88 87 87 90 90 89 89 90 88 87 89 87 92 92 90 89 86 82 80 80 77 70 72 73 73 79 82 81 80 70
64 69 74 74 77 78 80 83 85 85 87 86 84 85 86 86 88 88 88 89 88 87 87 87 86 88 90 90 89 90 88 85 85 80 76 74 74 74 77 73 70 76 72
67 70 73 76 78 80 84 86 87 85 83 82 85 84 85 83 78 88 88 88 89 88 88 88 86 86 89 88 82 88 91 88 84 83 81 77 75 77 76 65 75 66 75
69 70 74 78 80 82 83 85 88 89 87 85 85 84 85 74 82 89 87 86 88 89 89 89 88 91 92 94 94 89 85 90 90 81 78 79 83 77 72 70 70 70 66
71 72 76 81 84 85 85 86 87 87 88 89 87 86 86 86 89 90 91 79 84 86 87 86 84 78 91 86 96 95 94 92 86 83 86 84 83 80 80 82 80 72 68
75 77 78 82 86 86 88 90 90 86 87 89 89 88 86 82 92 92 92 85 82 84 85 84 85 83 85 87 87 87 88 88 90 82 84 81 80 79 82 78 79 80 74
77 79 80 82 85 87 90 90 90 89 89 87 86 90 91 87 94 94 94 86 86 86 82 84 84 83 88 94 88 88 87 84 90 94 92 90 90 89 85 77 79 82 75
76 78 80 82 84 86 86 89 88 89 87 83 85 86 88 88 96 96 95 80 85 83 85 86 92 87 95 96 88 86 89 85 82 82 83 92 94 88 92 86 84 98 95
72 77 82 83 85 85 87 86 87 88 88 90 90 87 88 88 86 96 98 86 82 82 82 80 78 96 98 99 98 85 87 84 87 87 84 82 80 82 86 90 91 95 96
76 78 82 84 78 78 88 89 89 89 92 92 92 90 86 88 99 98 97 97 88 81 81 77 81 97 99 100 98 97 99 98 91 95 96 94 88 85 80 85 88 85 81
78 78 81 84 82 82 88 90 89 90 87 89 88 87 86 84 84 100 100 98 97 91 78 84 96 100 100 100 100 98 100 99 99 99 99 92 86 82 86 92 92 94 92
90 89 86 84 84 82 80 82 84 85 87 85 87 86 84 85 89 90 95 97 99 99 98 95 99 100 100 100 100 99 98 98 98 97 96 87 84 90 95 96 97 93 97
93 93 94 91 90 89 89 88 82 81 83 82 81 82 92 95 91 96 98 98 98 99 100 99 99 99 99 99 99 99 97 98 99 98 99 98 97 94 91 88 95 95 96
90 88 92 96 96 96 96 95 99 99 100 100 100 98 97 99 100 100 100 100 100 100 100 99 99 100 99 98 98 96 90 95 94 95 95 96 96 94 91 86 89 94 97
89 88 88 92 97 98 97 95 96 95 99 100 100 100 100 100 100 100 100 100 100 100 98 98 99 98 95 94 94 94 92 92 91 92 96 92 93 92 93 94 96 98 98
90 100 92 92 93 98 97 97 91 90 94 90 99 98 99 99 100 100 100 98 95 96 94 94 94 93 93 92 92 91 91 94 92 92 95 88 88 94 98 98 98 97 97
87 89 92 97 97 98 98 96 85 86 88 89 95 98 98 100 100 100 100 92 95 97 97 96 94 94 92 89 94 96 96 97 96 94 92 92 93 95 94 90 90 99 99
88 98 96 93 96 97 97 95 90 90 94 96 95 98 95 95 94 97 96 97 97 97 95 95 95 96 97 98 98 98 97 98 97 97 96 94 96 95 92 91 89 92 97
86 87 95 89 91 91 92 93 93 94 96 98 99 100 100 98 99 98 99 98 99 99 99 98 99 99 99 99 99 99 97 94 96 98 98 98 96 97 93 92 90 90 92
86 86 85 89 90 88 90 87 92 96 96 97 98 99 100 97 97 97 96 96 97 98 98 98 97 96 95 95 96 96 95 95 96 98 98 98 99 98 93 95 94 95 92
84 86 89 91 89 94 89 88 89 91 91 90 87 87 87 90 90 92 95 95 95 95 96 94 92 90 89 88 88 87 86 85 87 89 97 98 96 94 92 94 91 96 95
86 87 89 92 91 89 90 92 91 93 86 86 87 87 88 88 90 91 90 91 92 93 91 93 93 90 90 89 86 81 86 85 86 79 83 84 84 88 86 79 76 77 76
91 90 90 93 91 92 93 91 90 88 89 88 88 87 86 86 86 86 85 84 86 89 89 86 83 84 85 86 86 85 96 99 91 89 66 77 81 85 80 73 76 72 69
90 89 91 93 94 92 92 90 90 90 90 89 90 89 87 86 85 83 80 77 75 73 75 72 72 73 74 72 79 93 99 99 91 99 69 68 76 81 85 85 74 70 72

GFSGL_sfc_rhum_051.txt.gz
RH
65 66 67 66 66 68 68 70 71 67 70 69 70 68 69 70 71 76 75 70 76 75 73 74 76 76 60 55 56 54 54 54 52 42 46 48 64 61 52 54 56 56 50
62 68 68 68 68 66 70 68 71 73 68 69 69 70 69 67 69 74 72 63 72 74 73 75 73 64 79 75 61 72 62 61 56 72 56 48 62 61 62 64 52 38 44
58 59 63 64 66 69 71 69 71 72 71 64 67 71 69 67 70 71 72 70 69 69 70 72 72 72 77 65 72 65 61 65 64 62 57 48 51 49 56 63 64 62 49
50 54 64 66 66 65 70 73 70 73 73 70 70 69 67 65 66 67 69 71 71 67 68 69 70 71 75 75 71 75 72 69 67 66 60 56 55 60 57 56 51 45 46
59 57 63 68 68 69 72 74 73 73 72 72 72 69 67 62 53 67 68 69 72 71 69 70 69 72 81 80 63 73 76 71 62 58 57 54 52 51 59 50 51 49 54
64 62 66 71 73 74 76 77 78 76 75 75 72 71 70 56 69 83 74 65 70 73 72 71 71 82 85 93 93 90 79 78 80 65 57 60 75 68 58 57 56 59 59
67 66 70 74 76 77 76 78 80 80 76 79 73 71 74 72 84 88 91 62 64 69 73 71 64 52 78 70 86 95 96 94 90 80 81 77 78 75 76 79 77 72 69
70 70 72 75 76 77 78 80 81 76 79 78 76 77 76 71 89 90 90 72 69 70 70 70 73 71 68 70 70 69 69 70 78 74 77 77 76 75 78 78 85 86 81
68 71 72 73 76 77 80 80 77 76 76 76 74 78 80 78 94 94 92 71 68 75 70 70 71 72 82 94 77 76 75 71 72 93 91 91 92 94 89 75 86 92 90
65 68 71 72 75 77 79 82 79 77 75 65 70 74 81 78 95 95 91 63 69 63 72 76 88 79 92 96 81 75 79 71 67 68 69 87 94 84 96 91 89 99 96
59 63 70 73 76 77 80 80 79 78 74 78 74 75 77 79 79 99 98 73 61 61 59 56 56 92 98 100 99 78 79 76 76 73 79 82 84 80 83 85 88 98 98
68 70 76 77 66 65 82 81 79 80 83 82 82 76 67 75 96 97 99 96 84 68 66 58 65 95 100 100 94 93 98 96 80 89 91 90 96 95 85 83 88 87 83
74 77 76 76 74 74 80 82 74 80 69 73 68 68 64 62 70 99 100 98 98 79 64 71 89 99 100 94 100 98 100 98 99 99 99 99 90 78 85 89 76 76 80
75 77 76 76 78 74 68 67 66 65 68 64 64 64 60 62 64 63 75 82 95 84 86 74 80 92 100 93 96 98 95 99 99 98 97 86 77 72 60 56 56 55 58
70 68 70 66 75 73 69 64 65 67 66 63 61 60 62 64 62 78 76 66 68 81 85 86 94 96 97 98 97 97 99 98 99 95 94 83 65 62 61 60 60 59 70
72 71 67 62 89 71 64 76 98 95 100 100 100 81 64 90 100 100 100 100 100 100 97 96 98 99 98 97 95 93 91 85 68 76 75 69 70 77 74 70 72 75 85
88 85 71 95 79 76 72 66 68 86 100 100 100 100 100 99 100 100 100 100 100 100 98 97 98 97 93 93 87 76 63 63 74 64 64 68 79 79 80 82 84 79 66
74 98 65 61 62 85 83 79 68 70 73 82 96 98 100 100 100 100 100 99 98 97 88 88 93 90 86 76 62 59 60 62 66 69 74 75 70 82 89 82 63 68 75
67 62 66 69 72 79 96 93 79 69 69 82 85 95 98 100 100 100 100 74 81 89 93 93 87 74 63 64 69 74 75 74 72 74 83 86 82 90 87 71 62 86 91
64 90 86 66 82 86 94 93 79 70 73 74 74 75 77 81 73 88 84 93 95 95 87 88 87 84 83 82 87 80 79 87 85 85 87 85 88 87 79 74 75 72 84
63 61 90 62 72 79 84 87 80 75 83 85 84 88 100 86 97 96 97 97 99 98 97 96 97 97 97 98 98 95 89 80 79 85 87 89 87 90 85 82 87 82 77
66 60 58 59 64 77 78 78 84 85 93 95 96 97 100 93 94 95 94 93 95 92 90 89 88 87 88 88 87 85 86 83 78 77 87 90 86 80 85 84 78 79 86
64 62 60 62 64 84 76 73 78 89 90 89 87 84 80 82 81 84 86 86 85 84 88 85 83 79 75 73 71 64 61 60 58 59 68 87 84 79 74 68 59 68 74
73 70 66 66 78 76 77 78 76 88 85 84 84 83 81 82 85 89 88 87 86 85 81 80 75 70 67 61 57 52 57 68 66 57 62 61 64 75 71 60 51 54 55
80 86 79 84 83 82 84 82 82 81 82 82 84 84 81 80 81 82 82 81 79 75 70 64 61 64 64 65 63 64 87 98 82 88 54 54 57 66 64 62 55 52 52
89 87 87 87 89 86 84 84 86 86 86 84 82 82 80 78 74 70 63 58 55 53 50 44 45 48 46 44 56 85 95 96 80 99 58 48 51 50 54 62 65 62 56

GFSGL_sfc_rhum_054.txt.gz
RH
54 56 57 54 54 58 56 58 61 57 56 61 57 55 53 57 59 64 63 55 63 64 60 59 66 65 47 38 39 39 39 38 41 33 28 33 53 57 48 44 43 45 39
51 59 58 57 57 54 60 57 60 64 59 61 59 59 56 54 58 63 62 52 59 62 61 63 62 50 68 66 46 60 49 50 42 66 49 36 50 52 54 60 48 35 33
48 48 51 52 54 56 59 58 62 63 63 55 58 61 58 55 58 60 61 59 56 57 58 61 61 62 66 54 55 49 44 49 52 51 50 40 38 39 47 56 58 54 41
39 43 52 54 53 52 58 63 58 64 64 62 59 59 58 54 53 55 57 60 58 55 57 57 59 61 66 67 64 66 63 59 55 50 46 40 37 43 40 43 46 39 37
43 42 49 57 57 58 62 64 62 63 63 62 62 59 57 51 41 55 54 55 59 58 56 57 57 62 74 72 55 66 70 60 48 44 41 38 37 36 44 38 43 40 44
48 47 52 62 65 65 67 69 70 67 67 66 62 60 59 44 60 73 62 51 55 60 60 58 58 74 76 88 90 90 84 72 75 57 47 49 68 58 46 46 45 48 52
54 55 58 65 68 70 68 71 72 72 68 71 64 61 64 61 75 78 80 49 50 56 62 59 52 40 67 57 84 92 92 92 93 78 78 72 73 69 71 75 70 66 65
59 61 62 66 68 70 71 73 75 68 70 70 68 69 67 61 82 83 84 59 58 58 57 58 63 60 56 54 54 56 57 59 74 71 74 71 69 67 72 75 85 84 69
60 64 64 64 68 68 71 73 69 68 68 67 64 70 71 69 87 89 86 59 57 65 60 60 60 62 73 86 65 67 66 60 55 81 82 83 87 91 87 67 75 70 71
58 61 62 64 68 69 71 75 72 68 65 55 60 64 70 69 89 92 88 52 56 49 62 68 80 70 83 91 71 67 70 61 54 54 54 74 94 87 95 84 71 94 86
52 53 60 64 69 69 74 73 72 69 64 70 63 64 68 69 70 96 98 65 47 44 42 39 39 82 90 91 97 70 71 68 66 65 69 63 60 56 58 75 84 91 96
56 56 64 68 57 55 75 73 72 72 76 74 74 64 54 63 90 95 98 94 75 52 48 36 44 84 93 97 90 89 95 92 64 67 66 63 70 79 76 78 78 79 82
61 65 64 65 64 62 72 73 65 72 59 64 57 56 50 47 56 95 100 98 97 72 50 57 91 99 98 91 100 96 98 68 67 78 90 94 87 89 74 72 71 73 70
65 67 65 67 67 62 55 57 55 53 55 49 50 48 45 45 45 47 64 75 94 83 82 66 70 88 98 87 80 81 68 66 78 95 99 95 83 74 63 48 43 42 44
65 62 63 57 65 63 59 54 51 54 58 48 44 44 44 45 44 60 60 53 55 68 70 62 61 64 67 67 73 74 80 89 97 94 89 81 66 53 48 45 47 48 50
61 54 50 47 54 53 55 63 97 98 100 100 100 77 45 85 100 98 100 100 100 100 70 65 81 85 88 83 84 88 91 95 86 81 68 56 52 49 50 51 53 60 65
66 68 58 59 54 62 65 67 67 87 100 100 100 100 100 98 100 100 100 100 100 98 69 84 89 89 88 89 88 84 73 73 75 60 53 52 50 52 61 62 64 59 50
74 98 53 51 76 80 89 80 93 90 65 79 96 94 99 100 100 100 100 98 89 97 89 90 91 92 89 85 78 69 64 55 55 54 52 52 54 59 69 74 60 52 53
57 52 51 60 70 97 86 88 64 72 64 55 67 91 93 100 100 100 100 74 76 82 85 83 81 74 72 70 73 72 58 55 56 52 52 59 60 65 75 76 60 81 82
54 84 76 56 68 89 92 95 84 85 67 59 61 69 92 91 89 89 86 82 75 70 74 76 74 68 82 71 67 60 59 61 60 63 66 67 70 73 72 71 68 69 63
47 49 81 42 54 74 86 94 91 82 72 63 62 79 100 75 74 74 75 76 79 78 76 85 90 95 88 86 73 62 60 61 68 67 67 67 71 76 66 61 64 74 72
42 42 44 42 54 61 72 76 82 77 73 77 81 78 97 64 66 70 74 75 82 83 79 77 68 65 63 61 62 58 58 57 56 54 54 58 69 75 74 70 64 59 49
41 38 39 41 48 75 62 64 68 70 63 62 59 55 54 60 65 73 81 84 79 78 73 66 58 54 54 53 53 50 47 48 48 49 51 52 61 68 74 64 47 41 44
40 46 53 52 66 59 58 64 68 77 68 66 66 63 63 64 70 79 74 72 70 67 66 68 66 63 60 54 50 42 46 54 53 47 51 52 50 56 64 58 46 41 42
49 59 77 77 75 75 72 68 69 71 71 72 70 66 66 67 70 71 68 67 70 72 68 63 59 56 53 54 52 56 85 95 79 83 52 49 50 53 49 47 49 52 47
82 80 80 86 90 88 85 84 82 80 78 78 76 75 72 70 70 71 69 65 60 53 49 44 44 43 39 34 43 79 92 92 71 94 62 43 44 44 44 48 48 49 55

GFSGL_sfc_rhum_057.txt.gz
RH
56 59 59 58 58 61 58 60 61 57 58 60 57 56 56 56 59 68 67 56 62 64 61 56 65 67 47 37 35 36 36 36 39 34 29 37 52 60 52 50 47 48 40
52 59 58 59 57 55 60 59 62 65 60 61 62 61 58 54 59 65 62 52 58 60 60 64 58 49 70 69 49 64 49 52 42 68 52 42 57 56 57 62 46 38 42
49 48 53 54 56 55 61 59 62 65 66 55 61 66 63 57 60 62 64 62 58 58 58 61 60 63 70 56 60 50 41 48 51 50 50 42 42 40 48 56 60 56 41
37 41 51 54 54 53 58 63 60 65 68 66 63 64 62 59 56 56 59 62 61 56 57 58 59 61 68 71 65 71 64 60 55 49 46 44 41 46 40 40 41 37 39
40 40 46 55 56 58 60 63 63 64 66 67 67 64 62 54 45 58 58 59 64 61 58 58 58 62 72 73 54 67 71 61 50 48 45 40 38 37 50 42 45 43 49
44 43 48 58 62 62 63 65 68 67 68 69 66 66 64 45 60 71 62 54 60 64 64 62 60 75 72 82 86 86 85 80 80 59 49 51 68 59 47 48 52 54 60
48 48 52 59 64 65 64 67 70 71 68 72 69 66 67 65 73 74 74 49 55 60 64 64 55 39 69 58 84 85 86 88 92 80 81 75 75 73 75 79 73 69 71
51 53 54 59 64 66 68 69 73 69 71 71 70 70 69 63 78 81 78 58 56 58 59 62 66 62 60 59 58 58 64 67 75 69 77 76 76 76 78 71 77 80 72
52 55 56 56 63 67 70 72 70 69 70 68 67 72 73 70 83 84 82 57 56 63 60 60 60 63 74 82 65 68 68 65 56 77 85 86 87 87 82 68 68 73 68
51 54 57 59 64 68 70 74 71 68 67 56 62 67 74 72 91 88 82 50 57 51 64 69 79 69 81 89 73 70 74 70 63 59 57 67 89 76 91 81 69 88 83
49 51 59 62 66 69 73 72 72 71 63 71 65 66 69 71 73 92 92 64 47 46 44 40 42 80 84 84 91 70 72 72 69 62 56 58 63 65 73 89 81 92 91
53 56 63 67 56 56 74 74 74 74 76 75 76 66 54 66 88 95 94 90 74 53 46 31 38 70 85 87 86 80 90 91 60 60 64 64 62 63 59 65 79 77 81
59 64 65 66 65 63 73 76 67 73 60 64 57 56 48 44 54 93 96 95 92 72 49 56 92 91 90 91 98 91 97 66 66 67 68 61 64 67 88 90 77 78 81
66 68 66 68 68 64 58 59 57 54 57 50 50 48 44 40 36 40 63 76 94 84 80 63 64 83 98 85 76 82 68 65 67 73 70 76 83 82 73 62 61 45 44
65 61 64 59 65 65 58 52 51 53 51 46 41 38 37 39 37 48 51 54 59 70 70 63 59 58 59 58 61 68 78 84 76 68 78 86 81 72 69 52 47 47 51
72 63 52 49 55 53 52 61 98 92 100 100 100 83 65 91 98 96 100 100 100 94 70 58 58 56 56 55 58 67 77 88 80 87 88 80 70 58 52 48 50 51 56
81 69 48 51 49 51 51 54 60 98 100 100 100 100 100 99 100 100 100 100 100 94 58 58 55 56 63 65 80 86 85 83 87 84 70 70 55 53 54 52 55 55 55
78 90 66 58 56 58 61 59 54 55 51 56 94 92 99 100 100 100 100 96 70 80 58 58 73 73 78 83 80 77 75 78 74 63 62 54 52 50 50 56 56 58 52
94 78 84 77 66 62 73 68 48 55 60 66 82 90 91 100 100 100 100 67 62 60 68 78 81 82 80 78 76 83 76 66 76 70 53 51 50 50 55 58 58 78 76
86 90 76 62 60 60 53 57 47 56 61 92 78 62 79 89 86 80 84 76 81 92 86 92 78 76 81 80 76 76 66 72 69 58 55 55 60 65 60 59 59 63 64
75 73 64 66 85 61 68 84 79 76 70 66 61 86 99 78 80 78 88 94 96 93 86 85 90 80 79 78 86 83 78 72 67 61 70 74 72 73 62 62 56 55 63
46 44 46 57 51 55 70 74 84 84 57 66 68 80 100 89 84 85 88 89 89 88 81 71 66 63 62 71 77 73 64 69 66 60 57 55 57 60 69 69 64 55 55
42 39 34 42 62 73 50 60 74 65 60 60 61 63 68 73 65 64 66 66 70 65 60 57 54 54 52 51 50 48 46 46 48 48 50 49 48 50 66 69 58 47 40
61 55 52 52 56 60 74 70 78 84 82 84 79 61 62 62 59 64 66 68 68 64 67 69 67 63 56 49 46 43 51 56 55 46 50 48 48 50 44 47 50 49 48
58 56 70 74 73 65 62 71 74 73 84 83 80 85 84 74 75 71 67 65 64 61 59 56 53 53 50 49 49 52 79 89 71 86 50 51 49 50 46 45 48 50 59
79 77 79 82 86 84 83 84 82 82 80 78 84 86 84 77 75 73 70 65 60 57 54 51 45 41 36 33 41 77 88 85 62 86 52 47 46 48 50 50 47 45 50

GFSGL_sfc_rhum_060.txt.gz
RH
68 70 70 69 65 67 67 66 72 67 74 71 71 72 73 73 75 80 80 76 78 82 79 78 82 80 77 75 72 70 70 72 75 70 70 66 73 71 67 70 70 71 67
66 69 69 69 68 65 65 67 69 71 69 75 74 75 73 72 74 77 77 66 76 77 78 78 76 66 84 82 79 83 79 78 79 82 78 74 71 72 77 82 68 48 59
61 62 64 66 68 67 67 63 68 71 74 65 73 76 75 72 74 75 77 75 75 75 75 78 77 79 84 80 82 78 74 73 78 81 78 77 76 72 70 76 78 76 62
50 56 64 66 64 64 68 67 68 71 72 72 72 74 73 72 70 69 73 76 75 71 74 73 75 78 81 84 80 85 80 82 81 82 77 72 72 72 78 78 75 72 67
48 53 60 65 65 67 68 70 65 68 71 73 74 73 73 68 58 70 70 73 76 75 72 73 72 74 78 82 72 84 85 82 78 77 75 77 77 77 78 75 78 74 68
51 52 59 66 69 69 70 71 73 71 72 74 75 74 74 60 68 75 71 67 74 76 77 75 75 81 76 79 84 86 86 86 87 86 81 80 85 82 81 75 75 77 82
53 54 60 66 70 71 70 71 75 75 73 77 76 75 76 74 76 77 78 62 68 72 76 75 69 52 75 71 81 82 85 86 88 82 85 84 85 82 84 88 87 86 85
56 58 60 63 67 70 72 73 74 73 75 76 76 77 76 72 82 81 80 67 68 70 71 73 76 74 73 76 72 75 80 78 82 78 84 82 82 82 85 82 87 88 78
56 58 61 60 66 69 73 74 72 72 74 74 73 77 79 76 87 84 84 70 66 71 68 72 75 76 78 81 76 78 80 80 75 91 91 90 90 89 87 84 80 76 79
53 56 58 62 64 70 72 75 73 72 72 67 70 73 78 77 91 88 83 62 68 65 73 76 81 71 81 91 82 79 82 77 75 74 75 79 93 86 88 86 77 91 94
52 52 61 64 66 70 75 74 75 74 72 76 74 72 75 77 78 92 90 70 62 64 62 62 63 84 87 87 92 76 78 76 79 82 76 72 69 74 80 91 92 96 95
59 59 63 66 59 57 77 77 76 77 80 80 80 74 67 74 91 98 92 86 78 65 63 57 61 80 86 86 86 82 88 94 76 74 74 74 75 73 82 86 91 93 94
66 67 66 68 67 67 74 79 76 79 74 76 70 73 67 64 70 93 96 93 88 78 64 72 92 88 84 93 92 89 97 81 77 77 78 78 76 84 92 90 88 90 94
64 73 69 71 72 69 64 69 71 72 74 70 69 68 67 63 60 66 81 86 94 87 84 76 80 85 99 95 87 89 80 78 79 80 80 78 85 90 90 88 86 87 76
67 66 68 65 73 73 66 70 69 68 67 68 63 61 62 62 57 66 74 74 74 82 82 77 77 74 72 73 76 78 82 81 82 80 82 90 90 90 89 86 91 78 80
70 65 62 61 65 67 67 81 99 96 100 93 98 66 80 94 100 99 98 92 91 95 82 78 80 77 75 70 70 72 74 85 83 88 92 90 90 91 91 86 80 79 83
94 79 63 66 61 69 70 73 76 93 100 100 100 100 100 99 100 100 100 100 98 100 83 80 76 72 72 71 68 75 84 88 92 95 97 95 90 85 82 77 79 80 81
91 98 89 72 62 70 69 72 65 72 75 79 98 98 100 100 100 100 100 99 93 89 74 73 75 72 80 80 80 81 86 91 92 92 93 85 81 78 77 77 77 79 81
96 96 96 98 97 97 82 73 68 66 66 68 95 98 99 100 100 100 100 80 78 76 78 77 82 89 86 85 86 87 87 88 87 88 84 81 76 72 76 73 75 85 86
95 93 96 98 96 95 93 95 91 89 82 82 78 77 96 92 94 94 90 87 80 79 88 88 90 96 94 94 95 92 86 84 84 81 80 80 81 81 79 77 76 76 79
96 92 91 97 96 94 92 91 90 73 76 90 80 98 100 94 83 86 89 94 94 94 97 97 98 97 97 91 94 90 80 82 83 84 80 82 82 81 83 83 78 76 76
88 88 88 89 94 94 92 90 88 91 71 81 88 98 100 88 85 90 90 91 93 95 96 94 96 92 94 94 88 80 79 78 81 82 83 81 78 76 77 78 79 74 69
62 61 76 85 87 94 94 96 96 94 93 86 84 82 90 89 88 83 90 92 93 93 88 87 80 72 71 73 66 61 61 64 64 65 67 65 66 66 70 72 70 68 63
64 82 73 73 79 75 81 92 96 98 96 93 89 86 86 80 80 87 88 84 88 87 85 85 71 60 63 58 60 66 61 67 67 58 65 62 61 60 58 64 64 58 58
70 73 87 94 85 77 79 77 79 82 94 97 96 92 84 81 88 83 91 90 80 75 70 61 51 49 49 49 49 49 76 86 70 80 57 61 63 64 59 56 59 55 59
81 81 82 84 86 91 86 86 86 82 79 76 77 92 94 91 94 91 86 81 71 57 49 46 43 38 38 42 54 76 86 84 66 86 56 55 58 60 57 59 57 56 56

GFSGL_sfc_rhum_063.txt.gz
RH
68 72 67 64 74 81 82 70 81 73 82 79 82 87 84 82 88 91 86 87 88 88 85 90 86 84 82 86 89 88 78 80 76 72 77 74 74 72 68 73 72 71 70
69 66 72 68 65 71 78 84 67 78 81 79 77 78 83 84 87 88 87 77 84 89 85 87 87 77 86 87 92 86 88 88 85 81 85 74 71 69 70 70 64 60 69
66 69 70 72 68 63 63 78 73 82 75 84 81 78 78 79 84 88 88 87 85 86 84 88 85 87 91 95 91 91 90 83 92 92 88 87 85 84 78 77 77 82 74
66 69 72 70 71 63 60 60 80 66 88 75 86 80 87 78 82 85 85 89 88 86 88 86 85 86 86 88 91 92 91 93 94 96 96 94 87 76 87 86 85 85 83
63 68 69 69 67 69 66 68 60 75 64 84 78 90 80 82 73 85 85 86 83 86 86 84 85 83 88 90 87 94 94 96 97 97 97 96 95 91 92 92 95 78 76
54 64 66 67 69 70 71 71 69 64 74 65 74 80 88 70 79 83 77 86 83 80 85 88 86 84 83 86 89 90 90 96 96 98 97 97 95 96 95 96 81 97 98
48 59 62 66 70 71 71 72 79 67 69 80 72 74 78 78 84 84 83 67 75 83 80 80 81 64 84 84 87 85 84 87 86 77 90 86 90 82 90 93 91 95 93
54 54 62 66 69 71 69 73 71 72 66 64 73 77 78 75 88 86 82 68 69 70 80 82 78 74 82 81 82 80 86 77 78 80 84 74 78 80 88 82 87 95 93
64 59 62 62 69 71 71 71 68 70 72 68 70 75 79 77 92 90 84 72 67 72 74 73 82 81 86 89 86 93 93 94 86 90 90 89 88 90 90 97 98 97 91
54 56 60 62 65 69 70 67 67 65 65 71 68 72 80 77 91 92 88 68 72 68 73 78 93 81 89 90 80 75 80 78 91 86 90 94 96 91 94 94 86 98 96
67 62 61 62 61 65 66 67 66 68 68 68 73 70 74 80 77 96 94 72 67 68 67 67 67 89 89 90 94 83 85 78 94 94 95 97 92 87 81 94 92 95 99
68 79 71 66 59 63 68 68 69 69 72 73 73 75 71 72 90 97 96 94 78 68 67 62 61 85 90 90 90 87 87 91 96 97 97 95 91 78 80 94 95 97 98
86 78 80 70 66 58 72 71 74 72 73 75 76 76 74 70 72 95 98 95 91 78 64 68 80 85 89 90 91 90 93 89 80 97 88 80 89 81 94 96 94 94 95
95 77 74 68 68 61 69 69 71 73 76 74 76 76 74 71 71 73 92 96 96 91 84 84 92 91 91 92 94 93 88 87 84 79 81 83 93 97 97 97 97 98 93
92 85 78 64 74 67 64 72 71 68 71 73 72 71 72 78 70 76 86 87 84 90 86 77 88 93 84 93 97 97 96 97 93 95 98 98 98 98 98 98 98 98 88
96 93 75 65 72 68 70 98 100 96 99 97 93 77 70 91 86 90 99 100 99 100 92 88 90 88 90 88 90 95 97 93 91 97 98 98 99 99 98 98 97 78 88
98 97 97 82 73 75 77 73 93 100 100 100 100 94 96 100 100 100 100 100 100 100 83 93 87 89 88 87 83 79 78 96 95 97 98 98 98 98 99 97 84 88 89
97 98 98 98 97 91 85 81 84 91 95 99 100 100 100 100 100 100 100 100 99 98 81 95 92 88 85 84 82 90 98 98 99 99 98 98 99 98 97 87 88 89 92
96 96 97 98 99 98 96 92 89 89 92 95 100 100 100 100 100 100 100 97 88 87 92 96 96 96 96 96 97 97 97 98 99 99 99 98 95 92 83 86 83 88 93
96 95 97 98 99 97 98 97 98 94 94 97 98 99 100 100 100 100 99 98 98 97 98 98 98 98 98 98 99 99 98 98 94 95 90 90 90 89 91 88 85 91 94
98 97 92 99 98 98 98 97 97 98 98 98 99 99 100 99 98 98 99 99 100 100 99 99 99 98 99 99 98 98 97 92 92 92 95 94 93 88 88 93 88 93 93
97 97 97 99 99 98 99 98 98 98 99 99 99 100 100 99 99 98 99 98 97 97 99 98 99 98 98 98 95 86 78 82 84 86 88 93 92 90 91 90 91 93 93
93 95 94 96 98 99 98 98 99 98 99 99 99 99 97 97 95 94 97 96 95 91 81 87 88 81 87 80 70 68 73 73 74 72 75 76 76 81 91 94 93 95 95
80 93 95 95 96 96 96 98 98 99 98 98 98 98 98 98 98 97 97 97 95 90 86 75 63 65 63 70 70 60 59 68 70 66 67 72 78 79 80 84 89 87 83
82 87 88 96 91 89 94 90 94 96 97 97 98 98 99 99 97 96 94 89 75 76 62 66 63 55 60 62 61 65 80 86 60 77 56 66 76 79 79 79 77 78 73
86 87 85 86 89 91 90 88 86 84 87 93 93 95 95 94 95 91 81 71 75 77 81 75 66 68 66 62 68 82 82 79 68 86 64 60 66 51 51 56 56 64 74

GFSGL_sfc_rhum_066.txt.gz
RH
72 67 64 64 72 95 81 75 79 80 77 80 83 83 84 90 90 96 92 89 93 91 88 90 92 91 91 90 94 94 92 86 83 76 82 82 78 74 70 73 76 72 70
69 70 68 64 67 76 91 77 75 82 85 84 84 83 81 84 92 93 93 84 94 92 87 92 91 84 92 92 94 92 91 92 88 90 87 82 77 76 79 81 70 68 78
66 68 70 66 64 65 70 90 80 74 85 92 87 84 84 83 86 90 89 89 90 90 89 90 89 90 93 92 94 96 94 89 94 96 96 94 93 89 85 83 82 81 77
63 68 71 73 67 61 61 67 92 81 73 86 87 82 79 80 80 83 87 92 92 89 90 91 90 91 91 93 93 95 94 96 96 97 97 97 97 92 93 94 90 94 84
65 68 69 70 72 68 61 62 66 84 73 74 85 84 81 77 73 79 81 87 92 94 93 91 92 89 90 87 84 94 95 96 97 98 98 98 98 97 96 96 96 91 84
66 68 70 69 73 75 74 64 67 66 71 79 87 82 82 74 80 87 83 84 86 87 89 94 91 89 90 92 93 92 89 95 96 98 97 97 96 97 97 97 97 98 97
67 68 70 74 75 76 76 76 70 69 61 69 74 86 85 82 85 88 88 79 85 83 82 81 86 73 90 89 92 92 93 95 90 89 96 94 93 85 92 95 95 98 97
80 68 71 74 76 76 75 78 75 73 68 62 71 70 77 82 91 90 88 78 81 80 81 84 83 80 85 86 90 92 90 87 88 86 85 75 76 75 92 82 93 97 98
80 78 69 70 74 74 77 76 75 76 76 66 67 78 73 70 90 92 92 81 78 78 75 75 81 80 87 93 85 92 91 90 89 92 88 88 89 90 88 97 95 99 98
88 86 78 66 68 73 72 74 72 71 74 72 68 66 81 78 91 94 94 77 79 76 74 75 89 82 92 94 87 84 88 81 87 87 92 97 99 95 97 97 94 99 98
94 90 80 65 63 65 68 69 69 72 69 73 73 69 68 75 74 96 97 80 76 76 74 71 73 93 94 95 96 75 77 72 80 94 93 95 96 97 97 97 96 96 99
91 95 93 83 67 60 66 70 69 70 74 71 75 77 71 71 92 96 98 97 83 74 73 69 66 87 96 99 100 96 97 97 96 98 99 98 98 98 88 94 96 98 97
95 96 94 90 81 80 65 68 72 69 71 76 72 72 76 74 73 97 99 98 96 84 71 73 82 87 90 94 94 90 93 92 85 87 88 81 81 80 90 96 97 97 95
97 96 96 94 77 72 69 64 67 71 71 70 75 76 73 73 76 73 90 98 98 96 86 80 82 86 88 83 88 92 90 89 86 84 81 79 92 97 98 99 98 97 98
95 96 97 96 95 70 65 67 66 63 67 69 68 70 75 77 73 81 83 86 88 92 89 84 96 97 95 97 98 97 96 98 98 93 96 96 98 98 99 99 99 99 99
96 94 98 98 97 83 69 93 100 95 94 94 92 77 69 84 94 97 100 100 100 100 100 95 93 90 92 85 84 92 97 95 93 94 98 98 98 99 99 99 99 99 95
98 97 98 97 98 93 75 76 88 100 100 100 100 100 99 98 100 100 100 100 100 100 98 97 92 93 90 89 87 88 90 88 89 95 96 97 97 98 100 99 98 95 96
95 94 98 99 98 98 97 76 82 88 96 97 100 100 100 100 100 100 100 100 100 100 97 96 97 91 93 91 90 89 86 86 97 94 96 96 99 99 100 99 98 94 95
93 92 96 97 97 99 98 99 95 88 91 95 100 100 100 100 100 100 100 92 94 95 98 97 97 98 99 99 99 99 98 98 97 98 98 99 99 99 99 98 97 98 97
95 92 94 97 97 98 98 98 98 98 98 99 98 98 99 100 100 99 100 99 98 98 98 99 100 99 98 98 98 97 96 98 99 100 99 99 99 98 96 95 94 94 96
97 95 95 98 98 98 98 98 97 97 98 98 98 100 100 97 99 99 100 100 100 100 100 99 99 99 99 99 99 99 99 98 96 98 100 98 98 96 92 89 89 90 92
95 97 97 97 96 99 98 99 98 96 99 99 99 100 100 99 99 99 99 99 99 99 99 98 99 98 98 99 99 96 95 99 100 100 98 97 97 90 92 90 89 87 89
94 94 95 96 97 97 98 97 98 99 99 98 99 99 99 99 98 99 98 96 94 85 82 91 94 90 90 90 89 93 94 93 92 92 91 89 88 89 96 93 87 90 91
90 93 96 96 96 96 97 98 98 99 99 99 99 99 99 99 98 98 96 95 90 87 83 81 78 76 80 83 82 80 89 82 78 80 83 77 76 81 89 87 91 93 94
94 93 95 98 98 98 98 97 97 97 98 98 98 99 99 98 98 97 96 96 95 92 88 80 82 85 83 80 81 78 83 91 65 91 82 75 73 75 74 70 75 78 82
88 92 96 96 97 97 98 98 98 98 98 98 98 98 98 97 98 97 96 95 95 95 92 90 83 80 81 83 82 87 87 82 69 79 50 46 46 49 53 54 61 72 78

GFSGL_sfc_rhum_069.txt.gz
RH
66 66 65 72 89 96 87 84 88 88 87 86 92 92 91 91 94 96 95 93 95 95 93 94 92 92 96 94 95 96 94 88 87 83 84 86 81 76 78 82 82 79 81
66 66 66 66 75 89 90 86 84 84 87 85 87 94 90 87 92 95 95 90 93 94 94 93 93 86 94 95 96 92 94 95 92 92 92 90 86 86 87 87 77 73 82
67 67 67 66 67 71 83 94 85 84 84 89 92 92 90 85 88 90 91 94 94 93 92 93 90 93 95 96 95 96 96 94 96 96 97 97 96 93 93 90 88 89 81
66 70 70 69 66 64 65 80 92 83 83 86 96 92 91 87 84 84 91 95 95 91 91 92 91 93 93 92 93 95 96 97 97 98 98 98 98 95 96 97 94 94 88
71 69 71 70 67 64 64 64 77 92 80 79 83 96 91 87 82 85 87 91 93 92 93 90 92 92 92 91 89 94 95 97 98 98 98 98 98 98 97 97 98 96 90
67 72 70 70 74 72 69 66 65 71 84 87 82 78 91 80 84 88 84 84 88 92 92 94 93 91 93 93 93 91 90 96 96 98 98 97 96 98 98 97 97 98 97
69 70 71 77 78 79 75 72 67 66 66 70 79 85 78 80 89 88 88 74 77 80 85 87 91 78 93 90 93 95 95 95 92 94 95 96 95 95 94 95 96 98 98
85 71 70 73 80 82 80 81 73 67 68 67 65 67 79 74 89 90 89 81 78 78 80 82 87 82 93 93 95 95 95 92 94 92 96 86 88 82 94 86 94 96 98
85 91 82 74 79 78 80 80 80 76 73 72 66 66 68 69 93 92 92 81 79 81 80 82 83 86 90 96 92 95 95 90 90 94 91 91 91 90 92 97 98 100 99
96 97 94 86 85 83 81 79 77 86 76 75 74 69 72 69 83 96 95 79 82 80 79 82 91 82 92 96 94 90 96 87 92 94 96 98 99 96 96 96 97 99 99
93 91 95 96 96 91 78 76 77 77 77 79 80 75 71 74 75 92 96 82 73 73 76 73 77 93 95 98 98 86 85 78 85 94 94 96 97 97 96 99 98 98 100
92 96 96 96 97 85 78 71 74 76 80 80 81 80 76 70 87 95 96 96 81 73 73 70 74 91 96 97 99 98 98 97 89 98 99 98 98 98 93 98 98 98 96
96 95 94 94 92 95 96 74 72 74 75 82 83 79 78 74 72 94 97 98 96 85 73 76 87 94 94 96 96 96 98 98 95 99 93 84 79 79 93 96 96 96 97
97 97 96 92 92 89 96 98 94 94 91 93 90 89 92 78 78 74 93 98 98 97 88 85 88 92 92 86 91 94 92 91 90 88 85 82 91 97 98 97 98 98 99
93 96 97 97 97 95 93 95 91 82 80 87 74 87 87 79 71 83 82 87 90 93 91 91 90 98 92 94 96 91 96 96 97 90 96 96 98 98 98 98 98 99 99
95 90 97 98 98 97 95 92 100 96 99 96 96 82 77 83 94 99 100 100 100 100 100 96 92 91 93 91 90 92 95 94 90 91 96 96 97 98 98 99 99 99 99
97 95 96 98 95 98 98 96 97 97 100 100 100 100 99 86 100 100 100 100 100 100 98 96 93 87 87 91 92 89 90 91 89 96 96 96 96 97 100 99 99 100 100
96 94 98 98 96 96 98 97 94 94 92 91 99 100 100 100 100 100 100 100 100 100 97 98 96 96 93 94 96 97 92 96 98 96 97 95 96 96 98 99 99 98 98
96 92 97 97 97 98 98 98 96 96 93 90 100 100 100 100 100 100 100 96 97 98 99 98 97 98 98 98 99 99 98 98 98 98 99 99 98 98 99 99 99 100 98
95 93 93 95 97 98 98 98 98 96 97 97 98 98 100 100 99 99 99 99 98 98 99 98 98 98 98 98 100 99 100 100 98 97 98 98 98 97 94 91 93 99 98
95 95 91 96 97 98 97 98 98 96 95 97 98 99 100 99 98 97 99 99 99 98 98 98 99 99 100 99 99 98 98 98 98 98 98 98 97 95 90 86 83 94 95
98 97 96 97 97 97 98 97 98 96 96 96 99 100 100 99 100 99 99 99 99 99 99 100 99 98 98 99 99 100 99 98 97 96 97 98 98 99 99 99 98 99 97
96 94 95 96 96 97 97 98 98 98 98 96 99 99 99 99 99 99 99 98 98 97 97 96 95 91 90 91 90 97 99 99 97 98 99 99 99 99 99 99 98 97 93
92 94 95 96 96 97 97 98 98 99 98 98 99 99 98 98 98 98 98 98 96 95 95 95 94 92 87 88 84 86 93 91 88 96 95 95 97 98 98 96 96 91 91
94 94 95 98 98 98 98 97 97 97 98 98 98 98 98 98 98 98 98 98 98 98 97 97 98 93 89 84 86 87 90 93 90 100 93 88 88 86 88 79 74 74 75
91 93 95 97 98 98 98 98 98 98 98 98 98 98 98 98 98 97 98 97 97 97 96 97 96 93 94 94 93 92 91 91 80 78 60 66 76 77 66 68 72 73 75

GFSGL_sfc_rhum_072.txt.gz
RH
72 75 78 83 86 86 82 85 87 88 89 88 90 88 90 91 92 95 92 90 90 91 89 90 89 88 83 82 83 86 82 76 77 75 74 75 78 79 76 75 74 74 70
72 75 77 82 86 88 84 84 86 87 89 88 88 90 89 88 90 90 90 85 89 88 87 90 87 78 89 90 85 89 86 86 80 89 83 78 82 80 81 84 74 64 72
78 71 73 76 81 85 86 88 87 84 86 85 88 89 90 88 90 89 88 88 88 87 86 87 86 86 88 86 88 86 85 84 87 87 86 86 82 79 80 82 82 82 69
70 70 74 75 74 74 80 87 87 85 84 84 85 86 87 88 87 87 87 87 87 86 87 87 86 86 88 87 85 89 86 89 91 91 90 87 86 83 84 85 79 76 75
74 73 74 74 75 76 78 82 85 86 82 82 84 86 86 86 79 88 87 87 87 87 87 86 85 86 92 89 80 88 91 89 89 90 92 90 89 86 87 83 88 79 78
74 72 75 78 80 80 80 81 84 87 86 87 84 83 86 76 88 91 88 86 88 88 88 88 87 91 91 94 95 94 90 92 93 92 90 90 90 91 86 86 86 88 86
80 82 84 81 83 83 81 81 81 81 85 87 85 83 84 84 89 92 92 82 85 86 88 87 84 73 91 84 93 95 96 95 95 88 90 88 90 86 87 90 90 90 86
87 86 82 83 82 85 84 84 83 78 79 83 84 85 82 78 89 92 90 83 83 83 83 85 85 83 86 85 84 84 84 84 87 81 88 85 85 85 88 83 88 91 89
94 95 91 80 83 84 87 89 87 81 79 77 75 82 84 80 88 91 92 81 81 84 83 82 83 85 91 97 86 88 87 85 88 97 93 93 94 94 90 86 86 93 85
94 93 93 92 93 86 90 89 94 88 82 74 75 77 79 78 86 91 92 75 77 75 82 87 93 84 94 98 90 87 89 84 81 81 85 93 96 90 97 88 80 91 90
93 94 93 95 97 97 95 94 96 95 94 86 83 81 81 80 78 90 95 80 74 73 72 71 78 96 97 98 98 85 86 81 86 83 80 80 79 80 78 87 88 85 94
93 93 95 95 93 96 96 97 90 88 95 94 90 85 80 81 88 92 93 96 84 75 74 70 74 93 98 98 96 96 98 97 81 85 89 82 82 80 77 84 91 93 86
94 94 93 95 94 94 96 94 93 93 85 90 86 84 82 80 79 93 95 94 94 82 70 75 86 96 96 96 97 97 99 89 86 87 85 81 77 77 83 89 89 90 92
94 94 95 94 97 94 93 98 96 95 96 88 86 84 82 81 79 81 82 88 95 91 83 80 84 90 93 87 88 90 84 84 84 84 82 79 81 87 86 86 86 93 83
89 94 96 94 96 92 93 91 93 87 89 92 83 83 92 86 79 95 94 92 90 93 99 87 84 85 87 88 88 84 84 84 86 83 83 84 88 90 89 90 95 93 93
88 85 95 98 96 93 94 92 97 100 100 100 100 91 84 94 98 100 100 100 100 100 99 91 90 88 88 87 83 83 86 89 84 83 86 82 85 89 90 95 95 96 96
94 91 93 96 95 96 96 94 97 87 100 100 100 100 100 99 100 100 100 100 100 100 96 94 93 88 88 86 84 83 83 85 87 85 85 87 90 91 97 90 92 96 96
94 93 95 95 94 96 93 92 89 90 93 88 98 99 100 100 100 100 100 100 99 100 92 96 93 92 89 87 87 90 85 86 87 87 88 86 89 90 93 93 91 94 97
89 86 92 91 94 96 96 95 96 95 90 90 96 99 100 100 100 100 100 92 95 96 98 97 94 94 96 96 96 96 95 95 94 96 96 96 96 97 98 97 96 100 99
87 88 86 85 92 93 95 94 95 98 98 98 97 94 100 100 99 98 98 98 95 94 95 96 96 97 97 97 97 98 98 98 97 96 96 97 98 96 97 96 96 98 98
91 87 88 88 92 94 94 97 97 98 97 96 96 95 100 99 98 97 98 98 97 95 96 97 98 97 97 98 98 98 97 96 97 98 98 97 94 93 94 94 94 93 94
94 94 93 92 94 94 95 97 97 98 97 97 94 92 100 99 98 98 98 99 99 100 100 99 99 100 99 100 100 99 99 98 97 96 94 91 91 91 93 96 96 95 94
93 94 94 95 95 95 96 96 97 98 98 97 96 94 99 98 100 99 99 99 98 98 98 98 97 97 95 94 95 93 98 97 94 93 91 90 90 90 92 94 92 94 91
90 94 95 95 96 95 96 96 97 98 98 97 98 98 99 98 98 98 98 98 98 98 97 97 95 93 94 95 96 93 91 92 90 92 93 95 94 98 92 90 88 95 95
92 93 95 97 97 97 97 96 96 96 97 98 98 98 98 98 98 98 98 98 98 98 98 98 97 96 96 94 92 90 96 96 85 92 90 88 88 88 89 87 88 90 83
95 95 96 97 97 97 97 97 98 98 98 98 98 98 98 98 98 98 98 97 98 98 97 98 96 95 95 96 96 98 99 97 94 98 92 92 92 93 89 90 88 93 89

GFSGL_sfc_rhum_075.txt.gz
RH
61 64 64 63 64 68 67 68 70 68 71 71 72 69 69 70 73 78 76 70 74 74 71 73 73 75 56 54 54 55 57 57 54 43 54 55 68 65 59 59 50 49 45
62 66 71 66 64 63 68 66 67 71 69 70 72 73 70 69 72 75 73 65 74 71 68 73 71 60 76 73 61 72 62 65 61 71 60 55 65 67 68 70 56 42 54
62 62 71 71 69 64 66 65 68 69 69 64 68 73 72 70 72 73 72 72 70 69 66 69 68 70 75 62 69 63 58 63 65 65 61 55 59 56 63 59 62 62 45
48 54 67 73 72 63 66 69 67 70 70 68 68 69 68 68 69 68 70 72 71 68 68 67 67 68 72 73 70 74 68 68 65 66 58 56 55 59 61 53 52 48 53
57 54 58 65 69 73 72 70 68 70 68 67 68 67 66 61 54 68 69 70 72 70 68 68 67 69 81 77 59 68 73 68 59 59 58 54 52 51 59 52 53 53 55
75 62 62 66 69 70 73 72 73 71 72 70 68 68 67 53 66 83 73 64 69 72 71 70 69 82 85 92 93 90 81 76 76 61 53 57 72 66 53 55 56 60 58
80 76 68 70 71 74 71 73 74 76 72 75 71 68 71 68 80 88 92 57 62 68 71 69 63 50 78 65 91 94 95 95 93 76 76 71 73 69 71 75 70 67 64
78 77 74 73 72 72 74 74 77 71 74 74 72 74 74 66 84 90 93 70 64 66 67 68 70 66 66 68 65 64 65 66 75 68 72 70 69 68 74 71 77 80 68
85 84 82 83 75 73 74 76 74 73 73 71 68 74 77 75 87 90 90 66 60 70 68 67 68 69 80 93 70 68 69 66 69 91 92 91 91 93 87 64 62 59 53
87 90 89 83 87 82 75 78 75 76 72 63 66 68 74 74 90 90 87 57 62 56 67 72 89 73 87 96 79 70 72 67 60 57 59 83 93 83 97 82 62 62 54
72 80 88 87 92 91 90 87 81 80 79 76 74 72 73 73 74 93 92 68 56 57 56 53 52 91 96 98 96 71 73 67 66 64 58 51 52 58 57 69 71 62 55
74 74 80 86 88 88 95 96 93 94 93 90 84 76 66 72 92 92 92 94 76 62 62 52 58 89 97 99 94 88 96 93 61 56 52 50 49 49 51 55 69 72 62
78 83 74 80 83 93 97 94 83 78 74 77 74 78 70 61 64 97 94 92 92 71 58 65 81 94 97 93 99 94 98 70 63 62 60 57 50 47 60 68 72 77 79
76 78 78 74 77 79 82 84 97 88 68 65 78 73 68 65 63 62 70 83 94 82 74 67 73 81 84 72 74 83 71 65 64 63 61 57 55 55 58 60 60 58 61
69 67 68 66 68 70 70 70 68 78 93 85 90 85 78 71 64 75 74 66 90 82 75 67 65 66 69 71 68 65 66 66 68 66 65 64 62 60 60 59 62 62 66
68 62 59 61 70 64 70 63 84 98 100 100 100 97 81 94 99 100 100 100 100 100 83 70 71 67 72 79 80 78 74 78 66 64 63 64 63 61 61 61 64 66 66
73 71 62 65 59 62 62 78 82 72 95 96 100 100 100 99 100 100 100 100 100 100 78 75 75 76 79 81 77 71 72 74 78 69 63 62 63 62 67 66 66 67 67
75 87 78 64 61 60 62 64 68 69 73 82 78 92 97 100 100 100 100 100 98 99 78 82 84 85 78 73 73 72 66 76 80 73 67 63 63 66 68 70 67 69 66
72 75 79 76 73 73 77 82 83 81 84 84 75 81 87 100 100 100 100 92 94 86 93 84 77 73 82 80 73 71 73 77 84 83 74 70 67 68 71 68 71 96 87
75 80 83 81 77 77 81 85 91 92 93 91 90 82 89 99 95 98 99 98 94 71 70 75 82 73 83 90 89 89 87 87 93 91 89 87 86 84 89 91 92 93 97
70 69 77 82 80 85 88 90 92 92 95 92 85 77 100 93 93 90 88 98 97 94 79 74 75 76 82 90 93 95 93 90 93 95 94 92 93 96 95 94 96 97 97
76 84 85 85 80 86 86 86 89 91 92 94 86 76 99 90 87 94 94 93 92 93 91 94 96 98 96 98 98 96 96 96 95 96 96 95 95 96 95 95 92 88 74
90 88 86 86 89 92 91 91 93 94 94 93 93 91 90 85 86 94 97 98 98 98 98 98 97 97 94 95 95 96 97 97 97 98 98 96 95 93 91 89 83 72 68
83 89 92 92 94 94 92 94 94 96 96 95 96 97 98 98 98 98 98 98 98 97 97 98 96 94 94 95 94 92 92 94 96 95 93 96 94 92 82 77 79 76 70
91 92 93 96 96 96 95 94 94 93 95 96 97 97 97 97 98 98 98 98 98 98 97 97 98 96 94 92 91 91 98 100 92 100 94 92 93 93 94 85 83 78 83
95 92 94 96 96 95 96 94 95 95 96 96 97 97 97 98 98 98 98 98 98 97 97 97 97 96 96 97 97 98 100 100 95 100 86 91 95 96 96 96 93 95 93

GFSGL_sfc_rhum_078.txt.gz
RH
53 55 55 52 54 59 56 57 59 55 55 58 60 62 61 57 58 66 64 55 62 61 58 58 63 61 45 36 38 38 39 40 43 34 34 36 55 56 52 51 43 42 31
52 60 58 60 54 51 57 55 57 60 56 58 60 67 56 56 58 66 61 51 59 59 58 61 59 47 64 61 44 57 49 49 46 62 51 40 50 54 54 59 41 32 37
50 52 55 55 54 54 53 56 57 59 59 51 56 65 63 54 59 61 62 60 57 56 55 58 58 58 63 49 53 46 42 45 46 45 45 37 39 42 50 52 50 48 30
37 44 58 54 56 58 53 56 56 59 61 58 56 58 59 58 56 60 59 62 58 54 58 57 57 56 61 63 59 63 58 55 52 47 43 40 38 44 44 39 35 31 33
50 43 46 52 57 56 65 58 56 58 59 60 58 56 57 52 44 59 58 57 61 61 57 58 57 61 71 68 48 62 65 56 46 42 41 40 38 37 48 37 38 34 41
67 60 55 54 56 61 64 76 62 60 62 62 61 57 56 41 58 75 65 53 57 61 60 58 58 74 75 86 88 86 78 67 69 48 39 43 61 53 40 39 40 40 43
80 67 67 66 64 65 63 65 67 66 63 66 63 60 61 58 71 79 80 49 49 54 59 57 50 38 68 56 88 92 93 93 91 72 70 64 66 61 64 67 65 56 54
83 86 87 80 73 75 75 72 68 65 66 65 64 66 64 58 78 81 84 58 55 57 55 56 60 58 51 53 56 55 59 61 70 62 67 64 62 61 65 63 68 71 59
76 83 83 87 87 82 75 79 76 76 70 64 62 66 69 68 85 86 85 56 53 61 58 57 58 61 71 84 60 60 59 55 58 82 82 82 87 91 84 54 48 44 39
61 76 81 81 93 90 84 91 88 76 70 62 60 61 68 67 86 90 85 51 54 48 59 65 78 66 80 88 70 67 68 60 47 45 56 75 88 75 95 78 55 50 41
55 58 63 77 89 91 96 90 93 92 86 78 67 67 67 65 67 94 93 62 49 46 44 42 42 79 87 91 93 67 66 58 55 48 42 40 39 40 44 62 65 54 42
58 60 64 65 62 75 87 93 93 87 92 92 92 92 64 68 88 90 95 94 74 54 51 40 45 79 88 92 88 81 90 90 45 35 32 32 32 31 29 35 61 63 52
61 63 61 62 60 59 66 78 94 93 80 82 94 97 94 59 53 93 95 94 95 70 52 56 78 90 91 88 98 92 97 62 55 47 42 37 33 30 43 48 57 67 71
62 64 57 55 57 57 48 46 49 57 68 62 54 94 93 91 80 45 71 85 92 79 76 62 64 76 92 76 69 77 65 57 53 48 44 38 36 36 36 37 40 40 45
56 54 53 44 47 51 51 46 48 50 57 70 81 76 81 85 86 97 99 89 81 81 77 60 58 56 56 56 56 55 53 56 59 53 48 45 44 43 43 41 39 40 44
63 48 42 43 43 41 43 45 61 78 88 94 98 98 70 82 100 100 100 100 100 100 90 64 58 55 54 52 54 53 52 58 50 50 50 48 46 45 45 44 42 43 46
74 66 53 52 44 45 45 45 46 45 73 83 88 94 98 97 100 100 100 100 100 99 75 77 64 56 54 57 66 61 57 53 66 57 52 50 47 45 48 47 44 45 48
70 78 63 53 47 44 44 44 44 45 46 47 61 77 81 100 100 100 100 100 96 98 82 74 64 60 62 67 69 60 58 58 61 68 67 60 52 48 46 46 46 51 49
62 56 55 51 49 53 51 51 48 50 53 50 52 60 70 94 100 100 100 98 97 82 84 71 63 60 67 71 70 63 65 62 63 64 60 61 61 52 51 49 47 72 65
74 76 75 61 55 51 50 52 53 59 63 56 52 52 47 59 62 63 96 95 98 93 73 70 67 63 64 75 75 70 84 83 65 64 71 72 71 77 65 58 54 54 69
70 69 69 62 57 54 56 66 70 66 68 71 64 57 88 68 64 64 60 81 92 92 81 75 74 74 73 71 84 89 87 81 81 82 80 78 82 87 85 84 86 86 88
77 74 72 73 70 71 67 67 69 74 74 74 66 57 86 65 62 62 60 63 66 78 82 94 92 97 95 93 90 86 88 90 89 91 92 88 86 89 92 94 95 96 95
80 80 80 81 84 85 80 70 68 70 73 70 70 72 66 62 66 74 78 85 88 97 97 96 96 96 97 98 99 98 98 97 96 97 96 93 94 94 95 98 97 97 95
84 88 88 86 86 86 84 85 80 88 86 83 82 84 89 91 94 95 96 96 96 96 96 96 95 92 94 95 94 96 96 94 97 98 95 98 98 99 97 96 96 94 91
95 95 94 94 93 92 92 92 91 89 90 91 92 93 94 95 96 96 96 96 97 97 97 97 96 93 93 91 90 90 97 100 94 99 95 94 95 95 96 98 98 96 94
96 96 97 97 96 95 94 93 94 94 95 94 94 95 95 96 95 96 96 96 97 97 97 97 96 94 94 95 96 98 100 100 97 100 91 94 96 97 96 94 92 95 94

GFSGL_sfc_rhum_081.txt.gz
RH
50 52 54 53 53 58 56 55 56 54 54 51 54 56 56 59 55 67 64 70 61 61 60 56 59 66 45 34 32 32 34 36 40 35 34 39 54 57 52 53 48 49 37
46 54 51 57 55 51 57 55 56 61 55 57 57 60 59 55 56 61 58 49 53 57 55 59 54 44 68 66 46 63 50 56 46 69 54 42 55 54 59 64 46 33 36
42 42 49 51 54 53 54 55 58 60 61 50 55 64 60 55 58 59 58 59 54 55 55 56 55 57 66 53 57 47 41 46 50 49 47 38 38 37 46 56 58 51 32
55 40 48 52 52 51 55 57 55 61 62 60 58 58 59 55 52 52 56 66 63 54 53 55 54 55 63 68 60 68 59 56 52 44 42 41 38 45 40 41 39 32 32
65 61 52 52 54 54 56 59 56 59 60 62 62 59 57 50 43 57 54 56 68 61 55 54 56 57 68 69 49 65 70 58 45 42 41 38 37 38 50 40 41 36 43
83 77 81 75 82 57 61 61 64 62 63 64 64 62 60 42 56 72 66 52 58 63 62 59 58 73 72 82 82 81 80 75 76 53 45 46 68 53 39 39 42 43 47
78 79 82 83 86 83 73 70 67 68 65 69 65 63 65 62 70 76 76 47 52 58 66 66 52 36 67 58 84 84 86 89 90 77 77 70 71 69 71 75 69 63 57
75 77 80 84 82 80 86 82 81 73 77 72 68 69 68 61 77 79 80 58 55 58 58 60 64 61 59 59 59 59 65 66 72 63 71 71 70 70 73 67 75 76 63
62 74 76 76 85 83 81 91 91 86 86 80 75 76 75 70 84 84 82 57 53 61 58 59 60 62 73 79 64 64 64 61 61 80 79 79 80 79 77 55 51 47 43
49 54 61 72 78 81 82 84 90 92 86 86 72 82 77 72 86 89 85 55 58 50 61 66 76 68 77 86 71 67 71 65 59 51 61 76 86 76 91 79 58 55 48
48 50 53 57 64 73 82 86 87 81 83 85 82 84 79 78 76 92 92 67 57 50 46 43 44 77 80 84 92 68 69 66 66 58 51 45 43 46 50 61 68 60 51
52 53 57 58 51 49 70 71 74 82 85 85 91 92 90 86 92 90 93 95 76 61 56 41 44 74 83 83 81 73 83 89 54 50 45 38 34 32 30 34 60 67 55
56 58 56 57 54 54 58 62 50 63 89 92 68 89 94 92 89 91 99 98 98 83 57 59 86 92 90 89 94 89 95 61 57 56 55 50 41 32 42 48 53 72 75
63 59 54 52 52 50 39 38 38 40 44 46 64 84 88 81 91 91 98 98 100 98 97 68 68 78 95 84 72 77 63 57 57 56 54 50 43 38 36 35 36 35 36
58 56 52 43 44 44 46 38 37 47 47 44 45 46 48 54 84 98 98 97 99 99 100 83 65 58 60 58 55 55 56 60 62 59 55 51 46 43 42 40 41 40 42
59 49 46 45 40 37 37 38 53 69 69 76 84 74 47 67 83 93 100 100 100 100 99 98 95 84 57 53 54 54 55 61 54 57 55 53 51 47 45 43 42 44 47
69 63 50 50 43 42 40 39 40 37 78 80 82 84 90 85 92 94 100 100 100 100 100 95 94 89 79 83 59 58 58 55 64 58 59 53 53 49 50 47 45 46 49
60 72 56 48 45 44 43 39 36 37 38 36 58 76 73 82 84 92 100 100 93 98 91 95 94 82 86 84 54 57 65 60 56 54 55 52 53 63 63 52 47 50 48
48 47 52 54 59 60 53 47 41 41 42 38 35 45 50 79 83 93 100 89 82 78 68 86 71 70 73 86 87 76 63 56 57 71 59 62 71 63 62 68 53 67 60
47 59 59 55 59 65 58 54 46 43 41 40 40 37 35 42 40 42 50 65 67 73 68 69 87 88 71 86 89 90 88 78 77 89 82 82 88 88 84 77 78 77 62
48 51 62 57 57 61 66 65 63 57 50 45 43 43 78 52 49 46 43 44 51 69 71 65 68 79 92 83 89 90 85 86 73 70 81 86 86 86 88 78 81 82 82
46 51 56 60 63 75 73 70 70 70 69 63 54 50 72 53 50 49 47 45 45 47 65 90 92 95 90 91 97 95 91 86 84 78 75 82 88 88 88 90 87 80 85
44 52 62 67 76 78 73 72 73 74 74 73 71 62 55 50 47 46 46 47 56 67 73 83 90 94 95 92 96 98 98 97 97 99 98 95 94 95 94 93 91 90 91
58 72 84 85 84 83 80 78 78 82 83 82 80 78 77 71 68 76 81 82 83 85 89 93 90 89 87 90 90 94 96 97 98 98 97 98 99 99 99 99 98 99 99
70 76 87 90 94 96 93 88 85 83 83 86 87 84 84 85 87 88 88 91 94 96 95 95 96 94 92 90 87 85 91 98 96 99 97 98 98 97 98 98 98 98 97
68 75 88 94 94 96 97 96 94 92 90 89 90 92 93 94 93 93 94 95 96 96 95 95 94 92 92 93 93 97 99 99 95 100 95 93 96 97 96 95 94 96 96

GFSGL_sfc_rhum_084.txt.gz
RH
64 66 67 68 68 72 71 70 71 70 78 89 83 85 75 74 77 82 80 74 77 81 78 78 80 80 75 71 73 71 68 70 76 71 71 70 74 74 68 71 72 73 65
59 66 66 68 67 67 72 70 72 75 72 73 78 75 77 74 78 79 75 67 78 80 76 76 74 59 81 82 77 79 76 77 77 83 78 73 71 71 79 76 68 46 60
56 56 59 62 63 65 70 69 72 74 75 67 71 77 77 73 75 77 80 76 73 76 73 76 76 76 80 76 83 80 74 71 77 80 78 75 72 66 70 73 77 77 58
88 92 62 62 62 62 71 74 69 73 74 74 73 73 72 73 71 71 76 79 77 71 75 74 74 75 79 82 76 83 76 80 78 79 76 74 70 66 73 76 75 70 67
87 89 95 94 74 69 75 74 75 71 71 74 74 72 72 66 55 70 71 73 76 74 75 76 70 72 75 79 70 82 83 80 78 75 74 74 73 79 76 73 74 78 73
89 89 90 90 92 90 82 77 77 76 76 75 74 74 73 54 62 75 71 66 74 78 77 74 74 76 79 81 80 79 81 88 88 85 79 78 83 81 80 84 84 82 80
85 82 85 87 90 90 90 88 86 84 82 78 76 76 75 74 77 79 81 65 70 79 79 75 69 47 71 70 83 81 80 85 85 81 85 85 86 85 87 89 87 87 83
87 79 80 84 87 87 90 91 91 94 91 89 81 80 78 71 84 81 82 75 69 70 70 75 77 72 70 75 76 77 78 75 79 76 82 76 76 75 82 79 85 84 80
63 74 80 82 86 88 87 92 94 95 94 90 86 84 83 81 87 89 89 86 68 73 68 70 70 71 80 81 72 76 78 76 75 86 85 82 82 80 78 83 80 78 72
59 63 65 68 72 74 85 89 94 94 94 94 87 89 85 82 89 91 92 73 73 67 72 74 77 75 81 82 82 79 78 72 68 67 76 85 90 85 89 84 74 79 75
57 58 63 66 71 70 74 80 84 86 92 86 87 90 89 89 84 96 94 89 73 70 67 64 59 80 82 84 88 70 71 70 72 74 67 64 63 69 74 79 77 74 73
64 64 67 69 60 56 74 75 75 78 84 86 85 82 89 90 98 99 100 100 97 95 88 75 74 93 91 89 84 77 82 85 66 66 67 66 63 59 54 54 72 74 67
69 72 70 67 65 68 73 72 65 69 64 73 69 70 71 72 86 100 100 100 100 94 96 90 98 98 98 96 91 89 94 73 68 68 68 66 64 61 64 66 64 81 81
71 71 66 65 65 64 55 49 51 48 51 56 58 58 56 68 94 95 95 95 96 99 99 98 93 96 99 95 91 78 82 72 70 69 68 66 65 66 64 61 57 51 55
65 63 61 52 57 59 56 52 51 59 51 50 53 52 54 55 68 88 90 88 97 99 100 98 97 85 85 81 75 71 75 76 75 71 70 71 70 68 66 62 58 60 68
62 57 57 55 52 50 52 51 56 68 69 74 76 68 52 67 75 80 91 100 100 100 99 98 97 96 96 93 94 91 88 78 69 73 76 80 80 71 67 65 69 62 63
61 61 53 55 52 54 54 53 53 51 60 64 71 78 82 76 82 85 87 90 100 100 99 97 97 96 95 95 96 96 93 86 82 85 88 83 70 70 69 66 64 63 67
59 64 48 47 48 52 54 56 56 58 57 51 55 78 73 87 86 85 84 96 70 89 86 84 87 85 83 84 94 95 92 81 91 89 89 82 85 89 87 86 80 73 74
49 45 48 48 50 54 54 57 54 54 55 53 50 54 55 76 79 73 89 69 63 64 65 72 69 72 79 91 94 94 93 94 98 94 95 88 87 86 86 86 83 99 96
48 58 56 50 51 54 53 56 57 59 59 59 58 56 50 52 52 55 58 61 67 61 59 66 69 71 84 93 93 88 90 88 91 91 90 92 90 89 89 88 88 90 90
42 42 55 46 49 52 59 62 64 67 64 61 59 60 79 68 63 58 56 56 56 54 54 56 64 70 88 97 97 97 96 93 92 92 93 92 94 92 91 90 90 90 91
40 45 50 54 55 58 59 63 64 68 68 68 63 63 77 65 61 62 60 56 54 55 52 68 82 86 86 92 97 98 98 98 97 98 98 95 94 92 92 91 91 92 92
42 49 54 59 64 71 65 62 64 70 73 72 70 70 69 69 68 65 63 63 65 70 73 77 78 76 73 78 88 95 98 98 98 98 98 98 98 98 94 93 92 92 92
44 51 60 63 71 77 74 75 76 81 79 77 76 74 76 79 78 77 74 72 73 73 75 78 79 82 86 87 86 90 93 95 98 98 98 98 98 98 98 98 98 96 95
43 52 60 69 80 87 85 83 81 86 87 84 81 79 79 80 83 83 80 80 82 85 85 87 91 92 93 93 91 88 91 96 95 97 97 97 98 98 98 98 98 98 98
49 60 62 68 83 90 91 91 92 91 93 93 92 89 88 88 88 90 91 92 92 92 93 95 95 94 93 93 92 94 98 99 97 100 96 95 97 98 99 99 98 99 98

GFSGL_sfc_rhum_087.txt.gz
RH
75 82 87 86 88 90 88 86 83 86 91 92 89 81 85 86 84 90 89 82 86 87 85 86 81 86 79 84 86 85 82 82 85 76 80 75 69 68 66 71 76 74 74
70 74 77 84 83 85 89 84 84 83 92 88 79 80 84 87 88 87 83 76 86 84 82 88 82 70 83 90 86 82 83 84 83 79 83 75 74 70 74 78 72 60 68
97 89 90 87 76 76 81 84 82 85 82 85 85 88 89 81 83 88 86 83 89 85 84 87 83 82 88 88 82 90 87 81 91 93 90 85 80 70 69 67 74 78 64
97 96 96 97 97 84 90 85 85 85 86 84 85 82 85 83 83 84 87 87 85 84 84 86 82 78 82 83 81 84 88 91 91 90 88 82 80 71 80 86 69 72 71
97 97 96 97 97 94 91 91 90 90 84 85 85 86 89 80 71 84 85 86 85 84 84 85 82 84 84 84 80 84 89 92 94 95 95 93 87 83 80 84 88 88 80
96 97 96 97 98 98 97 97 92 86 88 89 88 87 85 71 77 81 79 77 89 81 81 87 86 84 84 85 88 87 84 93 93 96 96 97 94 90 95 95 96 96 96
96 97 95 98 97 98 97 97 98 99 97 92 90 89 90 91 85 82 85 78 82 91 92 88 79 60 80 79 86 85 84 87 82 79 86 88 93 88 93 93 92 95 93
92 89 89 91 94 96 97 97 96 98 98 98 96 94 94 92 93 94 94 89 78 77 83 90 85 76 78 79 86 88 85 75 80 81 80 70 73 67 82 70 83 94 91
66 78 84 86 89 90 94 98 98 97 95 95 96 96 97 95 94 95 98 96 95 84 79 80 82 85 89 90 82 82 82 91 84 88 86 84 83 82 78 94 98 97 85
65 66 70 78 76 82 86 90 94 96 97 97 96 95 94 97 96 99 99 96 95 87 83 83 90 74 82 90 81 74 72 68 76 72 80 93 92 87 92 86 76 86 83
73 72 72 72 74 74 78 85 87 88 93 96 96 96 96 97 98 100 100 99 98 98 97 92 75 93 98 96 95 72 66 67 64 73 73 70 68 77 85 86 82 78 79
80 80 79 72 70 64 82 88 80 83 87 92 96 95 95 98 100 100 100 100 99 99 99 99 99 100 100 100 99 93 90 88 74 68 66 67 69 68 65 73 78 77 70
83 81 82 78 70 65 84 80 77 81 78 79 81 75 80 82 98 100 100 96 99 98 98 96 100 100 99 97 100 97 94 91 88 81 73 67 62 61 62 70 73 76 77
83 81 76 74 69 66 65 61 63 66 72 67 68 72 71 68 87 95 91 91 92 96 96 99 94 97 98 97 98 93 90 83 80 78 75 67 62 67 71 69 69 67 67
80 78 75 68 66 64 60 70 62 61 71 62 56 71 70 67 67 89 84 71 92 97 99 98 97 88 79 76 83 92 90 95 91 81 76 73 71 69 68 66 70 70 73
82 76 75 70 73 70 66 62 69 74 76 75 78 78 53 68 80 84 84 86 99 100 100 99 96 95 94 89 89 90 92 96 95 92 90 96 93 95 86 85 80 72 73
89 79 75 72 64 66 66 66 68 63 71 73 74 76 82 80 82 83 85 84 94 100 99 95 95 94 94 93 94 94 95 92 93 94 95 97 96 97 98 97 96 96 77
79 72 71 70 69 70 72 70 69 68 68 65 65 72 72 80 81 81 84 98 72 95 98 89 89 88 90 88 90 95 96 98 98 95 98 98 98 98 97 94 94 96 96
72 71 73 73 74 74 75 75 70 69 70 68 64 66 67 74 81 79 90 87 78 71 67 69 71 81 85 93 95 96 96 97 97 99 98 99 99 99 96 96 94 99 98
67 65 64 72 73 71 72 75 74 74 73 73 72 68 64 68 71 69 68 70 70 68 67 65 63 60 63 77 95 98 98 97 98 98 97 99 98 96 94 90 93 92 95
68 69 60 74 76 77 77 77 76 76 75 75 72 67 81 75 73 71 71 70 68 70 70 68 74 78 90 96 97 97 97 97 96 96 97 98 98 98 97 98 93 89 92
67 72 76 80 80 81 82 81 78 78 76 78 75 71 77 72 70 72 72 70 68 65 63 77 84 85 85 88 93 93 93 90 91 93 95 96 97 98 98 98 96 96 97
65 68 75 80 83 79 84 83 79 73 73 76 79 77 74 72 70 70 73 74 75 72 72 75 75 78 77 80 88 94 93 92 90 93 93 94 96 97 98 98 98 98 96
64 71 77 82 85 90 89 87 78 78 75 76 80 76 78 80 77 76 74 73 74 72 70 77 80 76 77 81 82 87 90 93 94 96 96 97 97 97 95 95 97 96 98
63 73 79 81 83 95 96 95 85 80 80 80 78 85 83 84 85 84 79 76 78 82 82 82 86 88 89 87 86 88 92 97 96 96 95 96 97 97 97 97 98 98 98
63 73 81 86 93 94 96 97 93 91 89 89 91 91 91 90 93 91 90 88 88 87 87 89 90 90 90 92 92 94 98 98 94 95 95 96 97 97 97 97 98 98 98

GFSGL_sfc_rhum_090.txt.gz
RH
93 92 91 95 92 92 94 93 86 89 90 91 89 88 88 89 91 92 91 88 87 90 88 90 88 86 88 88 93 89 87 89 85 79 87 75 74 72 72 72 70 72 78
98 93 87 93 95 93 88 90 89 88 88 87 90 88 87 89 91 93 88 83 87 87 87 89 90 77 84 90 95 88 91 90 89 91 89 82 80 74 75 71 66 63 77
97 97 96 95 95 90 91 91 91 87 88 89 82 80 81 82 87 92 92 86 89 90 86 87 86 88 90 92 90 88 93 87 95 96 93 93 85 78 74 75 76 74 64
97 97 97 99 98 97 96 94 95 93 88 90 91 87 87 88 85 85 90 93 88 87 91 90 88 87 85 83 86 88 87 91 94 96 96 94 92 86 85 86 84 84 83
97 98 99 98 98 98 97 96 93 96 94 93 92 91 91 88 78 88 90 92 91 89 89 91 87 87 88 88 83 89 90 93 96 96 97 96 96 95 90 90 96 96 94
98 98 98 98 98 98 98 99 98 98 95 96 93 92 93 80 90 89 91 90 92 91 88 86 85 87 87 90 92 91 90 91 93 97 96 96 94 95 96 96 96 96 90
97 98 98 98 98 98 97 98 97 99 98 98 96 94 94 94 95 91 92 92 89 90 94 91 85 69 86 83 88 91 92 92 87 85 87 88 90 91 93 92 92 96 94
95 95 98 97 97 96 96 97 97 98 98 98 98 98 98 96 99 97 96 96 89 83 86 93 94 88 86 84 86 86 86 86 86 82 79 69 78 72 80 70 80 92 94
72 78 84 85 90 92 96 98 97 98 98 98 98 98 97 96 100 100 99 97 98 96 89 85 84 86 92 94 90 88 88 86 86 91 88 87 87 87 90 95 97 98 87
81 82 77 75 81 88 86 88 95 92 94 96 97 96 95 96 100 100 100 99 99 98 96 95 98 89 92 97 94 85 85 74 72 80 86 93 96 91 93 86 82 93 93
83 81 80 73 70 72 77 78 85 77 86 91 94 96 96 96 97 100 100 96 99 99 99 98 97 100 100 100 100 98 89 80 82 79 78 79 84 83 84 90 87 83 85
82 80 80 80 72 65 68 72 75 74 79 73 70 94 98 97 100 100 100 100 98 95 94 98 99 100 100 100 100 100 100 98 94 89 84 78 73 70 69 81 84 82 74
83 84 82 77 69 66 68 61 59 60 60 58 60 64 64 68 92 99 95 89 88 96 95 85 100 100 99 96 97 98 99 99 98 97 90 83 75 68 64 73 84 81 81
88 84 80 81 77 74 65 65 63 65 65 64 62 64 60 56 80 88 93 92 90 93 92 95 89 94 97 98 98 93 98 96 94 91 86 79 74 75 73 68 70 70 76
84 82 83 79 82 81 76 76 68 71 75 70 66 72 68 66 63 80 86 72 90 96 99 96 95 81 78 79 80 78 75 91 99 99 98 97 98 95 76 89 82 78 81
89 85 85 82 80 78 79 75 72 75 80 84 85 85 64 79 88 86 86 85 90 98 96 95 91 93 91 87 90 91 93 94 91 88 96 99 99 98 97 98 98 97 90
88 84 78 77 78 84 84 85 81 73 72 76 78 79 82 86 86 84 83 89 93 99 96 91 92 91 91 92 96 97 98 95 95 98 98 98 97 97 99 99 99 99 99
82 77 82 82 82 84 86 86 81 80 79 75 72 79 79 79 80 81 82 80 75 87 95 90 85 81 84 85 89 96 97 98 98 97 99 99 98 99 98 98 98 98 98
77 81 81 82 84 78 82 82 80 79 79 77 74 74 74 80 81 82 82 78 78 75 73 74 71 69 66 79 85 95 97 98 99 98 97 97 97 99 98 97 97 100 99
80 67 73 84 85 86 85 84 84 83 83 81 79 77 74 75 76 74 72 73 76 75 73 72 74 86 91 93 97 97 96 94 96 97 95 96 96 96 96 97 97 97 96
78 79 70 83 87 89 91 92 93 88 87 85 83 77 82 82 80 78 76 73 73 73 73 74 75 74 76 92 94 94 95 94 93 93 94 92 94 96 96 94 95 94 96
78 80 80 82 86 87 92 92 94 94 87 79 72 69 77 72 77 79 77 75 72 70 69 74 80 81 82 84 95 96 94 93 91 92 93 91 88 90 92 94 95 95 94
78 80 83 86 88 83 92 93 95 94 88 72 72 69 70 72 70 72 78 78 77 76 69 70 76 76 74 79 87 90 95 94 89 92 92 92 94 89 91 92 90 96 96
75 80 84 87 91 94 96 97 97 91 89 84 72 73 74 77 78 76 76 76 78 78 75 74 72 73 73 72 72 75 80 87 92 92 92 95 97 94 95 94 94 92 94
76 83 88 88 91 95 96 97 97 97 95 80 79 79 83 83 86 85 83 82 82 83 82 83 84 83 79 80 76 77 83 95 94 93 92 94 94 96 96 96 96 95 96
71 79 85 92 95 96 97 97 97 98 97 82 85 87 87 88 91 93 91 91 92 92 93 89 88 87 87 88 88 93 99 99 96 97 95 94 96 95 96 97 96 97 97

GFSGL_sfc_rhum_093.txt.gz
RH
94 94 93 94 92 94 93 91 90 89 91 92 93 92 91 92 92 94 94 91 91 92 92 92 91 90 92 91 96 93 92 90 89 86 90 82 77 76 73 72 75 76 78
97 95 95 94 94 95 96 93 91 93 93 94 91 92 91 91 93 94 94 88 92 90 86 92 91 84 90 92 96 90 93 93 92 91 92 88 83 78 77 76 71 66 72
97 97 96 96 96 96 95 94 93 93 92 92 89 90 91 83 88 94 94 95 92 91 90 91 88 90 93 94 93 94 94 90 96 96 96 96 93 86 84 82 79 76 72
96 98 99 99 99 99 97 97 96 94 94 91 89 84 80 79 81 86 91 95 93 89 93 92 89 91 93 93 88 89 91 95 96 97 97 97 97 92 95 92 89 94 86
98 97 98 99 98 98 99 99 98 97 96 95 94 92 90 88 82 93 92 93 95 94 90 92 92 92 91 92 94 93 94 96 97 97 97 97 97 95 93 95 97 97 95
99 99 98 97 98 98 98 98 97 98 98 98 98 97 96 86 90 91 92 93 94 96 96 94 94 92 91 92 93 94 96 95 95 97 97 97 94 95 96 95 96 96 95
98 98 98 98 97 97 97 96 98 98 98 98 98 98 98 98 98 97 94 95 96 96 95 96 91 75 88 88 91 95 94 95 94 90 94 94 94 92 92 93 94 96 95
94 94 96 97 98 98 97 96 96 96 97 98 98 98 99 98 100 100 99 98 96 94 91 92 95 94 93 93 93 93 89 88 90 89 92 82 84 76 85 77 87 93 96
80 82 83 85 96 96 97 97 96 95 95 95 97 98 98 98 100 100 99 97 98 97 98 96 93 94 96 98 98 96 91 91 84 95 93 91 90 90 90 97 98 98 92
82 80 76 75 81 87 89 92 95 92 93 94 95 98 99 96 99 98 96 98 96 94 97 97 100 98 100 100 99 99 99 92 89 86 84 86 97 93 95 91 87 98 95
76 76 76 76 73 72 77 80 77 76 80 94 97 97 96 97 93 97 94 91 94 94 96 97 97 100 100 100 100 96 97 93 92 93 91 85 81 92 88 96 89 90 90
80 78 78 76 69 68 74 70 64 61 61 61 60 56 85 83 91 90 95 95 95 94 94 97 97 100 99 100 100 99 100 100 98 99 94 91 87 82 76 79 88 87 80
83 82 79 76 74 77 81 78 68 67 65 64 62 64 64 63 70 84 84 84 86 95 96 95 92 94 91 90 89 92 96 99 99 99 96 93 86 80 77 80 76 87 87
84 84 82 81 82 82 77 74 74 76 75 70 69 73 69 66 69 69 69 74 83 90 88 93 86 92 94 94 96 90 96 97 98 96 88 91 87 88 88 97 82 96 89
87 84 83 83 87 84 82 82 75 81 85 82 83 77 72 73 72 85 86 76 87 95 98 96 94 80 72 71 76 86 90 95 98 97 97 98 98 98 96 96 92 86 92
87 82 84 85 87 87 88 86 81 81 84 84 86 85 76 79 87 85 86 85 91 99 96 97 95 97 97 93 91 93 95 97 97 97 98 98 97 98 98 98 99 99 98
91 85 87 84 87 90 92 94 90 83 77 78 83 81 84 86 84 84 86 86 91 94 96 97 98 98 97 98 98 96 91 87 96 97 98 97 94 96 98 97 97 98 97
91 78 90 91 90 91 92 93 92 90 87 80 77 84 84 84 85 84 83 79 76 77 87 79 77 75 77 81 81 91 96 98 97 97 97 97 97 96 96 96 98 96 97
82 86 88 90 92 88 92 92 92 93 93 92 84 81 79 81 83 83 83 86 86 83 81 81 78 78 80 89 87 93 93 95 98 98 96 96 95 96 97 96 94 97 100
83 73 78 87 89 91 92 93 94 95 94 94 90 88 82 80 83 85 82 81 81 80 78 78 76 76 77 80 90 91 94 91 91 95 93 91 92 95 94 93 93 94 96
86 84 75 87 89 91 93 94 96 96 97 94 92 80 81 82 83 80 80 81 82 82 80 79 79 77 75 83 87 90 89 87 89 91 94 91 94 97 93 92 93 92 94
82 85 85 86 89 89 94 95 96 96 95 94 90 81 80 82 79 78 75 72 70 71 77 82 84 81 76 72 74 82 90 87 87 86 88 88 84 89 86 86 87 89 89
81 83 86 89 89 85 93 94 96 96 96 96 93 84 79 80 81 80 78 74 74 73 72 74 78 79 75 74 69 72 81 83 78 81 83 84 82 83 82 86 86 88 90
79 82 84 88 92 95 96 96 96 94 96 97 95 89 91 78 77 79 80 78 76 76 76 76 75 77 78 78 78 76 76 76 80 81 83 88 87 85 80 83 85 85 86
74 82 89 90 93 96 96 97 97 97 97 97 96 87 78 79 80 80 77 76 77 83 84 83 86 86 86 86 86 85 83 91 96 95 95 94 93 92 90 88 86 88 87
74 77 81 90 96 96 97 97 98 98 98 98 97 91 87 88 88 88 86 86 86 86 89 89 90 90 92 91 92 94 95 96 94 93 92 90 92 92 91 93 92 91 89

GFSGL_sfc_rhum_096.txt.gz
RH
87 92 92 90 90 91 90 89 89 89 92 93 92 94 92 90 89 92 92 89 88 88 87 89 87 86 81 80 82 85 80 79 75 74 76 75 78 77 72 71 67 68 64
93 94 93 93 92 93 95 90 89 90 91 94 91 92 90 88 90 91 90 87 92 89 85 88 88 77 86 88 84 88 84 85 81 87 82 77 79 77 78 81 67 56 65
96 96 97 96 95 94 94 93 92 92 92 91 92 92 94 87 88 89 92 91 91 90 91 89 89 84 88 84 85 83 81 80 86 86 82 82 80 76 78 78 78 79 61
97 97 98 99 97 97 98 96 96 94 93 93 93 89 89 88 85 81 85 90 90 86 89 89 89 87 91 91 89 93 82 84 87 87 85 83 82 80 82 79 74 74 72
97 97 98 98 98 96 97 97 96 96 96 96 93 89 86 81 72 86 85 85 89 88 86 88 87 89 93 95 92 91 90 86 85 89 89 88 82 78 80 76 82 77 77
97 99 98 97 96 96 97 97 96 95 96 96 96 97 96 94 93 94 92 90 89 89 92 89 87 92 90 94 95 96 97 92 92 89 86 89 89 84 84 81 84 84 80
98 98 98 98 97 96 95 95 96 96 95 96 96 95 97 98 100 100 98 95 94 93 93 92 83 72 87 84 92 95 96 96 97 87 89 87 87 83 85 87 87 87 83
92 92 96 97 98 97 96 95 94 94 95 95 94 97 97 97 99 100 99 96 94 94 93 93 92 92 95 95 92 87 84 83 85 83 87 85 84 84 86 81 86 88 83
76 88 81 84 92 92 95 96 96 95 96 96 95 98 93 94 94 96 96 96 94 92 93 98 96 98 99 99 90 93 91 86 82 93 96 97 96 95 92 82 83 90 78
79 76 81 80 84 89 88 94 94 94 96 98 96 95 97 95 88 92 96 96 94 96 91 91 100 95 100 100 91 94 91 92 87 82 80 85 90 86 95 88 78 83 78
70 73 75 77 78 80 78 77 77 69 74 92 90 92 89 90 89 86 88 92 96 94 93 93 90 99 99 100 100 93 80 82 83 80 76 75 77 78 76 81 84 79 78
78 78 80 80 71 71 81 74 74 76 76 75 74 69 76 78 80 79 82 86 86 91 90 94 92 91 94 97 98 96 99 99 88 85 76 74 73 72 76 75 83 84 78
81 82 80 79 78 79 77 76 71 76 73 73 70 71 70 66 65 74 76 79 82 91 89 84 89 92 88 82 84 91 93 94 94 84 84 89 87 78 83 84 82 86 87
83 82 79 78 78 76 70 71 72 72 73 70 71 72 72 66 66 67 67 67 71 83 87 84 82 85 90 82 78 76 78 82 86 85 83 83 83 81 82 94 87 92 83
78 76 77 76 76 76 77 76 72 78 74 71 74 72 68 70 68 82 82 72 76 90 98 91 88 72 72 72 72 74 76 78 84 91 90 92 94 89 82 89 90 91 92
74 74 75 76 75 74 70 67 80 83 83 84 88 77 69 80 86 87 87 88 93 99 94 94 83 86 73 73 71 74 74 80 79 84 83 93 95 94 95 94 95 97 97
79 78 76 73 72 72 73 68 64 68 80 82 86 86 85 87 88 87 87 88 84 83 85 76 83 78 71 75 84 85 85 77 88 85 92 94 95 94 95 96 96 96 94
81 78 73 72 70 72 70 70 69 68 67 69 78 80 84 86 86 86 86 79 65 67 65 67 66 66 67 72 70 68 72 76 86 87 87 86 89 89 89 91 93 95 94
73 72 74 73 73 72 71 70 68 68 69 70 68 73 76 83 84 84 83 70 71 68 67 66 65 64 65 66 68 79 86 85 88 89 86 79 78 83 83 82 83 87 90
72 74 74 73 72 72 70 69 68 69 69 70 68 69 68 68 67 69 68 70 68 69 71 75 72 71 70 70 75 70 79 75 75 79 80 78 78 84 86 81 81 84 84
73 70 74 72 72 72 72 72 71 69 69 69 69 69 82 70 70 69 68 67 68 67 66 67 70 73 72 71 71 74 67 69 70 78 78 80 87 87 87 84 86 83 86
73 75 74 72 74 76 75 75 74 72 70 70 69 70 81 69 70 71 71 70 68 67 65 70 71 68 68 73 73 74 78 78 76 76 78 79 78 79 76 76 77 78 82
68 70 71 73 74 76 78 77 77 75 72 71 71 69 68 70 70 70 71 69 70 70 68 69 71 69 68 71 71 75 76 79 79 84 85 83 82 82 83 84 82 80 78
66 69 72 72 76 74 76 77 79 84 77 73 72 70 71 71 71 72 73 73 71 72 70 72 72 72 73 75 75 73 74 76 83 86 86 89 91 90 91 89 87 84 82
64 67 71 73 76 80 80 80 79 79 79 76 74 72 70 71 73 72 71 72 75 78 77 77 76 82 83 86 85 84 86 92 92 92 95 92 94 90 87 85 84 83 82
66 67 67 69 81 84 86 85 86 85 84 79 76 76 75 76 76 78 76 77 82 83 84 81 85 87 84 89 88 89 94 97 96 98 96 95 95 95 94 93 91 90 89

GFSGL_sfc_rhum_099.txt.gz
RH
66 70 74 67 68 72 73 73 73 75 76 75 78 74 71 71 74 80 80 71 77 75 74 74 74 73 56 53 55 57 57 57 54 44 51 51 64 61 56 55 48 50 41
69 81 68 73 74 73 74 72 72 74 74 76 76 75 74 76 74 75 74 71 76 73 69 75 74 60 74 71 58 72 62 65 60 71 61 55 64 66 66 68 50 40 48
82 80 79 75 77 71 73 71 74 77 78 71 74 77 78 72 72 73 77 71 71 71 70 73 67 73 81 66 72 84 56 60 65 64 61 56 60 56 61 60 62 63 44
90 92 88 87 85 81 80 84 78 78 78 76 76 77 75 78 73 68 68 71 74 67 67 69 70 72 78 76 66 77 66 77 69 64 56 56 57 60 61 58 54 46 48
98 98 97 94 92 85 84 85 87 84 81 81 81 77 74 68 60 68 69 67 68 71 69 67 66 76 87 88 86 87 79 76 80 56 56 54 54 52 59 54 54 50 53
97 98 96 96 94 87 84 85 84 83 81 80 80 83 85 79 99 99 91 74 72 74 74 73 68 85 80 99 97 97 93 91 86 65 56 60 76 67 57 57 58 58 59
96 96 96 98 96 94 84 84 85 82 79 80 79 79 88 91 98 99 99 84 85 79 79 81 76 65 81 76 82 93 94 97 96 87 80 74 75 71 73 77 71 68 64
94 96 96 97 96 95 86 82 83 79 78 78 82 83 79 73 94 94 99 85 85 86 88 90 90 92 86 80 78 74 72 72 74 65 73 74 74 72 77 75 80 80 68
82 86 84 81 91 91 92 87 81 82 78 83 85 80 77 77 90 96 86 85 85 88 84 80 79 77 97 98 74 76 73 72 75 91 93 94 94 95 90 70 66 69 60
72 72 74 75 74 86 82 82 79 83 94 93 84 80 85 76 86 88 88 73 80 93 76 78 93 78 92 97 73 67 64 60 60 59 58 62 70 68 95 82 67 70 66
61 64 69 69 71 71 74 76 79 82 81 84 82 82 77 85 84 83 86 77 85 69 71 57 59 89 91 94 98 64 68 76 67 56 49 45 45 46 45 52 66 72 70
65 69 71 72 57 63 72 71 75 74 78 72 71 62 62 67 76 78 80 82 85 74 74 69 73 91 90 90 72 92 93 89 53 52 49 50 54 52 53 56 68 67 72
67 69 69 68 66 68 69 70 57 66 60 66 62 60 60 55 55 72 72 74 75 65 58 74 86 83 79 66 83 87 80 51 52 54 61 62 65 71 77 73 75 72 71
68 68 64 62 65 61 52 52 53 53 53 52 57 61 58 54 52 50 49 55 66 61 74 57 72 76 83 70 56 54 50 53 56 54 58 73 73 71 66 67 80 83 71
61 58 57 54 58 62 62 56 53 61 58 52 52 49 46 50 56 78 78 63 54 69 76 53 53 50 46 46 47 50 51 53 56 71 75 70 58 65 66 63 68 79 81
54 50 47 46 47 47 51 54 82 82 87 86 84 67 54 78 86 88 90 89 86 88 55 50 52 53 52 56 55 52 51 53 51 52 50 53 57 60 65 57 55 68 80
54 56 48 46 41 44 43 42 46 63 82 86 85 84 84 88 87 88 90 87 77 62 46 51 53 54 54 53 50 48 50 51 61 50 52 52 49 50 52 51 51 57 62
56 68 42 39 38 40 39 40 36 38 40 45 74 72 82 85 86 85 83 71 41 46 41 44 45 46 47 50 51 50 52 50 51 54 52 52 52 54 58 65 71 71 68
47 40 40 41 41 43 41 39 36 38 40 41 41 57 63 80 81 77 72 45 44 43 44 45 47 48 50 51 51 52 53 50 53 51 50 50 51 53 55 53 53 73 77
47 54 48 42 43 41 40 38 39 39 39 40 40 42 43 47 43 45 48 48 46 45 46 48 49 50 52 56 55 53 52 50 50 48 49 50 50 52 56 60 60 64 65
39 47 50 42 41 40 40 40 39 37 38 38 40 54 82 45 46 47 47 48 48 48 50 51 54 53 53 55 57 55 51 51 53 54 54 54 54 55 60 64 63 68 66
40 44 47 44 44 48 43 42 41 40 40 39 38 49 78 42 44 47 49 49 49 52 50 55 54 52 51 57 63 63 65 63 63 63 66 65 63 61 60 62 60 62 66
38 40 44 45 48 58 55 49 46 44 42 42 41 38 39 41 42 44 47 47 49 50 52 54 58 53 53 62 66 68 70 70 74 79 82 80 78 78 77 77 70 67 68
41 43 43 44 49 48 49 52 53 66 52 48 46 43 44 45 44 49 48 48 50 51 54 61 65 64 66 69 70 66 66 69 74 78 81 87 91 89 89 91 88 87 83
40 43 45 46 49 50 49 48 49 51 53 54 51 47 45 47 48 49 48 48 49 52 55 62 65 69 74 78 72 70 74 89 84 88 85 84 91 93 90 86 86 87 89
44 44 44 43 46 47 48 49 51 51 51 51 52 53 50 48 48 50 52 53 54 53 60 61 69 77 80 78 76 82 92 95 88 95 87 87 92 92 91 93 92 92 92

GFSGL_sfc_rhum_102.txt.gz
RH
52 52 53 52 51 57 53 52 56 57 65 62 69 62 63 62 60 64 64 56 62 59 58 59 61 64 45 36 36 37 38 38 41 33 32 35 54 53 49 48 40 37 30
51 56 63 50 53 49 55 53 57 58 63 61 61 68 61 56 63 64 58 50 60 58 56 58 58 46 63 60 44 56 49 51 46 61 52 41 48 52 52 58 41 31 35
58 56 71 55 51 53 54 54 60 58 58 53 63 61 56 58 65 63 60 58 56 55 54 56 57 55 62 53 58 50 42 43 49 46 47 37 38 40 47 50 48 47 30
70 66 58 56 52 52 56 61 57 65 62 56 56 59 57 56 58 62 60 60 58 53 55 53 55 56 60 62 56 66 55 57 52 48 43 39 36 42 41 37 35 32 33
81 84 81 75 73 67 64 66 63 63 59 67 59 59 61 55 46 60 59 61 60 58 58 54 52 64 89 84 71 74 68 61 46 44 42 38 36 49 50 38 38 36 42
94 97 96 97 91 79 80 72 71 70 68 69 68 64 63 49 96 98 89 58 61 61 60 59 55 76 74 96 94 97 90 87 74 65 50 49 64 58 44 43 47 47 50
93 96 97 96 94 95 87 80 76 74 71 71 67 72 76 74 95 96 97 68 68 59 63 62 57 53 74 65 77 87 93 96 96 83 76 68 72 75 79 76 78 64 58
90 92 87 92 94 96 95 93 89 77 71 68 76 72 70 69 92 95 97 73 84 88 85 86 82 76 75 74 65 62 62 63 77 65 72 72 74 72 78 77 80 77 62
93 94 90 93 96 97 98 91 87 86 71 79 71 71 70 71 88 92 83 81 79 79 68 65 64 58 90 91 60 62 62 59 61 89 88 86 85 88 86 64 58 83 60
81 80 79 80 81 80 77 82 84 85 90 75 65 68 78 70 83 86 76 51 64 56 60 63 85 74 90 92 60 55 57 52 49 50 49 54 69 56 88 72 62 90 91
74 65 69 75 75 71 73 73 86 85 81 76 70 77 75 79 68 80 82 58 50 44 44 43 45 88 90 89 93 59 61 70 57 45 39 36 39 40 38 47 57 54 53
66 63 65 61 50 60 77 76 79 78 79 76 71 59 56 60 72 72 75 78 79 69 67 63 62 88 88 85 63 89 88 84 33 34 36 40 42 44 44 50 62 63 61
62 64 63 61 60 64 70 74 68 66 58 57 50 48 51 45 48 70 71 70 71 69 63 81 85 83 80 74 78 78 75 38 36 34 37 42 50 49 56 55 58 63 60
62 63 60 58 59 54 44 45 46 46 46 46 47 46 43 46 43 48 42 41 60 48 61 46 57 72 78 62 45 44 38 42 44 45 47 44 39 38 40 40 41 39 42
52 50 50 45 50 56 55 50 45 57 58 44 42 39 40 38 46 72 71 50 50 65 73 41 37 38 39 39 37 39 39 37 37 36 35 34 34 35 36 37 37 36 38
46 40 36 37 38 40 44 48 84 79 82 85 86 63 46 75 82 88 88 84 80 82 43 37 44 42 42 40 45 44 41 45 42 39 36 36 37 38 39 37 35 38 42
48 48 34 37 32 38 37 36 41 60 81 82 83 84 82 84 83 86 84 82 75 62 31 34 34 37 39 39 37 38 40 44 56 44 44 42 40 39 39 37 37 39 40
49 67 34 31 29 30 32 30 29 33 34 40 72 63 80 81 79 80 79 76 33 35 29 33 34 36 37 38 38 37 38 37 38 41 41 41 43 43 43 42 40 45 45
46 35 32 29 29 32 29 28 25 27 29 31 37 63 66 76 78 74 70 32 31 30 31 33 34 35 38 39 41 41 44 40 41 40 38 38 40 40 42 42 43 59 58
46 50 43 29 31 30 29 27 27 28 29 29 28 28 30 47 34 35 37 37 34 32 34 36 38 39 42 45 44 44 41 40 40 40 41 41 41 42 41 42 42 43 44
38 38 46 30 29 28 28 28 27 26 26 27 29 41 82 35 31 33 33 36 35 35 39 40 42 42 42 44 46 46 42 42 43 45 45 45 47 47 47 46 45 45 45
30 34 35 33 30 33 30 29 28 28 28 28 28 40 71 35 30 32 35 35 36 39 37 43 41 40 39 44 48 46 46 45 46 50 53 55 54 52 51 51 51 50 50
28 28 31 32 34 45 36 31 29 30 30 29 27 26 28 28 30 31 34 33 36 36 37 38 39 36 37 43 45 46 48 50 58 62 67 70 71 68 65 65 63 66 66
30 29 31 31 34 34 33 35 35 50 35 34 32 30 31 32 32 37 36 34 36 36 37 40 40 43 44 47 47 48 49 57 64 67 72 76 79 80 77 78 75 76 75
37 31 32 34 34 37 35 34 35 36 37 37 36 33 33 34 35 37 36 37 37 37 39 40 41 44 50 54 57 58 71 88 78 83 74 71 69 68 66 66 69 72 77
55 44 34 33 33 34 36 36 38 38 37 37 36 36 35 35 35 36 38 40 42 40 42 40 42 54 58 53 54 75 90 92 77 94 77 74 71 69 69 74 77 77 78

GFSGL_sfc_rhum_105.txt.gz
RH
46 48 47 46 45 49 48 51 53 54 57 55 61 59 59 56 57 65 67 67 58 59 56 56 55 60 47 40 39 35 33 34 38 36 35 38 58 53 46 47 42 45 34
59 51 52 47 46 43 49 47 51 57 60 59 58 58 56 56 59 62 63 47 54 55 54 57 55 42 57 64 45 62 49 55 44 68 53 42 53 46 46 58 39 29 34
50 48 59 51 48 47 46 47 51 56 57 53 57 60 59 54 55 60 61 54 52 50 50 53 54 55 60 54 60 54 44 48 71 50 48 36 37 40 45 52 54 50 28
80 76 75 58 49 48 64 50 49 56 58 56 58 60 55 53 52 54 56 59 55 50 52 67 59 56 58 61 56 66 58 60 52 52 70 47 42 62 56 39 37 32 34
88 86 84 76 62 60 61 63 52 53 55 58 56 65 53 47 44 63 55 58 59 56 50 51 52 72 82 85 59 68 71 65 50 52 49 40 50 50 50 40 40 39 46
85 83 87 82 73 76 71 66 69 61 59 58 59 60 61 53 95 96 91 58 61 65 63 52 50 65 76 90 92 92 90 79 76 62 57 54 72 61 54 53 58 56 60
86 88 86 85 84 93 91 82 80 76 70 72 70 71 76 77 93 95 96 68 62 67 64 65 63 63 69 63 84 90 94 94 96 84 81 80 83 85 82 87 84 83 67
77 78 82 93 93 91 92 96 94 92 79 83 78 74 70 69 88 91 94 74 76 78 75 75 73 70 67 66 66 58 59 63 80 66 75 71 70 68 72 70 79 80 68
80 78 79 77 89 96 94 90 90 92 91 91 79 71 70 71 85 87 90 73 77 75 70 66 62 59 88 86 64 61 60 56 58 78 78 77 78 80 78 59 54 90 90
93 89 89 83 94 94 94 96 84 90 94 91 75 69 79 66 79 82 85 53 67 57 60 63 86 72 88 88 68 57 57 50 48 52 52 59 78 67 82 73 64 67 72
89 80 80 80 85 86 81 81 85 83 83 79 70 70 70 70 65 78 80 66 60 48 45 44 47 85 87 86 88 60 60 68 61 51 38 36 42 47 52 56 64 55 54
89 84 78 77 68 72 81 86 85 83 82 79 76 61 56 57 72 72 79 79 77 50 55 52 60 84 84 83 72 78 80 77 37 31 30 35 43 42 40 47 73 63 51
88 84 77 64 64 70 74 80 77 82 77 71 58 51 49 47 48 66 66 66 68 54 45 66 78 79 76 78 82 71 75 38 41 51 44 42 37 36 53 50 50 61 57
79 78 66 62 60 58 53 58 57 51 50 49 49 48 46 46 41 40 39 40 57 54 65 59 52 64 72 62 51 47 39 36 38 36 36 33 32 31 32 36 35 33 34
76 68 62 50 50 59 55 54 47 57 60 50 43 40 44 40 47 69 69 41 38 54 69 40 47 52 43 43 47 46 41 40 41 38 37 36 34 35 36 37 36 35 38
70 64 58 37 39 38 44 47 80 78 84 86 84 63 44 72 78 84 85 85 85 78 45 34 35 36 36 40 40 43 42 52 48 48 46 42 42 40 40 36 35 37 40
64 65 52 41 30 37 36 37 39 55 79 81 82 81 77 78 80 80 78 82 77 71 31 32 33 35 35 35 33 35 38 40 54 40 43 46 38 40 45 43 44 41 41
62 64 39 31 27 28 30 30 28 31 32 34 69 62 75 76 76 74 74 72 34 36 27 31 32 34 35 36 36 36 36 36 36 39 39 39 40 40 39 40 39 43 43
43 29 30 27 28 31 27 27 23 25 28 31 35 59 63 74 77 80 79 35 27 26 27 29 31 32 36 38 40 40 42 39 40 40 39 39 40 40 42 41 41 53 52
45 50 43 30 29 30 26 27 24 26 26 26 27 26 33 47 39 34 35 34 30 28 31 33 36 38 41 44 43 42 39 39 40 39 41 42 42 43 43 43 42 43 43
39 38 49 32 30 27 26 28 27 26 28 28 25 39 79 41 28 29 29 33 31 32 36 37 40 40 40 42 44 42 38 38 40 43 44 44 47 47 46 46 45 45 44
36 35 36 34 32 35 31 29 28 29 28 34 26 31 70 40 26 29 32 31 32 36 33 41 37 36 36 41 43 40 38 39 42 46 48 48 49 49 49 49 50 50 49
30 29 32 33 35 42 36 32 29 28 27 28 27 28 26 29 26 28 31 30 32 32 34 34 35 30 32 36 37 38 38 42 46 50 53 53 53 53 56 61 64 63 60
31 30 31 30 32 30 31 33 31 41 32 29 30 28 28 28 28 31 31 31 33 32 33 35 35 36 39 39 37 36 37 45 52 51 57 61 66 69 65 65 65 64 66
35 32 31 35 32 32 32 29 29 30 32 33 31 30 29 30 30 32 32 33 34 34 35 36 36 36 40 42 45 47 80 86 66 79 60 64 65 70 67 65 67 70 72
40 39 36 37 39 39 34 32 32 32 32 32 32 32 32 31 31 32 34 35 36 37 38 37 38 40 45 44 45 73 80 85 70 94 69 59 65 72 75 80 82 84 85

GFSGL_sfc_rhum_111.txt.gz
RH
82 73 81 83 79 90 92 96 95 90 95 97 95 92 80 78 81 84 84 80 82 82 83 81 79 82 87 84 90 88 80 79 84 78 78 73 70 68 68 71 72 68 60
78 72 89 79 79 81 83 86 82 91 95 94 87 90 82 81 84 90 84 84 83 84 81 79 78 70 82 88 88 90 87 89 89 88 84 78 74 75 72 79 63 54 64
68 76 75 69 72 73 74 76 86 88 93 90 88 87 86 86 83 82 87 84 85 84 75 78 77 78 84 81 87 90 86 91 88 93 94 82 82 84 76 71 75 79 60
90 87 89 89 75 71 71 66 76 81 87 89 89 87 88 89 91 87 87 87 84 79 81 78 75 68 87 85 88 88 91 94 94 96 97 94 92 89 94 95 88 79 79
94 93 88 84 90 85 82 76 75 88 84 84 87 88 97 96 89 99 96 95 85 83 85 87 86 90 86 88 85 93 93 96 97 97 97 97 97 98 98 98 97 96 76
97 96 93 92 87 92 95 92 92 90 88 83 84 90 96 82 94 95 97 96 92 84 90 91 92 88 90 92 91 92 96 92 94 98 98 98 97 98 98 94 98 98 99
98 96 94 89 88 90 91 92 94 95 94 93 98 95 94 91 86 87 88 96 95 93 95 96 87 67 78 82 87 89 88 94 97 97 97 97 96 91 91 91 94 96 96
96 92 92 97 95 94 93 93 95 98 97 98 97 96 90 69 84 86 87 94 97 95 96 93 88 83 82 84 86 77 82 63 62 67 85 82 78 76 84 86 88 96 94
96 96 96 96 96 97 98 97 97 98 98 98 96 91 70 60 83 87 95 96 95 90 90 82 77 76 84 90 75 69 63 59 56 71 77 82 87 88 81 79 89 96 93
96 95 94 96 98 98 98 98 99 98 98 96 92 76 75 55 77 84 88 97 91 77 71 70 83 75 85 85 82 66 58 63 68 68 68 57 72 85 80 89 86 92 93
97 96 96 95 94 97 97 98 95 88 85 83 74 67 64 62 59 78 79 76 94 78 78 72 69 82 82 83 84 67 68 76 71 67 56 57 54 53 57 55 78 72 73
96 95 93 91 91 94 94 93 93 85 90 90 84 70 64 54 70 75 77 75 77 64 69 66 62 80 81 83 77 84 75 67 62 54 56 59 58 62 52 56 64 57 72
96 97 99 94 90 89 90 89 89 86 85 84 76 72 78 73 60 75 71 72 77 65 65 66 77 79 78 75 78 76 70 61 65 64 72 69 68 65 54 55 51 55 64
95 97 97 92 81 60 58 62 59 59 63 64 82 70 79 79 68 63 64 73 74 68 74 68 71 74 74 74 72 70 67 70 66 66 70 64 61 48 51 60 62 54 64
90 86 94 96 91 66 73 87 58 66 67 60 62 62 78 67 61 73 70 64 70 75 74 84 69 73 70 69 71 70 70 68 67 69 68 69 68 58 62 67 64 65 64
81 76 88 96 92 76 76 84 78 76 78 82 84 59 59 73 74 80 81 82 82 82 78 84 66 76 67 69 73 74 74 65 74 71 74 69 70 69 68 65 64 63 63
65 74 73 84 81 77 69 66 61 65 78 80 80 78 78 69 72 76 78 80 76 75 68 79 69 72 73 72 73 76 75 78 69 72 73 66 64 65 63 61 63 66 61
75 70 51 59 63 74 70 67 60 57 57 53 68 64 68 70 73 76 78 75 68 69 71 69 68 69 71 74 71 75 71 71 73 75 74 70 68 68 67 68 71 73 71
61 56 55 67 51 54 57 58 60 54 57 51 45 58 64 71 76 77 81 67 70 73 64 67 71 72 75 76 75 78 70 74 78 74 75 75 74 76 75 75 75 73 72
72 58 55 57 52 49 57 51 53 56 63 56 56 54 53 58 60 68 70 75 74 70 69 72 76 75 77 78 72 71 73 75 75 76 77 76 77 77 77 77 78 80 81
68 64 61 60 60 52 59 63 50 50 56 72 67 54 63 59 61 59 60 62 69 67 69 71 76 78 77 72 72 70 73 75 75 77 77 78 78 80 81 81 82 82 83
68 65 64 58 59 60 54 62 60 56 54 66 55 54 68 50 58 58 63 57 59 63 63 67 70 74 70 66 67 66 72 76 76 76 77 78 79 82 83 84 84 84 83
67 61 61 58 58 62 60 57 59 56 49 52 56 42 38 44 54 58 59 61 61 62 60 63 63 66 62 64 62 62 70 74 75 77 78 79 79 80 82 85 87 89 90
60 63 63 63 62 58 59 64 60 60 59 58 62 51 47 45 46 54 62 61 61 65 60 59 64 68 65 66 64 70 70 71 70 75 76 81 83 82 82 85 90 91 81
67 68 62 61 58 55 60 62 62 59 56 57 58 59 60 59 60 66 63 62 61 65 62 62 64 58 58 56 63 64 76 75 72 77 76 78 78 78 83 86 82 82 82
82 76 69 67 68 62 59 64 59 58 56 53 54 61 64 61 62 69 66 68 69 68 68 69 65 65 62 62 65 74 86 83 76 80 79 81 82 82 85 80 80 83 85

GFSGL_sfc_rhum_114.txt.gz
RH
86 90 85 92 93 93 93 94 92 87 89 86 92 91 91 88 86 92 91 85 82 88 88 87 80 86 91 93 92 95 93 93 89 84 92 81 79 84 73 81 74 69 72
83 79 89 86 90 90 89 92 96 92 92 93 95 94 91 90 89 92 89 87 87 87 83 87 83 76 85 91 93 91 92 93 90 89 92 86 86 83 85 83 74 66 77
81 87 80 82 88 87 86 93 91 92 91 93 94 92 93 91 93 94 93 93 90 88 90 85 83 84 88 88 92 92 92 97 95 96 96 94 90 93 92 89 88 92 73
95 94 91 91 86 80 79 87 86 82 87 96 96 95 94 94 93 96 98 94 89 91 91 87 86 82 89 90 89 93 94 96 96 97 97 97 96 94 97 98 90 92 92
93 96 97 95 93 93 94 92 93 93 92 93 92 97 97 96 96 99 98 96 94 90 92 91 97 96 96 96 96 94 93 95 97 97 97 98 98 98 98 98 97 98 93
94 97 97 97 96 94 93 92 94 97 96 93 96 96 95 78 87 94 95 98 95 93 96 94 90 91 91 91 93 96 97 94 95 98 99 99 97 98 97 96 98 98 98
97 97 97 93 94 94 96 95 95 97 98 99 98 96 96 90 84 86 86 95 96 97 97 96 73 67 80 87 93 84 82 91 99 97 96 94 94 89 91 91 91 97 98
96 97 97 98 97 96 93 94 95 98 98 99 98 96 91 90 86 89 90 96 98 97 93 88 85 86 90 87 79 77 67 56 61 63 80 79 82 82 84 82 89 95 93
97 97 96 98 98 98 97 96 98 99 99 99 98 95 87 71 85 93 97 96 94 92 88 76 71 74 87 82 55 48 51 61 64 81 83 89 91 88 86 83 89 80 85
99 99 98 98 99 98 98 99 98 96 98 96 91 69 67 61 81 89 99 97 92 77 69 72 83 76 86 87 62 59 64 69 74 61 55 57 64 62 70 73 81 74 92
99 99 99 98 99 98 98 99 98 93 87 82 71 66 58 55 57 82 90 94 94 73 62 58 64 82 83 84 76 68 64 73 68 64 60 60 58 55 58 61 70 71 80
99 99 99 99 98 99 98 97 91 85 89 82 71 58 52 52 68 75 85 87 87 84 85 65 67 88 87 82 73 81 79 72 67 65 66 70 66 63 64 64 66 64 58
97 98 98 96 96 96 98 96 93 91 92 85 79 76 71 63 61 80 84 83 80 64 55 70 84 83 81 77 81 77 73 70 72 68 74 72 71 64 63 65 62 69 56
97 96 96 97 97 97 97 92 76 69 73 83 81 74 69 63 58 60 60 61 68 61 71 67 76 77 79 74 68 71 69 68 68 71 74 75 70 68 67 69 64 68 61
96 94 94 96 96 96 96 97 95 86 71 60 63 66 69 60 51 68 63 56 61 68 75 82 77 72 71 74 75 73 75 77 75 76 75 73 70 60 60 59 62 64 64
83 88 93 94 90 76 72 75 80 82 82 83 80 59 57 73 74 79 80 80 80 80 74 74 74 72 72 76 77 76 75 78 82 76 74 73 70 72 69 66 67 73 72
64 66 81 92 84 74 68 55 62 75 78 78 80 79 67 67 75 77 79 80 82 74 73 84 78 77 84 83 77 73 78 78 76 74 74 71 69 69 72 72 71 73 73
62 71 60 66 79 76 75 68 57 51 49 47 68 66 78 78 80 78 80 71 72 73 77 77 77 77 78 75 73 73 76 77 78 77 74 76 78 75 74 78 80 82 82
57 59 65 62 61 67 67 62 66 56 65 58 48 57 65 72 74 77 75 55 62 76 76 74 72 74 80 80 80 78 82 80 80 79 80 81 82 81 83 85 83 79 80
70 60 60 65 58 59 61 60 61 67 60 50 46 40 51 57 52 59 67 71 75 75 70 68 72 75 77 77 82 83 80 78 81 81 83 82 83 85 87 86 86 87 88
80 74 62 61 60 66 63 63 65 63 69 71 63 62 67 51 62 64 71 74 76 76 74 69 79 81 78 77 80 83 77 74 75 82 83 84 85 87 88 88 87 87 88
85 76 70 65 62 62 62 64 60 64 69 68 66 65 78 63 66 62 71 70 73 72 73 76 78 72 70 70 74 72 73 76 77 78 82 83 87 83 84 88 88 92 92
85 75 71 67 65 66 65 64 61 62 64 69 61 52 50 49 53 66 71 67 70 69 68 72 75 72 68 67 69 69 70 73 73 75 77 79 80 80 84 87 91 94 96
75 78 73 72 67 64 62 65 67 67 64 64 67 58 55 53 53 60 71 71 70 66 67 68 68 64 65 66 70 71 73 74 78 77 77 81 83 83 85 90 94 93 95
85 80 80 79 76 70 60 67 68 68 63 62 63 67 67 58 52 60 72 72 73 71 68 71 68 64 64 68 72 70 73 80 74 81 81 82 81 78 82 88 88 89 90
88 88 89 88 78 70 69 61 63 67 71 59 57 71 70 67 64 70 74 70 73 73 70 74 70 67 66 66 66 72 82 85 78 81 80 81 80 82 86 90 90 94 94

GFSGL_sfc_rhum_117.txt.gz
RH
87 90 91 93 94 94 94 92 94 94 92 91 89 92 88 91 92 93 94 90 88 92 91 90 88 91 95 96 97 97 97 96 94 85 94 88 83 87 80 88 78 82 82
81 86 94 93 94 93 92 91 94 91 92 91 91 94 90 92 93 94 92 88 91 89 86 90 89 80 90 93 96 92 93 94 94 90 94 94 92 91 91 91 83 70 87
85 93 92 95 96 95 94 92 95 95 93 93 96 94 93 92 93 94 94 93 93 91 90 89 88 89 91 92 93 94 95 97 97 97 96 97 96 97 96 94 85 92 75
92 94 94 94 94 92 88 93 94 94 93 92 94 94 94 95 94 94 95 95 95 94 92 91 91 90 92 92 93 94 95 95 96 97 97 98 98 96 98 98 94 95 94
91 93 93 94 95 96 94 94 94 93 90 93 95 97 97 95 96 96 97 95 92 95 92 94 96 95 97 97 97 94 94 95 97 98 98 98 98 98 97 97 97 98 96
93 93 95 97 97 96 95 96 96 98 98 97 97 97 95 85 87 96 94 98 97 97 96 96 95 93 92 95 95 98 95 94 96 98 99 98 95 95 95 96 97 98 98
97 97 97 98 98 97 96 96 98 98 98 98 98 97 96 92 86 86 86 95 97 99 98 95 73 69 84 91 86 77 78 88 97 97 94 93 91 90 90 88 93 97 95
98 98 98 96 98 98 97 97 98 99 99 99 99 98 94 90 85 88 89 95 98 97 98 92 85 90 92 92 78 59 60 61 67 66 82 82 84 86 89 85 93 94 98
98 98 98 98 98 98 98 97 98 100 99 99 98 98 96 90 87 92 99 98 94 94 92 89 90 90 90 83 74 50 68 69 72 83 86 82 82 83 88 83 81 76 88
98 97 98 98 98 98 98 99 100 99 99 99 98 95 91 88 88 95 97 98 95 95 93 88 81 79 87 77 60 66 75 74 66 61 63 61 64 66 76 83 81 81 92
99 99 99 99 99 99 99 100 99 92 82 74 69 60 56 59 71 94 94 90 92 68 63 60 64 84 84 83 78 68 69 71 69 65 60 62 59 63 70 62 59 66 71
99 99 99 99 99 99 99 99 97 86 81 74 65 55 52 55 81 88 92 92 88 84 81 69 72 89 86 83 80 87 84 74 65 63 64 68 68 68 71 70 66 64 63
98 98 99 98 99 100 99 99 98 93 83 72 61 55 57 58 59 85 86 84 80 62 66 83 86 85 82 76 82 79 74 62 61 64 70 72 75 75 71 68 68 64 64
98 99 99 98 99 98 99 99 97 97 91 91 78 72 73 64 57 60 59 58 68 64 76 70 79 78 77 72 67 70 64 62 62 66 70 70 67 67 68 67 66 70 69
95 93 97 98 97 98 98 98 98 97 95 93 93 77 79 65 50 67 62 52 52 64 79 76 73 70 72 74 79 79 80 76 74 77 78 78 74 68 72 74 73 75 77
88 82 90 96 94 88 88 89 80 88 87 89 87 78 65 79 79 80 79 78 77 76 77 74 74 71 75 78 77 81 84 77 77 74 76 74 73 73 72 70 72 80 80
64 64 87 88 77 74 64 57 55 68 69 76 84 85 78 68 82 79 76 78 78 73 67 68 73 74 80 79 76 77 79 82 77 74 75 75 74 75 76 78 77 80 83
60 75 65 87 84 81 72 65 52 44 42 43 62 66 75 75 81 81 79 78 60 62 69 70 72 75 84 78 79 82 84 79 79 80 80 80 80 79 81 85 87 87 87
54 54 58 56 65 78 78 77 76 65 64 49 37 52 64 76 77 77 78 57 60 67 73 68 66 69 77 78 79 81 72 73 76 77 82 84 84 85 88 88 87 81 84
76 63 62 64 63 58 68 62 63 78 74 58 46 39 49 62 54 64 76 80 74 70 71 71 71 73 75 80 78 74 74 73 72 78 80 83 88 84 86 86 86 88 90
89 81 61 64 67 70 69 71 69 67 74 72 64 62 64 51 57 68 69 71 75 74 75 77 76 74 79 79 81 78 74 74 79 84 85 83 81 84 90 88 87 87 89
90 85 78 71 68 66 68 69 70 68 66 70 73 73 76 68 71 70 74 74 74 75 76 76 76 74 75 79 80 77 78 76 78 79 81 80 79 81 82 84 87 90 90
90 86 80 79 73 70 68 72 69 69 68 68 66 65 63 63 64 61 70 75 80 78 80 82 82 77 73 73 73 69 69 72 73 75 78 80 80 81 81 84 86 89 92
90 86 84 79 76 72 69 67 70 73 70 70 69 65 62 58 56 56 71 77 78 77 79 84 80 72 73 73 76 73 72 74 76 75 77 81 83 82 86 88 91 92 92
92 92 88 87 83 81 78 73 69 68 70 69 68 71 76 74 69 61 65 81 79 78 78 79 79 71 68 69 73 72 76 81 77 82 81 81 82 82 84 86 89 91 91
97 96 94 89 85 88 82 72 71 68 64 60 70 73 72 74 71 63 67 80 80 79 77 80 77 70 69 70 71 75 83 87 80 84 82 85 82 82 86 86 86 93 93

GFSGL_sfc_rhum_120.txt.gz
RH
87 87 89 89 92 92 91 91 91 90 91 90 92 92 94 89 90 94 94 89 87 88 87 88 85 84 81 85 85 90 88 89 84 74 88 79 81 83 78 76 70 73 71
84 87 90 88 91 90 91 89 90 93 94 91 89 89 92 90 92 92 90 87 88 88 87 89 86 76 87 89 83 90 85 88 81 88 90 89 88 86 86 81 75 61 72
88 90 88 87 89 89 89 88 90 92 92 89 90 92 92 90 92 94 93 91 89 89 88 85 85 87 92 86 86 85 83 93 88 94 91 88 93 87 86 78 79 80 58
90 91 90 90 87 86 87 88 89 90 91 91 91 93 92 89 91 92 94 92 91 90 89 87 86 90 91 91 89 93 87 89 90 89 95 95 93 91 92 89 81 81 68
91 92 91 92 92 93 94 94 93 93 91 92 91 92 93 93 93 93 92 91 89 84 87 87 87 90 96 94 94 92 94 92 93 91 91 94 97 91 91 92 91 97 85
92 92 92 96 94 94 94 94 95 95 95 95 94 94 93 88 93 97 96 94 92 91 92 90 91 90 90 95 96 99 92 92 93 93 94 96 90 90 91 82 85 86 77
98 98 98 97 96 96 95 97 97 97 98 97 98 98 95 90 88 91 88 94 94 94 96 94 80 71 82 82 83 80 84 89 96 92 92 91 86 85 82 84 88 86 67
98 98 98 99 99 99 98 98 99 99 99 98 99 99 96 94 90 90 89 87 96 96 95 89 81 83 84 83 67 63 68 75 75 57 80 78 79 79 82 79 86 89 83
98 99 99 99 99 99 98 98 99 100 99 99 99 99 98 98 96 97 99 98 92 89 88 84 86 84 88 92 85 72 75 69 72 82 82 82 86 88 85 73 65 68 72
99 98 99 99 99 98 98 99 100 99 100 100 99 98 98 98 98 98 100 98 94 92 90 88 79 80 81 78 78 76 75 69 63 61 61 68 75 71 74 75 66 63 66
96 99 99 99 98 98 99 99 99 100 100 99 98 98 97 95 94 97 100 98 98 95 82 70 70 86 85 82 79 77 76 70 67 60 59 63 63 60 57 60 67 56 52
99 99 99 99 99 99 99 100 99 99 98 97 92 92 72 73 91 98 98 91 88 79 82 71 77 88 87 87 85 88 83 72 60 56 56 61 60 58 58 61 69 66 60
98 99 99 99 98 99 99 99 99 99 98 97 87 66 64 64 69 87 91 88 80 70 70 84 88 87 83 82 85 82 76 62 60 61 64 62 65 61 62 62 62 69 68
98 99 99 99 99 99 99 99 100 100 99 98 97 96 87 93 78 65 65 73 82 80 83 81 81 77 78 74 68 70 67 66 63 61 62 61 60 58 60 63 59 57 54
97 97 98 99 99 99 99 100 99 100 100 99 99 92 84 70 60 73 68 58 60 74 74 68 65 62 63 65 66 67 66 62 62 62 60 59 56 56 60 60 62 61 59
75 77 92 98 92 97 99 98 92 96 98 97 97 90 89 84 80 78 77 78 74 79 76 71 70 65 62 64 67 69 67 66 64 62 60 59 58 58 60 60 60 59 59
64 81 78 77 66 64 62 62 65 67 82 85 88 89 86 89 83 77 77 80 75 76 68 73 68 65 67 71 71 64 62 64 70 63 63 62 62 61 58 59 59 59 61
70 78 78 87 76 68 65 57 52 52 48 49 66 64 78 81 76 75 79 76 61 64 64 72 70 72 72 68 68 66 65 63 64 62 61 59 58 58 59 60 61 62 62
60 62 64 64 68 75 72 74 64 62 60 54 50 58 67 74 78 79 76 62 63 60 60 70 73 74 69 66 67 66 68 66 63 62 62 62 62 62 65 64 66 71 71
71 67 64 64 59 61 60 57 60 69 66 57 49 44 50 58 52 62 72 72 72 68 70 66 70 70 68 68 70 69 64 63 63 61 63 64 64 61 62 64 63 65 66
74 69 61 60 63 60 62 63 60 60 60 61 58 60 67 49 51 59 58 64 66 67 69 67 70 69 71 72 72 69 63 62 62 63 64 64 66 66 65 66 65 67 67
75 73 67 63 62 64 62 61 60 59 58 59 57 64 78 54 60 62 61 63 63 68 64 70 67 64 65 69 70 64 63 64 66 66 66 65 68 70 69 70 69 70 71
76 71 69 67 66 67 60 60 57 57 56 57 57 54 55 55 52 55 53 52 63 64 65 64 63 60 61 64 62 59 57 59 62 63 66 65 64 67 69 70 71 72 71
78 75 73 69 68 61 58 58 58 65 57 56 56 55 54 53 52 55 51 53 64 64 64 65 62 57 62 62 63 59 57 60 61 60 61 64 65 72 68 70 71 72 71
83 80 79 76 73 70 67 63 62 59 57 57 57 57 57 59 57 55 51 52 62 64 64 64 64 61 60 60 58 57 67 83 64 71 62 63 64 69 65 65 68 70 71
91 88 86 86 79 75 75 74 71 69 65 61 60 63 59 60 58 58 57 55 62 63 64 62 63 63 61 57 57 68 86 88 71 84 59 60 61 61 60 63 66 66 68

GFSGL_sfc_rhum_123.txt.gz
RH
61 64 66 66 70 71 69 70 72 71 73 73 75 74 75 73 72 80 83 74 76 76 70 74 72 72 56 56 58 66 60 65 60 50 54 58 70 69 61 57 54 57 62
59 66 68 68 69 67 72 71 73 76 74 75 73 74 73 72 74 77 73 64 72 71 68 73 73 57 74 75 64 81 72 70 61 73 69 70 77 75 67 70 54 50 53
60 63 64 64 64 66 68 70 73 76 75 70 72 76 72 68 75 77 79 74 68 70 70 70 72 70 80 65 77 76 58 69 66 78 66 59 61 62 62 68 65 63 56
64 65 67 66 63 61 67 72 71 75 76 74 74 72 71 74 73 74 77 80 77 71 76 74 72 74 80 77 73 83 74 85 81 71 61 58 62 69 60 60 60 57 58
81 80 77 74 71 71 72 74 74 75 75 75 77 73 74 76 67 76 79 81 81 75 71 74 71 82 92 90 78 83 86 87 93 88 59 60 63 61 62 62 65 56 66
91 81 84 84 86 78 78 77 78 79 79 79 78 76 79 69 94 98 92 76 76 76 71 70 76 88 85 94 97 97 96 87 84 86 81 78 76 63 59 57 61 82 58
89 86 87 92 90 93 92 87 92 86 86 86 82 80 83 83 85 88 88 72 76 77 80 82 78 62 78 72 86 88 83 84 92 82 86 84 71 66 68 73 74 64 55
92 96 96 91 96 97 98 97 98 92 90 90 87 86 90 88 87 87 86 73 74 79 84 80 84 77 73 71 62 61 61 66 68 47 66 67 67 67 71 67 75 74 64
98 96 97 97 97 96 98 98 99 99 99 99 96 91 96 99 98 98 99 92 85 84 84 80 76 74 86 94 68 66 73 68 72 82 84 84 82 86 81 59 60 66 57
92 94 96 96 97 97 98 99 99 99 99 99 99 96 98 98 99 99 100 98 95 92 83 83 84 76 82 86 76 74 84 76 66 63 57 66 66 64 71 67 50 46 46
91 84 83 90 93 96 99 99 100 99 99 99 99 99 98 98 97 99 100 99 99 97 94 86 67 87 86 82 79 74 81 72 68 57 56 47 46 46 44 50 57 44 42
96 97 99 98 98 99 99 99 99 99 99 99 98 98 96 90 93 98 100 100 98 96 93 95 93 89 90 90 76 88 83 69 50 53 54 56 55 50 47 51 61 60 51
97 98 98 97 98 98 99 99 99 99 99 98 98 98 89 69 73 92 93 91 86 72 74 83 89 89 88 78 87 85 78 68 61 59 60 62 50 48 56 65 59 58 58
98 98 97 98 99 98 99 98 99 100 99 96 98 98 97 98 95 94 96 94 88 79 86 84 80 76 78 72 66 64 60 62 53 65 61 65 60 49 49 48 44 37 33
94 96 98 99 99 99 99 100 99 100 100 99 100 98 94 95 88 77 79 77 74 78 74 65 64 69 70 64 53 50 47 47 46 47 46 46 43 42 42 42 44 43 40
73 80 97 98 94 96 98 98 92 97 99 99 100 97 97 93 93 89 85 84 83 88 79 71 63 66 60 53 48 47 46 48 46 44 44 43 42 40 40 41 39 38 44
67 73 67 57 60 67 71 62 66 69 83 88 93 96 98 95 85 80 81 78 81 75 66 76 73 64 61 62 62 60 65 68 74 64 46 44 42 43 42 42 42 40 41
67 86 74 66 54 56 46 43 41 48 44 39 62 62 83 85 81 78 78 78 62 64 63 69 71 74 73 69 63 65 60 60 64 55 55 44 41 40 39 39 39 42 42
44 48 46 48 53 55 50 49 48 45 42 36 37 50 58 74 76 77 76 54 63 57 53 47 57 60 71 76 73 69 61 60 55 49 47 45 46 41 45 43 44 64 59
48 66 54 42 42 41 38 36 39 50 49 42 36 30 31 44 36 45 52 50 47 44 42 49 52 53 55 53 55 55 55 52 54 54 51 47 50 46 41 45 45 45 47
42 42 53 38 41 38 38 40 40 35 35 39 39 45 64 34 34 40 38 39 41 44 50 51 54 56 55 54 56 56 49 50 53 51 46 48 52 48 48 49 49 50 50
45 43 42 41 40 42 38 36 36 36 38 37 34 44 77 38 34 42 42 39 37 47 46 54 49 46 46 49 54 49 47 48 48 49 49 48 50 50 48 50 51 53 54
52 50 46 42 43 53 39 37 35 36 36 37 36 33 33 35 38 38 38 35 38 42 45 46 45 40 40 45 46 45 41 42 44 45 44 44 45 46 48 50 51 52 50
56 56 56 50 47 41 38 40 39 52 39 37 38 38 38 37 36 38 40 37 37 38 42 44 43 39 41 43 42 41 40 40 42 42 41 38 40 54 44 46 46 49 48
58 58 61 66 65 60 59 47 42 44 46 44 43 41 37 39 38 37 35 35 37 38 40 43 42 42 45 47 40 40 55 75 52 54 40 40 42 50 42 40 42 44 48
65 64 62 59 60 59 58 57 62 64 61 51 49 52 52 45 44 45 40 39 38 37 40 40 43 46 46 44 44 57 88 88 61 74 38 38 40 40 38 42 46 41 44